[[{"header":{"parameterUnit":"m.s-1","parameterCategory":1,"la1":30.6,"la2":28.766,"lo1":-90.7593,"lo2":-88.6598,"dx":0.0162,"dy":0.0183,"nx":116,"ny":114,"refTime":"2023-01-12T06:00:00:Z","depth":0,"parameterNumber":2,"parameterNumberName":"U-component_of_WINDS"},"data":[0.0,0.0,0.0,0.0,0.0,0.0,0.0,0.0,0.0,0.0,0.0,0.0,0.0,0.0,0.0,0.0,0.0,0.0,0.0,0.0,0.0,0.0,0.0,0.0,0.0,0.0,0.0,0.0,0.0,0.0,0.0,0.0,0.0,0.0,0.0,0.0,0.0,0.0,0.0,0.0,0.0,0.0,0.0,0.0,0.0,0.0,0.0,0.0,0.0,0.0,0.0,0.0,0.0,0.0,0.0,0.0,0.0,0.0,0.0,0.0,0.0,0.0,0.0,0.0,0.0,0.0,0.0,0.0,0.0,0.0,0.0,0.0,0.0,0.0,0.0,0.0,0.0,0.0,0.0,0.0,0.0,0.0,0.0,0.0,0.0,0.0,0.0,0.0,0.0,0.0,0.0,0.0,0.0,0.0,0.0,0.0,0.0,0.0,0.0,0.0,0.0,0.0,0.0,0.0,0.0,0.0,0.0,0.0,0.0,0.0,0.0,0.0,0.0,0.0,0.0,0.0,0.0,0.0,0.0,0.0,0.0,0.0,0.0,0.0,0.0,0.0,0.0,0.0,0.0,0.0,0.0,0.0,0.0,0.0,0.0,0.0,0.0,0.0,0.0,0.0,0.0,0.0,0.0,0.0,0.0,0.0,0.0,0.0,0.0,0.0,0.0,0.0,0.0,0.0,0.0,0.0,0.0,0.0,0.0,0.0,0.0,0.0,0.0,0.0,0.0,0.0,0.0,0.0,0.0,0.0,0.0,0.0,0.0,0.0,0.0,0.0,0.0,0.0,0.0,0.0,0.0,0.0,0.0,0.0,0.0,0.0,0.0,0.0,0.0,0.0,0.0,0.0,0.0,0.0,0.0,0.0,0.0,0.0,0.0,0.0,0.0,0.0,0.0,0.0,0.0,0.0,0.0,0.0,0.0,0.0,0.0,0.0,0.0,0.0,0.0,0.0,0.0,0.0,0.0,0.0,0.0,0.0,0.0,0.0,0.0,0.0,0.0,0.0,0.0,0.0,0.0,0.0,0.0,0.0,0.0,0.0,0.0,0.0,0.0,0.0,0.0,0.0,0.0,0.0,0.0,0.0,0.0,0.0,0.0,0.0,0.0,0.0,0.0,0.0,0.0,0.0,0.0,0.0,0.0,0.0,0.0,0.0,0.0,0.0,0.0,0.0,0.0,0.0,0.0,0.0,0.0,0.0,0.0,0.0,0.0,0.0,0.0,0.0,0.0,0.0,0.0,0.0,0.0,0.0,0.0,0.0,0.0,0.0,0.0,0.0,0.0,0.0,0.0,0.0,0.0,0.0,0.0,0.0,0.0,0.0,0.0,0.0,0.0,0.0,0.0,0.0,0.0,0.0,0.0,0.0,0.0,0.0,0.0,0.0,0.0,0.0,0.0,0.0,0.0,0.0,0.0,0.0,0.0,0.0,0.0,0.0,0.0,0.0,0.0,0.0,0.0,0.0,0.0,0.0,0.0,0.0,0.0,0.0,0.0,0.0,0.0,0.0,0.0,0.0,0.0,0.0,0.0,0.0,0.0,0.0,0.0,0.0,0.0,0.0,0.0,0.0,0.0,0.0,0.0,0.0,0.0,0.0,0.0,0.0,0.0,0.0,0.0,0.0,0.0,0.0,0.0,0.0,0.0,0.0,0.0,0.0,0.0,0.0,0.0,0.0,0.0,0.0,0.0,0.0,0.0,0.0,0.0,0.0,0.0,0.0,0.0,0.0,0.0,0.0,0.0,0.0,0.0,0.0,0.0,0.0,0.0,0.0,0.0,0.0,0.0,0.0,0.0,0.0,0.0,0.0,0.0,0.0,0.0,0.0,0.0,0.0,0.0,0.0,0.0,0.0,0.0,0.0,0.0,0.0,0.0,0.0,0.0,0.0,0.0,0.0,0.0,0.0,0.0,0.0,0.0,0.0,0.0,0.0,0.0,0.0,0.0,0.0,0.0,0.0,0.0,0.0,0.0,0.0,0.0,0.0,0.0,0.0,0.0,0.0,0.0,0.0,0.0,0.0,0.0,0.0,0.0,0.0,0.0,0.0,0.0,0.0,0.0,0.0,0.0,0.0,0.0,0.0,0.0,0.0,0.0,0.0,0.0,0.0,0.0,0.0,0.0,0.0,0.0,0.0,0.0,0.0,0.0,0.0,0.0,0.0,0.0,0.0,0.0,0.0,0.0,0.0,0.0,0.0,0.0,0.0,0.0,0.0,0.0,0.0,0.0,0.0,0.0,0.0,0.0,0.0,0.0,0.0,0.0,0.0,0.0,0.0,0.0,0.0,0.0,0.0,0.0,0.0,0.0,0.0,0.0,0.0,0.0,0.0,0.0,0.0,0.0,0.0,0.0,0.0,0.0,0.0,0.0,0.0,0.0,0.0,0.0,0.0,0.0,0.0,0.0,0.0,0.0,0.0,0.0,0.0,0.0,0.0,0.0,0.0,0.0,0.0,0.0,0.0,0.0,0.0,0.0,0.0,0.0,0.0,0.0,0.0,0.0,0.0,0.0,0.0,0.0,0.0,0.0,0.0,0.0,0.0,0.0,0.0,0.0,0.0,0.0,0.0,0.0,0.0,0.0,0.0,0.0,0.0,0.0,0.0,0.0,0.0,0.0,0.0,0.0,0.0,0.0,0.0,0.0,0.0,0.0,0.0,0.0,0.0,0.0,0.0,0.0,0.0,0.0,0.0,0.0,0.0,0.0,0.0,0.0,0.0,0.0,0.0,0.0,0.0,0.0,0.0,0.0,0.0,0.0,0.0,0.0,0.0,0.0,0.0,0.0,0.0,0.0,0.0,0.0,0.0,0.0,0.0,0.0,0.0,0.0,0.0,0.0,0.0,0.0,0.0,0.0,0.0,0.0,0.0,0.0,0.0,0.0,0.0,0.0,0.0,0.0,0.0,0.0,0.0,0.0,0.0,0.0,0.0,0.0,0.0,0.0,0.0,0.0,0.0,0.0,0.0,0.0,0.0,0.0,0.0,0.0,0.0,0.0,0.0,0.0,0.0,0.0,0.0,0.0,0.0,0.0,0.0,0.0,0.0,0.0,0.0,0.0,0.0,0.0,0.0,0.0,0.0,0.0,0.0,0.0,0.0,0.0,0.0,0.0,0.0,0.0,0.0,0.0,0.0,0.0,0.0,0.0,0.0,0.0,0.0,0.0,0.0,0.0,0.0,0.0,0.0,0.0,0.0,0.0,0.0,0.0,0.0,0.0,0.0,0.0,0.0,0.0,0.0,0.0,0.0,0.0,0.0,0.0,0.0,0.0,0.0,0.0,0.0,0.0,0.0,0.0,0.0,0.0,0.0,0.0,0.0,0.0,0.0,0.0,0.0,0.0,0.0,0.0,0.0,0.0,0.0,0.0,0.0,0.0,0.0,0.0,0.0,0.0,0.0,0.0,0.0,0.0,0.0,0.0,0.0,0.0,0.0,0.0,0.0,0.0,0.0,0.0,0.0,0.0,0.0,0.0,0.0,0.0,0.0,0.0,0.0,0.0,0.0,0.0,0.0,0.0,0.0,0.0,0.0,0.0,0.0,0.0,0.0,0.0,0.0,0.0,0.0,0.0,0.0,0.0,0.0,0.0,0.0,0.0,0.0,0.0,0.0,0.0,0.0,0.0,0.0,0.0,0.0,0.0,0.0,0.0,0.0,0.0,0.0,0.0,0.0,0.0,0.0,0.0,0.0,0.0,0.0,0.0,0.0,0.0,0.0,0.0,0.0,0.0,0.0,0.0,0.0,0.0,0.0,0.0,0.0,0.0,0.0,0.0,0.0,0.0,0.0,0.0,0.0,0.0,0.0,0.0,0.0,0.0,0.0,0.0,0.0,0.0,0.0,0.0,0.0,0.0,0.0,0.0,0.0,0.0,0.0,0.0,0.0,0.0,0.0,0.0,0.0,0.0,0.0,0.0,0.0,0.0,0.0,0.0,0.0,0.0,0.0,0.0,0.0,0.0,0.0,0.0,0.0,0.0,0.0,0.0,0.0,0.0,0.0,0.0,0.0,0.0,0.0,0.0,0.0,0.0,0.0,0.0,0.0,0.0,0.0,0.0,0.0,0.0,0.0,0.0,0.0,0.0,0.0,0.0,0.0,0.0,0.0,0.0,0.0,0.0,0.0,0.0,0.0,0.0,0.0,0.0,0.0,0.0,0.0,0.0,0.0,0.0,0.0,0.0,0.0,0.0,0.0,0.0,0.0,0.0,0.0,0.0,0.0,0.0,0.0,0.0,0.0,0.0,0.0,0.0,0.0,0.0,0.0,0.0,0.0,0.0,0.0,0.0,0.0,0.0,0.0,0.0,0.0,0.0,0.0,0.0,0.0,0.0,0.0,0.0,0.0,0.0,0.0,0.0,0.0,0.0,0.0,0.0,0.0,0.0,0.0,0.0,0.0,0.0,0.0,0.0,0.0,0.0,0.0,0.0,0.0,0.0,0.0,0.0,0.0,0.0,0.0,0.0,0.0,0.0,0.0,0.0,0.0,0.0,0.0,0.0,0.0,0.0,0.0,0.0,0.0,0.0,0.0,0.0,0.0,0.0,0.0,0.0,0.0,0.0,0.0,0.0,0.0,0.0,0.0,0.0,0.0,0.0,0.0,0.0,0.0,0.0,0.0,0.0,0.0,0.0,0.0,0.0,0.0,0.0,0.0,0.0,0.0,0.0,0.0,0.0,0.0,0.0,0.0,0.0,0.0,0.0,0.0,0.0,0.0,0.0,0.0,0.0,0.0,0.0,0.0,0.0,0.0,0.0,0.0,0.0,0.0,0.0,0.0,0.0,0.0,0.0,0.0,0.0,0.0,0.0,0.0,0.0,0.0,0.0,0.0,0.0,0.0,0.0,0.0,0.0,0.0,0.0,0.0,0.0,0.0,0.0,0.0,0.0,0.0,0.0,0.0,0.0,0.0,0.0,0.0,0.0,0.0,0.0,0.0,0.0,0.0,0.0,0.0,0.0,0.0,0.0,0.0,0.0,0.0,0.0,0.0,0.0,0.0,0.0,0.0,0.0,0.0,0.0,0.0,0.0,0.0,0.0,0.0,0.0,0.0,0.0,0.0,0.0,0.0,0.0,0.0,0.0,0.0,0.0,0.0,0.0,0.0,0.0,0.0,0.0,0.0,0.0,0.0,0.0,0.0,0.0,0.0,0.0,0.0,0.0,0.0,0.0,0.0,0.0,0.0,0.0,0.0,0.0,0.0,0.0,0.0,0.0,0.0,0.0,0.0,0.0,0.0,0.0,0.0,0.0,0.0,0.0,0.0,0.0,0.0,0.0,0.0,0.0,0.0,0.0,0.0,0.0,0.0,0.0,0.0,0.0,0.0,0.0,0.0,0.0,0.0,0.0,0.0,0.0,0.0,0.0,0.0,0.0,0.0,0.0,0.0,0.0,0.0,0.0,0.0,0.0,0.0,0.0,0.0,0.0,0.0,0.0,0.0,0.0,0.0,0.0,0.0,0.0,0.0,0.0,0.0,0.0,0.0,0.0,0.0,0.0,0.0,0.0,0.0,0.0,0.0,0.0,0.0,0.0,0.0,0.0,0.0,0.0,0.0,0.0,0.0,0.0,0.0,0.0,0.0,0.0,0.0,0.0,0.0,0.0,0.0,0.0,0.0,0.0,0.0,0.0,0.0,0.0,0.0,0.0,0.0,0.0,0.0,0.0,0.0,0.0,0.0,0.0,0.0,0.0,0.0,0.0,0.0,0.0,0.0,0.0,0.0,0.0,0.0,0.0,0.0,0.0,0.0,0.0,0.0,0.0,0.0,0.0,0.0,0.0,0.0,0.0,0.0,0.0,0.0,0.0,0.0,0.0,0.0,0.0,0.0,0.0,0.0,0.0,0.0,0.0,0.0,0.0,0.0,0.0,0.0,0.0,0.0,0.0,0.0,0.0,0.0,0.0,0.0,0.0,0.0,0.0,0.0,0.0,0.0,0.0,0.0,0.0,0.0,0.0,0.0,0.0,0.0,0.0,0.0,0.0,0.0,0.0,0.0,0.0,0.0,0.0,0.0,0.0,0.0,0.0,0.0,0.0,0.0,0.0,0.0,0.0,0.0,0.0,0.0,0.0,0.0,0.0,0.0,0.0,0.0,4.8318,0.0,0.0,0.0,0.0,0.0,0.0,0.0,0.0,0.0,0.0,0.0,0.0,0.0,0.0,0.0,0.0,0.0,0.0,0.0,0.0,0.0,0.0,0.0,0.0,2.4073,2.4679,2.5652,2.5889,0.0,0.0,0.0,0.0,0.0,0.0,0.0,2.4153,2.4557,2.5328,2.6502,2.705,2.9042,3.2235,3.1309,2.9981,0.0,0.0,0.0,0.0,0.0,0.0,0.0,0.0,0.0,0.0,0.0,0.0,0.0,0.0,0.0,0.0,0.0,0.0,0.0,0.0,0.0,0.0,0.0,0.0,0.0,0.0,0.0,0.0,0.0,0.0,0.0,0.0,0.0,0.0,0.0,0.0,0.0,0.0,0.0,0.0,0.0,0.0,0.0,0.0,0.0,0.0,0.0,0.0,0.0,0.0,0.0,0.0,0.0,0.0,0.0,0.0,0.0,0.0,0.0,0.0,0.0,0.0,0.0,0.0,0.0,0.0,0.0,0.0,0.0,0.0,0.0,0.0,4.9527,0.0,0.0,0.0,0.0,0.0,0.0,0.0,0.0,0.0,0.0,0.0,0.0,0.0,0.0,0.0,0.0,0.0,0.0,0.0,0.0,0.0,2.3059,2.4186,2.4718,2.536,2.6224,2.6607,2.6796,2.6796,0.0,0.0,0.0,0.0,0.0,2.5605,2.5752,2.701,2.9479,3.082,3.2973,3.5897,0.0,0.0,0.0,0.0,0.0,0.0,0.0,0.0,0.0,0.0,0.0,0.0,0.0,0.0,0.0,0.0,0.0,0.0,0.0,0.0,0.0,0.0,0.0,0.0,0.0,0.0,0.0,0.0,0.0,0.0,0.0,0.0,0.0,0.0,0.0,0.0,0.0,0.0,0.0,0.0,0.0,0.0,0.0,0.0,0.0,0.0,0.0,0.0,0.0,0.0,0.0,0.0,0.0,0.0,0.0,0.0,0.0,0.0,0.0,0.0,0.0,0.0,0.0,0.0,0.0,0.0,0.0,5.3587,5.4164,5.4318,5.4472,5.5357,5.6703,5.4741,5.4643,5.5605,0.0,0.0,0.0,0.0,0.0,0.0,0.0,0.0,0.0,0.0,0.0,0.0,0.0,0.0,0.0,0.0,0.0,0.0,0.0,0.0,2.276,2.3865,2.484,2.5847,2.697,2.7387,2.764,2.764,2.8191,0.0,0.0,0.0,0.0,2.6465,2.7126,2.8749,3.1332,3.6964,4.0275,4.1277,0.0,0.0,0.0,0.0,0.0,0.0,0.0,0.0,0.0,0.0,0.0,0.0,0.0,0.0,0.0,0.0,0.0,0.0,0.0,0.0,0.0,0.0,0.0,0.0,0.0,0.0,0.0,0.0,0.0,0.0,0.0,0.0,0.0,0.0,0.0,0.0,0.0,0.0,0.0,0.0,0.0,0.0,0.0,0.0,0.0,0.0,0.0,4.6278,4.7317,0.0,0.0,0.0,0.0,0.0,0.0,0.0,0.0,0.0,0.0,0.0,0.0,0.0,5.1702,5.301,5.4357,5.5088,5.5203,5.6857,5.8011,5.8704,5.9435,6.0319,6.1281,6.1627,0.0,5.5703,5.5275,0.0,0.0,0.0,0.0,0.0,0.0,0.0,0.0,0.0,0.0,0.0,0.0,0.0,0.0,0.0,0.0,0.0,0.0,0.0,0.0,0.0,2.7571,2.8991,3.0538,3.1266,3.1189,3.0133,2.9952,0.0,0.0,0.0,2.7383,2.7934,2.9622,3.2516,3.668,4.044,4.2492,0.0,0.0,0.0,0.0,0.0,0.0,0.0,0.0,0.0,0.0,0.0,0.0,0.0,0.0,0.0,0.0,0.0,0.0,0.0,0.0,0.0,0.0,0.0,0.0,0.0,0.0,0.0,0.0,0.0,0.0,0.0,0.0,0.0,0.0,0.0,0.0,0.0,0.0,0.0,0.0,0.0,0.0,0.0,0.0,0.0,0.0,0.0,4.4662,4.6817,4.8625,4.6932,4.5778,0.0,0.0,0.0,0.0,0.0,0.0,0.0,0.0,0.0,5.3472,5.3857,5.4895,5.6742,5.7934,5.8819,5.9319,6.055,6.1281,6.1666,6.205,6.2397,6.2781,6.3166,6.205,5.9858,5.8558,5.7212,5.5775,0.0,0.0,0.0,0.0,5.4629,5.4853,0.0,0.0,0.0,0.0,0.0,0.0,0.0,0.0,0.0,0.0,0.0,0.0,2.8352,3.0302,3.2044,3.3421,3.4193,3.4023,3.262,3.1709,0.0,0.0,2.8086,2.8374,3.021,3.3093,3.6818,0.0,0.0,0.0,0.0,0.0,0.0,0.0,0.0,0.0,0.0,0.0,0.0,0.0,0.0,0.0,0.0,0.0,0.0,0.0,0.0,0.0,0.0,0.0,0.0,0.0,0.0,0.0,0.0,0.0,0.0,0.0,0.0,0.0,0.0,0.0,0.0,0.0,0.0,0.0,0.0,0.0,0.0,0.0,0.0,0.0,0.0,0.0,0.0,0.0,0.0,4.6432,4.8163,4.9856,4.8548,4.7625,0.0,0.0,0.0,0.0,0.0,0.0,5.378,5.428,5.528,5.6934,5.7203,5.8357,6.0435,6.1127,6.1781,6.2397,6.3012,6.332,6.332,6.3551,6.3743,6.3974,6.4166,6.4397,6.4397,6.1733,6.0402,5.985,5.8062,5.7118,5.6885,5.7947,5.8066,5.8131,0.0,0.0,0.0,0.0,0.0,0.0,0.0,0.0,0.0,0.0,0.0,2.8827,2.896,3.1854,3.3874,3.3978,3.4359,3.4547,3.4479,3.3479,0.0,0.0,3.1008,3.1127,3.3513,3.7792,0.0,0.0,0.0,0.0,0.0,0.0,0.0,0.0,0.0,0.0,0.0,0.0,0.0,0.0,0.0,0.0,0.0,0.0,0.0,0.0,0.0,0.0,0.0,0.0,0.0,0.0,0.0,0.0,0.0,0.0,0.0,0.0,0.0,0.0,0.0,0.0,0.0,0.0,0.0,0.0,0.0,0.0,0.0,0.0,0.0,0.0,0.0,0.0,0.0,0.0,0.0,0.0,0.0,5.1856,5.2395,0.0,0.0,0.0,0.0,5.1779,5.3395,5.4703,5.5511,5.7126,5.8819,6.0473,6.1358,6.2204,6.3089,6.3166,6.3205,6.3243,6.3281,6.332,6.332,6.4166,6.4974,6.582,6.659,6.7398,6.7898,6.4512,6.2271,6.0916,6.0786,5.9879,5.8769,6.0287,6.1324,6.2221,0.0,0.0,0.0,2.2327,2.2327,2.2462,2.2936,2.3241,2.3748,2.4695,2.7435,2.9793,3.0992,3.4144,3.6423,3.7149,3.823,3.8356,3.7143,3.6057,0.0,0.0,0.0,3.5679,4.0708,4.1633,0.0,0.0,0.0,0.0,0.0,0.0,0.0,0.0,0.0,0.0,0.0,0.0,0.0,0.0,0.0,0.0,0.0,0.0,0.0,0.0,0.0,0.0,0.0,0.0,0.0,0.0,0.0,0.0,0.0,0.0,0.0,0.0,0.0,0.0,0.0,0.0,0.0,0.0,0.0,0.0,0.0,0.0,0.0,0.0,0.0,0.0,0.0,0.0,0.0,0.0,0.0,0.0,0.0,5.2779,5.351,0.0,5.2433,5.3549,5.4587,5.5126,5.728,5.8934,5.9781,6.0896,6.1781,6.2397,6.2704,6.3012,6.332,6.3858,6.4436,6.4974,6.5513,6.6051,6.659,6.6898,6.7205,6.7513,6.7821,6.8129,6.8321,6.709,6.6256,6.5756,6.5756,6.5423,6.5013,6.5538,6.5961,6.6295,0.0,0.0,0.0,2.2327,2.2327,2.2564,2.3274,2.3613,2.4492,2.6488,2.9107,3.1568,3.3601,3.6706,3.8935,3.9697,4.0865,4.09,3.944,3.832,0.0,0.0,0.0,0.0,0.0,0.0,0.0,0.0,0.0,0.0,0.0,0.0,0.0,0.0,0.0,0.0,0.0,0.0,0.0,0.0,0.0,0.0,3.8102,0.0,0.0,0.0,0.0,0.0,0.0,0.0,0.0,0.0,0.0,0.0,0.0,0.0,0.0,0.0,0.0,0.0,0.0,0.0,0.0,0.0,0.0,0.0,0.0,0.0,0.0,0.0,0.0,0.0,0.0,0.0,0.0,0.0,0.0,0.0,5.3549,5.3241,5.4741,5.5318,5.4164,5.6088,5.7665,5.8242,6.0358,6.1897,6.2474,6.3012,6.3435,6.3743,6.4012,6.432,6.4589,6.5436,6.6167,6.6744,6.7282,6.7859,6.8398,6.8398,6.8552,6.8859,6.8859,6.9013,6.9244,6.9244,6.9244,6.9206,6.8629,6.8398,6.8398,6.8398,6.8398,6.8436,0.0,0.0,2.2395,2.2395,2.2395,2.2632,2.3342,2.4052,2.5641,2.8655,3.1562,3.4269,3.6535,3.9445,4.1204,4.1204,4.188,4.2016,4.1271,4.003,0.0,0.0,0.0,0.0,0.0,0.0,0.0,0.0,0.0,0.0,0.0,0.0,0.0,0.0,0.0,0.0,0.0,0.0,0.0,0.0,0.0,0.0,4.4306,0.0,0.0,0.0,0.0,0.0,0.0,0.0,0.0,0.0,0.0,0.0,0.0,0.0,0.0,0.0,0.0,0.0,0.0,0.0,0.0,0.0,0.0,0.0,0.0,0.0,0.0,0.0,0.0,0.0,0.0,0.0,0.0,0.0,5.0933,5.2972,5.428,5.3472,5.6319,5.7665,5.6011,5.8858,6.0858,6.0896,6.2397,6.3358,6.3397,6.3397,6.382,6.4705,6.5551,6.6359,6.7128,6.7975,6.8398,6.8436,6.8436,6.8475,6.8475,6.8475,6.8936,6.9744,6.9744,7.0167,7.0898,7.0898,7.0898,7.0744,6.9129,6.8475,6.8475,6.8475,6.8475,6.859,2.3207,2.3511,2.3883,2.3883,2.3883,2.412,2.4898,2.5169,2.6387,2.9397,3.1901,3.4269,3.6535,3.9445,4.1204,4.1204,4.2354,4.2794,4.2049,0.0,0.0,0.0,0.0,0.0,0.0,0.0,0.0,0.0,0.0,0.0,0.0,0.0,0.0,0.0,0.0,0.0,0.0,0.0,0.0,0.0,0.0,0.0,4.5562,0.0,0.0,0.0,0.0,0.0,0.0,0.0,0.0,0.0,0.0,0.0,0.0,0.0,0.0,0.0,0.0,0.0,0.0,0.0,0.0,0.0,0.0,0.0,0.0,0.0,0.0,0.0,0.0,0.0,0.0,0.0,0.0,5.3703,5.3472,5.5088,5.6472,5.6857,5.8242,5.9242,5.9358,6.0819,6.1973,6.2589,6.3628,6.4512,6.5166,6.5743,6.6436,6.7321,6.759,6.7821,6.8052,6.8282,6.8744,6.936,6.936,6.9667,7.0206,7.0206,7.036,7.0552,7.0552,7.0706,7.0898,7.0898,7.0898,7.086,7.0398,7.0206,7.0206,7.0206,7.0206,7.0244,2.3917,2.4218,2.4523,2.4523,2.4523,2.4729,2.5507,2.6116,2.774,3.1055,3.3152,3.5453,3.8328,4.046,4.1779,4.2117,4.3504,4.3775,4.2388,0.0,0.0,0.0,0.0,0.0,0.0,0.0,0.0,0.0,0.0,0.0,0.0,0.0,0.0,0.0,0.0,0.0,0.0,0.0,0.0,0.0,0.0,0.0,4.807,4.7636,4.6067,4.3975,4.28,4.1368,3.9974,3.979,0.0,0.0,0.0,0.0,0.0,0.0,0.0,0.0,0.0,0.0,0.0,0.0,0.0,0.0,0.0,0.0,0.0,0.0,0.0,0.0,0.0,0.0,0.0,0.0,5.4934,5.6203,5.6549,5.7434,5.8357,5.9242,6.0089,6.0935,6.1781,6.2627,6.3474,6.432,6.5166,6.6013,6.6898,6.7398,6.7898,6.8398,6.8744,6.8936,6.8936,6.9283,6.9706,7.0206,7.0206,7.0437,7.0898,7.0898,7.0898,0.0,7.0898,7.0898,7.0898,7.0898,7.0898,0.0,0.0,0.0,0.0,0.0,7.0898,7.0898,2.4659,2.4661,2.476,2.476,2.476,2.4966,2.5609,2.6928,2.9161,3.2916,3.4709,3.7043,4.0798,4.1914,4.2692,4.3369,4.4823,4.4891,0.0,0.0,0.0,0.0,0.0,0.0,0.0,0.0,0.0,0.0,0.0,0.0,0.0,0.0,0.0,0.0,0.0,0.0,0.0,0.0,0.0,0.0,0.0,0.0,5.0839,5.0227,4.9481,4.8526,4.7095,4.5553,4.3975,4.2653,0.0,0.0,0.0,0.0,0.0,0.0,0.0,0.0,0.0,0.0,0.0,0.0,0.0,0.0,0.0,0.0,0.0,0.0,0.0,0.0,0.0,0.0,0.0,0.0,5.7434,5.8858,5.9665,5.9858,6.0165,6.0858,6.1704,6.2551,6.3358,6.4243,6.5089,6.5974,6.6782,6.7628,6.8513,0.0,0.0,0.0,0.0,6.986,6.986,7.0552,7.0898,7.0898,7.0898,7.0898,7.0898,7.0898,7.0898,7.0898,7.0898,7.0975,7.1052,7.0937,7.0975,7.1052,7.0937,7.0898,7.0898,7.0898,7.0975,7.1052,2.5507,2.5879,2.6251,2.6251,2.6251,2.6319,2.6454,2.7232,2.9161,3.2916,3.4709,3.7043,4.0798,4.2388,4.3267,4.3403,4.4823,4.5771,0.0,0.0,0.0,0.0,0.0,0.0,0.0,0.0,0.0,0.0,0.0,0.0,0.0,0.0,0.0,0.0,0.0,0.0,0.0,0.0,0.0,0.0,0.0,0.0,5.1194,5.2142,5.2013,5.1242,5.0912,4.9774,4.8453,4.882,4.7058,4.4745,4.4745,0.0,0.0,0.0,0.0,0.0,0.0,0.0,0.0,0.0,0.0,0.0,0.0,0.0,0.0,0.0,0.0,0.0,0.0,0.0,0.0,5.7511,5.9204,6.0627,6.1473,6.2166,6.2397,6.1897,6.2551,6.3397,6.4282,6.5128,6.5974,6.6821,6.7667,6.8552,6.9398,6.9436,0.0,7.0398,7.0591,7.0667,7.0667,7.0821,7.0898,7.0898,0.0,0.0,7.0898,7.0898,7.0898,7.0898,7.0898,7.1283,7.1898,7.1206,7.1321,7.186,7.1168,7.0898,7.0898,7.0898,7.1321,7.1937,2.6218,2.6454,2.6691,2.6691,2.6691,2.6826,2.7199,2.8247,3.0176,3.3525,3.525,3.7483,4.0832,4.1542,4.1914,4.2286,4.3335,0.0,0.0,0.0,0.0,0.0,0.0,0.0,0.0,0.0,0.0,0.0,0.0,0.0,0.0,0.0,0.0,0.0,0.0,0.0,0.0,0.0,0.0,0.0,0.0,0.0,5.1241,5.268,5.2968,5.2601,5.2601,5.183,5.0839,5.1279,5.0031,4.8343,4.8343,4.6948,4.5002,0.0,0.0,0.0,0.0,0.0,0.0,0.0,0.0,0.0,0.0,0.0,0.0,0.0,0.0,5.3587,5.4857,0.0,5.7703,5.9858,6.0896,6.1743,6.2589,6.3435,6.382,6.3397,6.4089,6.4936,6.5782,6.6628,6.7513,6.8321,6.8783,6.9436,7.0244,7.0283,7.0475,7.0898,7.0898,7.0706,7.0283,7.0706,7.0475,6.9667,7.0514,7.0706,7.0321,7.0706,7.0898,7.0898,7.0898,7.1168,7.1514,7.1091,7.1168,7.1514,7.1052,7.1437,7.2168,7.1706,7.2091,7.2783,2.6691,2.6691,2.6691,2.6691,2.6691,2.6894,2.7503,2.889,3.0886,3.3694,3.552,3.7618,4.046,4.0223,4.0223,4.1136,0.0,0.0,0.0,0.0,0.0,0.0,0.0,0.0,0.0,0.0,0.0,0.0,0.0,0.0,0.0,0.0,0.0,0.0,0.0,0.0,0.0,0.0,0.0,0.0,0.0,0.0,5.1034,5.2463,5.306,5.3225,5.3225,5.2784,5.2234,5.2234,5.1683,5.1022,5.1022,4.9994,4.8489,4.6838,4.581,0.0,0.0,0.0,0.0,0.0,0.0,0.0,0.0,0.0,5.1834,5.2913,5.4395,5.5934,5.7434,5.8434,5.9742,6.1973,6.2474,6.2858,6.3705,6.4551,6.5166,6.532,6.582,6.6436,6.7282,6.8129,6.8936,6.9667,6.986,7.0206,7.086,7.0898,7.0898,7.0898,7.0744,7.036,6.9706,7.036,6.9975,6.8667,7.0167,7.0552,6.9975,7.0591,7.0898,7.0898,7.1091,7.1052,7.0937,7.1283,7.1321,7.1168,7.1321,7.2245,7.336,7.2322,7.2514,7.3168,2.6691,2.6691,2.6691,2.6691,2.6691,2.6725,2.6793,2.8112,2.9939,3.228,3.4404,3.6637,3.8971,3.9174,3.9681,0.0,0.0,0.0,0.0,0.0,0.0,0.0,0.0,0.0,0.0,0.0,0.0,0.0,0.0,0.0,0.0,0.0,0.0,0.0,0.0,0.0,0.0,0.0,0.0,0.0,0.0,0.0,5.0279,5.1692,5.2599,5.3225,5.3225,5.3151,5.3078,5.3078,5.2527,5.1867,5.1867,5.1242,5.0178,4.8526,0.0,4.6691,0.0,0.0,0.0,5.0115,5.075,5.1884,0.0,0.0,5.5097,5.7136,5.8319,5.9242,6.0204,6.1089,6.2012,6.3012,6.382,6.4628,6.5474,6.632,6.709,6.7898,6.7398,6.7321,6.8167,6.9052,6.959,6.9706,7.036,7.0821,7.0898,7.0898,7.0898,7.0898,7.0206,6.9783,6.9706,6.9783,6.9744,6.959,7.0475,7.086,7.0783,7.086,7.0898,7.0937,7.1706,7.1629,7.1014,7.2591,7.2745,7.2129,7.2899,7.3322,7.3322,7.1668,7.1591,7.2322,2.6691,2.6691,2.6691,2.6691,2.6691,2.7131,2.8484,2.8856,2.9939,3.2577,3.4134,3.5656,3.7516,3.7719,3.8125,3.9208,0.0,0.0,0.0,0.0,0.0,0.0,0.0,0.0,0.0,0.0,0.0,0.0,0.0,0.0,0.0,0.0,0.0,0.0,0.0,0.0,0.0,0.0,0.0,0.0,0.0,0.0,5.077,5.1741,5.2554,5.3225,5.3225,5.2894,0.0,0.0,5.2674,5.2087,5.2564,5.216,5.1169,4.9517,4.882,0.0,4.9454,0.0,0.0,0.0,5.3188,5.387,5.5434,5.5965,5.6717,5.8907,6.002,6.0942,6.2065,6.2551,6.3089,0.0,6.4782,6.5628,6.6474,6.7321,6.8167,6.9052,6.8821,6.8744,6.9129,6.9898,7.0398,7.0398,7.0706,7.0898,7.0898,7.0898,7.0706,7.0206,7.0321,6.9937,6.8936,6.9898,6.9898,6.8975,7.0283,7.0667,7.0206,7.0706,7.0898,7.0937,7.1283,7.1245,7.1014,7.2245,7.2514,7.2283,7.3168,7.3514,7.3399,7.2668,7.2937,7.3668,2.6691,2.6691,2.6826,2.7266,2.7131,2.7571,2.9228,2.9364,3.0209,3.2747,3.3728,3.4709,3.5994,3.6332,3.6772,3.7516,4.029,4.3064,0.0,0.0,0.0,0.0,0.0,0.0,0.0,0.0,0.0,0.0,0.0,0.0,0.0,0.0,0.0,0.0,0.0,0.0,0.0,0.0,0.0,0.0,0.0,0.0,5.0876,5.1544,5.1999,5.2279,5.2443,5.216,0.0,0.0,5.1426,5.1389,5.1756,5.1756,5.1426,5.0251,4.9921,5.0215,5.161,0.0,0.0,5.4363,5.5286,5.5906,5.6251,5.7043,5.8302,6.0365,6.1285,6.2128,6.3399,6.3858,6.432,6.5166,6.6013,6.6859,6.7705,6.8359,6.909,6.9937,7.0014,7.0014,7.0014,7.0552,7.0898,7.0898,7.0898,7.1014,7.1245,7.1014,7.0744,7.0398,7.0514,6.9975,6.8783,6.9975,6.9975,6.8783,7.0206,7.0591,7.0052,7.086,7.1245,7.1283,7.1514,7.1629,7.1668,7.2283,7.2552,7.2629,7.3245,7.3514,7.3553,7.3745,7.4053,7.4361,2.6691,2.6691,2.7165,2.8689,2.8281,2.7772,2.784,2.9127,3.0615,3.2104,3.2983,3.3728,3.4472,3.5216,3.596,3.6738,3.9512,4.2489,0.0,0.0,0.0,0.0,0.0,0.0,0.0,0.0,0.0,0.0,0.0,0.0,0.0,0.0,0.0,0.0,0.0,0.0,0.0,0.0,0.0,0.0,0.0,0.0,5.0146,5.0876,5.0615,4.9928,5.0634,0.0,0.0,0.0,4.8343,4.9517,4.871,4.9554,0.0,5.0765,5.0765,0.0,0.0,0.0,5.4509,5.5354,5.6712,5.8252,5.9441,5.9793,6.0299,6.2167,6.2552,6.2968,6.4283,6.5243,6.609,6.6898,6.7744,6.8629,6.9513,6.9629,6.9975,7.0783,7.086,7.086,0.0,7.0898,7.0898,7.0898,7.0898,7.1283,7.2129,7.136,7.1283,7.2091,7.0552,6.9706,6.9667,6.9706,6.9706,6.9667,7.0514,7.0898,7.0898,7.1745,7.2168,7.2206,7.3053,7.3437,7.3437,7.3437,7.3476,7.3476,7.3514,7.3514,7.3591,7.4399,7.4207,7.3553,2.7334,2.7029,2.7165,2.8721,2.8755,2.8755,2.9262,2.977,3.0649,3.2144,3.3355,0.0,0.0,0.0,0.0,0.0,3.9039,4.1339,4.3301,0.0,0.0,0.0,0.0,0.0,0.0,0.0,0.0,0.0,0.0,0.0,0.0,0.0,0.0,0.0,0.0,0.0,0.0,0.0,0.0,0.0,0.0,0.0,5.0876,5.2054,5.1289,4.9533,0.0,0.0,0.0,0.0,0.0,0.0,4.8049,0.0,4.8453,4.9003,5.0325,0.0,0.0,0.0,5.6308,5.7666,5.8804,5.9696,6.0103,6.0222,6.0678,6.2178,6.2295,6.2563,6.3847,6.5087,6.5974,6.6244,6.7975,6.936,6.9667,7.0167,7.0591,7.086,7.0898,0.0,0.0,0.0,0.0,7.0898,7.1437,7.1629,7.136,7.1591,7.1398,7.0552,7.0514,7.0244,6.9706,7.0244,7.0783,7.136,7.2206,7.2629,7.2629,7.2937,7.3053,7.3091,7.336,7.3514,7.3553,7.4091,7.4322,7.4361,7.4938,7.5168,7.5207,7.5476,7.5399,7.5168,0.0,0.0,0.0,2.9127,2.9397,0.0,0.0,0.0,0.0,0.0,0.0,0.0,0.0,0.0,0.0,0.0,0.0,3.9952,0.0,0.0,0.0,0.0,0.0,0.0,0.0,0.0,0.0,0.0,0.0,0.0,0.0,0.0,0.0,0.0,0.0,0.0,0.0,0.0,0.0,0.0,0.0,0.0,5.1437,5.1193,4.9761,0.0,0.0,0.0,0.0,0.0,0.0,0.0,0.0,4.7682,4.8636,4.9738,5.1573,5.3628,5.5244,5.6638,5.7997,5.9318,6.0015,6.0493,6.075,6.0823,6.1198,6.2531,6.2593,6.274,6.4013,6.5388,6.632,6.632,6.8475,7.0014,6.9744,7.0398,7.0898,7.0898,7.0898,7.1014,0.0,0.0,0.0,7.136,7.2168,7.2437,7.186,7.2052,7.1706,7.0629,7.0783,7.0783,7.0591,7.1091,7.1783,7.2668,7.3245,7.3514,7.3514,7.3822,7.3937,7.3937,7.4245,7.4399,7.4437,7.4938,7.5168,7.5207,7.5784,7.6207,7.6476,7.6476,7.663,7.6823,0.0,0.0,0.0,0.0,0.0,0.0,0.0,0.0,0.0,0.0,0.0,0.0,0.0,0.0,0.0,0.0,0.0,0.0,0.0,0.0,0.0,0.0,0.0,0.0,0.0,0.0,0.0,0.0,0.0,0.0,0.0,0.0,0.0,0.0,0.0,0.0,0.0,0.0,0.0,0.0,0.0,0.0,5.1535,4.8424,0.0,0.0,0.0,0.0,0.0,0.0,0.0,0.0,4.4745,4.7719,5.1242,5.2821,5.4436,5.6051,5.7629,5.8694,5.9538,6.0272,6.0493,6.0713,6.1484,6.1704,6.2082,6.323,6.3303,6.3461,0.0,0.0,6.7051,6.7051,6.9206,7.0629,6.986,7.0437,7.0937,0.0,0.0,0.0,0.0,0.0,0.0,7.2322,0.0,7.3514,7.3437,7.2706,7.2206,7.2129,7.136,7.136,7.2168,7.2283,7.2745,7.3553,7.363,7.363,7.3668,7.4437,7.4784,7.4822,7.563,7.6015,7.6053,7.6053,7.6092,7.613,7.613,7.663,7.7361,7.7361,7.7823,7.8246,0.0,0.0,0.0,0.0,0.0,0.0,0.0,0.0,0.0,0.0,0.0,0.0,0.0,0.0,0.0,0.0,0.0,0.0,0.0,0.0,0.0,0.0,0.0,0.0,0.0,0.0,0.0,0.0,0.0,0.0,0.0,0.0,0.0,0.0,0.0,0.0,0.0,0.0,0.0,0.0,0.0,0.0,4.8431,0.0,0.0,0.0,0.0,0.0,0.0,0.0,0.0,0.0,4.8783,5.0802,5.2784,5.3812,5.5647,5.7593,5.8621,5.9942,6.1043,6.1227,6.1741,6.2254,6.2475,6.2989,6.3185,6.2266,6.2603,6.2748,0.0,0.0,0.0,6.6205,6.8859,0.0,7.0629,7.0783,0.0,7.1783,0.0,7.2206,7.3091,7.3707,0.0,0.0,7.4284,7.386,7.2591,7.2937,7.2591,7.1283,7.1629,7.1975,7.2206,7.3437,7.4168,7.4399,7.5053,7.5361,7.5361,7.5553,7.5668,7.5668,7.5899,7.6361,7.6976,7.6976,7.7323,7.7861,7.7861,7.7977,7.8169,7.8169,7.8323,7.8438,0.0,0.0,0.0,0.0,0.0,0.0,0.0,0.0,0.0,0.0,0.0,0.0,0.0,0.0,0.0,0.0,0.0,0.0,0.0,0.0,0.0,0.0,0.0,0.0,0.0,0.0,0.0,0.0,0.0,0.0,0.0,0.0,0.0,0.0,0.0,0.0,0.0,0.0,0.0,0.0,0.0,0.0,0.0,0.0,0.0,0.0,0.0,0.0,0.0,0.0,0.0,5.0141,5.1463,5.2711,5.4032,5.5537,0.0,5.8767,5.9942,6.119,6.2144,6.2144,6.2475,6.2732,6.2365,6.2658,6.272,6.1597,6.1674,0.0,0.0,0.0,0.0,0.0,0.0,0.0,7.0437,7.1014,7.1629,0.0,7.2552,0.0,7.3937,7.4437,7.4707,0.0,7.5053,7.4553,7.286,7.3591,7.3245,7.1514,7.2322,7.2937,7.3283,7.4591,7.5284,7.5284,7.5784,7.6015,7.6015,7.6015,7.6207,7.6553,0.0,7.7053,7.7823,7.7823,7.8092,7.8477,7.8477,7.8707,7.9054,7.9054,7.9323,7.9631,0.0,0.0,0.0,0.0,0.0,0.0,0.0,0.0,0.0,0.0,3.525,0.0,0.0,0.0,0.0,0.0,0.0,0.0,0.0,0.0,0.0,0.0,0.0,0.0,0.0,0.0,0.0,0.0,0.0,0.0,0.0,0.0,0.0,0.0,0.0,0.0,0.0,0.0,0.0,0.0,0.0,0.0,0.0,0.0,0.0,0.0,0.0,0.0,0.0,0.0,5.2197,5.2637,5.3555,5.4399,5.5464,5.7666,5.8877,5.9869,6.1337,6.2291,6.2805,6.2805,6.2915,6.2732,6.1814,6.1667,6.1592,6.0951,0.0,6.0966,6.2161,0.0,6.5782,6.6013,0.0,7.0552,7.009,7.1283,7.2283,7.2514,7.3206,7.3976,7.4784,7.4861,7.4938,7.5053,7.5745,7.5438,7.3745,7.4322,7.4014,7.2591,7.3283,7.4053,7.4861,7.563,7.6015,7.6015,7.6015,7.6053,7.6169,7.6169,7.663,7.7438,0.0,0.0,7.8669,7.8669,7.8746,7.8861,7.8861,7.9323,7.9977,7.9977,8.0439,8.1093,0.0,0.0,0.0,0.0,0.0,0.0,0.0,0.0,0.0,0.0,3.5791,3.5182,0.0,0.0,0.0,0.0,0.0,0.0,0.0,0.0,0.0,0.0,0.0,0.0,0.0,0.0,0.0,0.0,0.0,0.0,0.0,0.0,0.0,0.0,0.0,0.0,0.0,0.0,0.0,0.0,0.0,0.0,0.0,0.0,0.0,0.0,0.0,0.0,0.0,0.0,5.3335,5.5207,5.6712,5.774,5.8584,5.9685,6.0566,6.1374,6.2365,6.2695,6.2805,6.2805,6.3356,6.3466,6.1961,6.2108,0.0,0.0,0.0,6.0672,6.1001,6.3121,6.5282,6.6667,0.0,0.0,0.0,0.0,7.2706,0.0,0.0,0.0,0.0,0.0,0.0,0.0,0.0,7.6322,7.4591,7.463,7.4591,7.4284,7.4399,7.4899,7.5784,7.5938,7.6015,7.6015,7.6015,7.6361,7.7053,7.7053,7.7515,7.8284,7.8284,0.0,7.9592,7.9592,8.0015,8.0631,8.0631,8.0746,8.0862,8.0862,8.0977,8.1093,0.0,0.0,0.0,0.0,0.0,0.0,0.0,3.6434,3.8058,3.9952,3.9242,3.8531,3.8531,3.8159,3.7922,0.0,0.0,0.0,0.0,0.0,0.0,0.0,0.0,0.0,0.0,0.0,0.0,0.0,0.0,0.0,0.0,0.0,0.0,0.0,0.0,0.0,0.0,0.0,0.0,0.0,0.0,0.0,0.0,0.0,0.0,0.0,0.0,0.0,0.0,0.0,5.3959,5.5941,5.7997,5.8914,5.9465,6.0676,6.13,6.1777,6.2585,6.2805,6.2915,6.3356,6.3796,6.3649,6.1961,0.0,0.0,0.0,0.0,5.9639,6.0608,0.0,0.0,0.0,0.0,0.0,0.0,0.0,0.0,0.0,0.0,0.0,0.0,0.0,0.0,0.0,0.0,7.6938,7.6092,7.563,7.5399,7.5399,7.5399,7.5592,7.6015,7.6015,7.6015,7.6015,7.6476,7.6899,7.7323,7.7707,7.8361,7.9169,7.9169,0.0,8.0477,8.0477,8.0708,8.1093,8.1093,8.1093,8.1093,8.1093,8.1093,8.117,0.0,0.0,0.0,0.0,0.0,0.0,0.0,3.8565,4.0155,4.2692,4.2895,4.2354,4.1204,4.0121,3.9174,0.0,0.0,0.0,0.0,0.0,0.0,0.0,0.0,0.0,0.0,0.0,0.0,0.0,0.0,0.0,0.0,0.0,0.0,0.0,0.0,0.0,0.0,0.0,0.0,0.0,0.0,0.0,0.0,0.0,0.0,0.0,0.0,0.0,0.0,0.0,5.4032,5.55,5.7923,5.9061,5.9722,6.097,6.1594,6.1998,6.2658,6.2952,6.3246,6.3906,6.4347,6.409,6.2071,6.1117,0.0,0.0,0.0,5.8748,6.0585,0.0,0.0,0.0,0.0,0.0,0.0,0.0,0.0,0.0,0.0,0.0,0.0,0.0,0.0,0.0,0.0,0.0,7.7053,7.6553,7.6207,7.6015,7.6015,7.6015,7.6015,7.6207,7.6284,7.6284,7.713,7.763,7.7861,7.8477,7.9246,8.0092,8.0092,0.0,0.0,8.1093,8.1093,8.1093,8.1093,8.1093,8.1131,8.1285,8.1362,8.1477,0.0,0.0,0.0,0.0,0.0,0.0,0.0,3.8667,4.1305,4.4925,4.479,4.4316,4.4181,4.2286,4.0696,0.0,0.0,0.0,0.0,0.0,0.0,0.0,0.0,0.0,0.0,0.0,0.0,0.0,0.0,0.0,0.0,0.0,0.0,0.0,0.0,0.0,0.0,0.0,0.0,0.0,0.0,0.0,0.0,0.0,0.0,0.0,0.0,0.0,0.0,0.0,0.0,5.3849,5.6271,5.8547,6.0309,6.0456,0.0,0.0,6.2805,6.3392,6.398,6.4053,6.5191,6.5448,6.2328,0.0,0.0,5.9157,5.8464,5.884,6.0942,0.0,0.0,0.0,0.0,0.0,0.0,0.0,0.0,0.0,0.0,0.0,0.0,0.0,0.0,0.0,0.0,0.0,7.6245,7.6784,7.6823,7.6015,7.6015,7.6015,7.6015,7.6784,7.7169,7.7169,7.7977,7.8784,7.9592,7.9669,8.0169,8.0977,8.0977,0.0,0.0,8.1093,8.1093,8.1093,8.1093,8.1093,8.1208,8.19,8.217,8.2324,0.0,0.0,0.0,0.0,0.0,0.0,3.7077,3.8971,4.161,4.5805,4.6109,4.5906,4.5906,4.4316,4.2388,4.0257,0.0,0.0,0.0,0.0,0.0,0.0,0.0,0.0,0.0,0.0,0.0,0.0,0.0,0.0,0.0,0.0,0.0,0.0,0.0,0.0,0.0,0.0,0.0,0.0,0.0,0.0,0.0,0.0,0.0,0.0,0.0,0.0,0.0,0.0,0.0,0.0,5.4913,5.7005,0.0,0.0,6.119,6.2291,6.3319,6.3833,6.431,6.5301,6.5668,6.5191,6.2842,0.0,0.0,5.9403,5.885,5.9101,6.0724,0.0,0.0,0.0,0.0,0.0,0.0,0.0,0.0,0.0,0.0,0.0,0.0,0.0,0.0,0.0,0.0,0.0,7.7515,7.7361,7.6899,7.6015,7.6015,7.6245,7.6784,7.713,7.7553,7.8015,7.8861,7.9477,7.9823,8.0323,8.0785,8.1093,8.1093,0.0,0.0,8.1093,8.1093,8.1131,8.1631,8.1823,8.19,8.2747,8.3093,8.3208,0.0,0.0,0.0,0.0,0.0,3.4438,3.7449,3.9343,4.188,4.594,4.6481,4.6481,4.6481,4.4925,4.3132,4.1238,4.046,0.0,0.0,0.0,0.0,0.0,0.0,0.0,0.0,0.0,0.0,0.0,0.0,0.0,0.0,0.0,0.0,0.0,0.0,0.0,0.0,0.0,0.0,0.0,0.0,0.0,0.0,0.0,0.0,0.0,0.0,0.0,0.0,0.0,0.0,0.0,0.0,0.0,0.0,0.0,6.097,6.2254,6.3686,6.4457,6.5081,6.6219,6.6072,6.5154,0.0,0.0,0.0,5.966,5.9298,5.9557,6.0618,0.0,0.0,0.0,0.0,0.0,0.0,0.0,0.0,0.0,0.0,0.0,0.0,0.0,0.0,0.0,0.0,0.0,7.8861,7.8092,7.7361,7.6746,7.6746,7.7015,7.763,7.79,7.8323,7.89,7.9785,8.0169,8.0208,8.0823,8.1093,8.1093,0.0,0.0,0.0,8.1362,8.1439,8.1554,8.2362,8.267,8.2785,8.367,8.3978,8.4093,0.0,0.0,0.0,0.0,0.0,0.0,3.7449,3.9783,4.2286,4.5331,4.5703,4.5703,4.5703,4.3673,4.2591,4.3301,4.1339,0.0,0.0,0.0,0.0,0.0,0.0,0.0,0.0,0.0,4.4068,4.5494,4.6935,4.7227,0.0,0.0,0.0,0.0,0.0,0.0,0.0,0.0,0.0,0.0,0.0,0.0,0.0,0.0,0.0,0.0,0.0,0.0,0.0,0.0,0.0,0.0,0.0,0.0,0.0,0.0,6.0933,6.2989,6.387,6.5264,6.6476,6.6512,6.6476,6.5852,0.0,0.0,0.0,5.9811,5.9792,6.0217,6.0734,6.1512,6.2627,0.0,0.0,0.0,0.0,0.0,0.0,0.0,0.0,0.0,0.0,0.0,0.0,0.0,0.0,0.0,7.9785,7.8977,7.8477,7.8477,7.8477,7.8477,7.8477,7.9323,7.9785,7.9823,8.0669,8.1093,8.1093,8.1093,8.1093,0.0,0.0,0.0,0.0,8.1939,8.2285,8.2362,8.3247,8.3593,8.367,8.4555,8.4901,8.5016,0.0,0.0,0.0,0.0,0.0,0.0,0.0,3.7821,3.9851,4.232,4.3064,4.3775,4.4823,4.3335,4.2591,4.3369,4.1847,0.0,0.0,0.0,0.0,0.0,0.0,0.0,0.0,4.4451,4.5637,4.697,4.7992,4.8769,4.9428,4.9541,0.0,0.0,0.0,0.0,0.0,0.0,0.0,0.0,0.0,0.0,0.0,0.0,0.0,0.0,0.0,0.0,0.0,0.0,0.0,0.0,0.0,0.0,0.0,5.6271,0.0,6.0639,6.1998,6.3172,6.398,6.398,6.3576,6.2805,6.1484,0.0,0.0,0.0,0.0,6.0622,6.0757,6.1012,6.2127,6.5013,0.0,0.0,0.0,0.0,0.0,0.0,0.0,0.0,0.0,0.0,0.0,0.0,0.0,0.0,8.1477,8.0746,7.9708,7.8515,7.8477,7.8784,7.9361,7.9669,8.0092,8.0708,8.0977,8.1093,8.1093,8.1093,0.0,0.0,0.0,0.0,0.0,8.217,8.2631,8.3285,8.4132,8.4478,8.4593,8.544,8.5709,8.5747,0.0,0.0,0.0,0.0,0.0,0.0,0.0,3.6907,3.8497,4.0155,4.1001,4.2049,4.3538,4.2354,4.2117,4.3707,4.2489,0.0,0.0,0.0,0.0,0.0,0.0,0.0,4.3403,4.435,4.5637,4.7272,4.8346,4.9364,5.0399,5.0464,5.0178,4.9554,0.0,0.0,0.0,0.0,0.0,0.0,0.0,0.0,0.0,0.0,0.0,0.0,0.0,0.0,0.0,0.0,0.0,0.0,0.0,0.0,0.0,0.0,5.6418,5.8327,0.0,6.1961,6.2805,6.2805,6.2218,0.0,0.0,0.0,0.0,0.0,0.0,0.0,0.0,6.094,6.2089,6.4512,6.5743,0.0,0.0,0.0,0.0,0.0,0.0,0.0,0.0,0.0,0.0,0.0,0.0,0.0,8.2747,8.2324,8.1554,8.0439,7.9823,7.9746,8.0285,8.0285,8.0554,8.1093,8.1093,8.1093,8.1093,8.1093,0.0,0.0,0.0,0.0,0.0,8.3131,8.3593,8.417,8.5016,8.5363,8.5401,8.594,8.6094,8.6094,0.0,0.0,0.0,0.0,0.0,0.0,0.0,3.6874,3.8091,3.8836,3.958,4.0561,4.1982,4.0899,4.1238,4.4147,0.0,0.0,0.0,0.0,0.0,0.0,0.0,0.0,4.3301,4.3504,4.4579,4.6707,4.8287,4.9353,4.9866,5.1323,5.1169,4.9664,4.9627,4.8673,0.0,0.0,0.0,0.0,0.0,0.0,0.0,0.0,0.0,0.0,0.0,0.0,0.0,0.0,0.0,0.0,0.0,0.0,0.0,0.0,0.0,0.0,0.0,6.119,6.2438,6.2401,6.1851,6.1153,0.0,0.0,0.0,0.0,0.0,0.0,0.0,0.0,6.2373,6.332,0.0,0.0,0.0,0.0,0.0,0.0,0.0,0.0,0.0,0.0,0.0,0.0,0.0,0.0,8.3632,8.367,8.367,8.3593,8.2016,8.1208,8.1208,8.1131,8.1093,8.1093,8.1093,8.1093,8.1093,8.117,0.0,0.0,0.0,0.0,0.0,8.4555,8.4939,8.5055,8.5824,8.6094,8.6094,8.6094,8.6094,8.6094,0.0,0.0,0.0,0.0,0.0,0.0,0.0,0.0,0.0,0.0,3.8802,3.9614,4.0493,4.029,4.0832,0.0,0.0,0.0,0.0,0.0,0.0,0.0,0.0,0.0,4.2523,4.4282,4.593,4.7503,4.9573,5.0909,5.1535,5.1871,5.1463,5.0472,4.9848,4.8673,0.0,0.0,0.0,0.0,0.0,0.0,0.0,0.0,0.0,0.0,5.1206,5.183,0.0,0.0,0.0,0.0,0.0,0.0,0.0,0.0,5.4069,5.484,5.5611,0.0,5.8988,5.8364,5.8547,5.8804,0.0,0.0,0.0,0.0,0.0,0.0,0.0,0.0,0.0,0.0,0.0,0.0,0.0,0.0,0.0,0.0,0.0,0.0,0.0,0.0,0.0,0.0,0.0,8.4401,8.4593,8.4593,8.4286,8.3593,8.2554,8.2016,8.2016,8.14,8.1093,8.1093,8.1093,8.1093,8.1131,8.1747,0.0,0.0,0.0,0.0,8.4593,8.4824,8.5247,8.5863,8.6017,8.6094,8.6094,8.6094,8.6094,8.6094,0.0,0.0,0.0,0.0,0.0,0.0,0.0,0.0,0.0,0.0,0.0,3.914,3.9546,3.9884,0.0,0.0,0.0,0.0,0.0,0.0,0.0,0.0,0.0,4.1204,4.2286,4.3842,4.5691,4.7835,4.9679,5.1087,5.2112,5.2419,5.1903,5.0729,4.915,4.7755,0.0,0.0,0.0,0.0,0.0,0.0,0.0,0.0,0.0,0.0,5.1536,5.2234,0.0,5.3078,5.3445,5.3702,0.0,0.0,0.0,0.0,5.3518,5.3849,5.3849,5.5611,5.7336,5.6932,5.7152,5.7446,5.7446,0.0,0.0,0.0,0.0,0.0,0.0,0.0,0.0,0.0,0.0,0.0,0.0,0.0,0.0,0.0,0.0,0.0,0.0,0.0,0.0,0.0,0.0,8.5055,8.544,8.544,8.5247,8.4747,8.3555,8.2516,8.1747,8.1323,8.1093,8.1093,8.1477,8.1631,8.167,8.2516,8.3093,0.0,0.0,0.0,8.544,8.544,8.5709,8.6094,8.6094,8.6094,8.6094,8.6094,8.6094,8.6094,0.0,0.0,0.0,0.0,0.0,0.0,0.0,0.0,0.0,0.0,0.0,0.0,0.0,0.0,0.0,0.0,0.0,0.0,0.0,0.0,0.0,0.0,4.0798,4.0832,4.2422,4.3098,4.4906,4.7974,4.9433,5.0923,5.2293,5.3076,5.2454,5.0692,4.8489,4.7021,0.0,0.0,0.0,0.0,0.0,0.0,0.0,0.0,0.0,0.0,0.0,0.0,0.0,5.3225,5.3665,5.4106,5.3408,0.0,0.0,0.0,0.0,0.0,5.3518,5.5244,5.6932,5.6675,5.6822,5.6969,0.0,0.0,0.0,0.0,0.0,0.0,0.0,0.0,0.0,0.0,0.0,0.0,0.0,0.0,0.0,0.0,0.0,0.0,0.0,0.0,0.0,0.0,0.0,8.5296,8.6055,8.6094,8.6055,8.594,8.4401,8.2862,8.1285,8.117,8.1093,8.1093,8.19,8.2285,8.2324,8.3324,8.4209,8.4901,0.0,0.0,8.6094,8.6094,8.6094,8.6094,8.6094,8.6094,8.6094,8.6094,8.6094,8.6094,0.0,0.0,0.0,0.0,0.0,0.0,0.0,0.0,0.0,0.0,0.0,0.0,0.0,0.0,0.0,0.0,0.0,0.0,0.0,0.0,0.0,4.1373,4.0527,4.1068,4.32,4.3369,4.5145,4.8716,5.0259,5.1708,5.3135,5.388,5.3004,5.0765,4.9664,4.8746,4.8049,4.9591,0.0,0.0,0.0,0.0,0.0,0.0,0.0,0.0,0.0,0.0,0.0,5.3225,5.3298,5.3371,5.3261,0.0,0.0,0.0,0.0,0.0,5.484,5.6492,5.7483,5.6124,5.6822,5.7813,0.0,0.0,0.0,0.0,0.0,0.0,0.0,0.0,0.0,0.0,0.0,0.0,0.0,0.0,0.0,0.0,0.0,0.0,0.0,0.0,0.0,0.0,0.0,0.0,8.606,8.6094,8.5786,8.5132,8.4132,8.3131,8.2131,8.1439,8.1093,8.1093,8.19,8.2285,8.2362,8.3978,8.4786,8.4939,0.0,8.5978,8.6094,8.6094,8.6094,8.6094,8.6094,8.6094,8.6094,8.6094,8.6094,8.6094,0.0,0.0,0.0,0.0,0.0,0.0,0.0,0.0,0.0,0.0,0.0,0.0,0.0,0.0,0.0,0.0,0.0,0.0,0.0,0.0,4.1779,4.1779,4.1847,4.2354,4.3403,4.4621,4.7043,5.0822,5.2307,5.3806,5.513,5.3756,5.227,5.0729,4.9481,4.8673,4.8416,5.0105,0.0,0.0,0.0,0.0,0.0,0.0,0.0,0.0,0.0,0.0,0.0,0.0,5.3482,5.3775,5.3335,0.0,0.0,0.0,0.0,0.0,5.4106,5.5464,5.6712,5.6859,5.8437,0.0,0.0,0.0,0.0,0.0,0.0,0.0,0.0,0.0,0.0,0.0,0.0,0.0,0.0,0.0,0.0,0.0,0.0,0.0,0.0,0.0,0.0,0.0,0.0,0.0,8.6094,8.6094,8.594,8.5555,8.4286,8.3401,8.3016,8.217,8.1747,8.1747,8.2593,8.3247,8.3747,8.4978,8.5555,8.5555,0.0,8.6094,8.6094,8.6094,8.6094,8.6094,8.6094,8.6094,8.6094,8.6094,8.6094,8.6094,0.0,0.0,0.0,0.0,0.0,0.0,0.0,0.0,0.0,0.0,0.0,0.0,0.0,0.0,0.0,0.0,0.0,0.0,0.0,4.1305,4.2049,4.2049,4.3098,4.3842,4.4215,4.6102,4.8882,5.2644,5.4154,5.5548,5.6748,5.3885,5.194,5.0729,4.926,4.871,4.8967,5.0251,5.1022,5.1463,0.0,0.0,0.0,0.0,0.0,0.0,0.0,0.0,0.0,0.0,0.0,0.0,0.0,0.0,0.0,5.3408,5.3225,5.3298,5.3665,5.4803,5.6271,0.0,0.0,0.0,0.0,0.0,0.0,0.0,0.0,0.0,0.0,0.0,0.0,0.0,0.0,0.0,0.0,0.0,0.0,0.0,0.0,0.0,0.0,0.0,0.0,0.0,0.0,0.0,8.6094,8.6094,8.6094,8.6094,8.4478,8.3708,8.3901,8.2824,8.2285,8.2324,8.3401,8.4247,8.4939,8.5747,8.6094,8.6094,8.6094,8.6094,8.6094,8.6094,8.6094,8.6094,8.6094,8.6094,8.6094,8.6094,8.6094,8.6094,0.0,0.0,0.0,0.0,0.0,0.0,0.0,0.0,0.0,0.0,0.0,0.0,0.0,0.0,0.0,0.0,0.0,0.0,0.0,4.0832,4.1271,4.1271,4.3335,4.5128,4.6515,4.7417,4.9641,5.3424,5.4999,5.6152,5.6785,5.5023,5.3004,5.0765,4.9884,4.9921,5.0618,5.0765,5.1683,5.3041,5.3151,0.0,0.0,0.0,0.0,0.0,0.0,0.0,0.0,0.0,0.0,0.0,0.0,0.0,5.3298,5.3225,5.3225,5.3555,5.5023,5.6051,0.0,0.0,0.0,0.0,0.0,0.0,0.0,0.0,0.0,0.0,0.0,0.0,0.0,0.0,0.0,0.0,0.0,0.0,0.0,0.0,0.0,0.0,0.0,0.0,0.0,0.0,0.0,0.0,8.606,8.6094,8.6094,8.6094,8.4478,8.3978,8.4786,8.3131,8.2285,8.2324,8.4016,8.4863,8.4939,8.5747,8.6094,8.6094,8.6094,8.6094,8.6094,8.6094,8.6094,8.6094,8.6094,8.6094,8.6094,8.6094,8.6094,8.6094,0.0,0.0,0.0,0.0,0.0,0.0,0.0,0.0,0.0,0.0,0.0,0.0,0.0,0.0,0.0,0.0,0.0,0.0,0.0,4.0798,4.161,4.2557,4.4316,4.5966,4.7339,4.9089,5.1864,5.5659,5.7174,5.7591,5.6748,5.4142,5.216,5.0729,4.9407,4.9554,5.0802,5.0802,5.172,5.3225,5.3225,5.2711,0.0,0.0,0.0,0.0,0.0,0.0,0.0,0.0,5.2784,5.3225,5.3225,5.3225,5.3225,5.3225,5.3225,5.3335,5.3959,5.5794,0.0,0.0,0.0,0.0,0.0,0.0,0.0,0.0,0.0,0.0,0.0,0.0,0.0,0.0,0.0,0.0,0.0,0.0,0.0,0.0,0.0,0.0,0.0,0.0,0.0,0.0,0.0,0.0,0.0,8.5846,8.5863,8.5363,8.5209,8.4824,8.4093,8.4478,8.4401,8.3939,8.4593,8.517,8.567,8.5978,8.6094,8.6094,8.6094,8.6094,8.6094,8.6094,8.6094,8.6094,8.6094,8.6094,8.6094,8.6094,8.6094,8.6094,0.0,0.0,0.0,0.0,0.0,0.0,0.0,0.0,0.0,0.0,0.0,0.0,0.0,0.0,0.0,0.0,0.0,0.0,4.0054,4.0561,4.1407,4.2658,4.4606,4.6165,4.7346,5.0115,5.3066,5.624,5.7946,5.7997,5.6345,5.3665,5.194,5.1132,4.9701,4.9884,5.1169,5.0912,5.172,5.3188,5.2931,5.2637,0.0,0.0,0.0,0.0,0.0,0.0,0.0,0.0,5.238,5.2858,5.3115,5.3225,5.3225,5.3225,5.3739,5.4363,5.4363,5.6124,0.0,0.0,0.0,0.0,0.0,0.0,0.0,0.0,0.0,0.0,0.0,0.0,0.0,0.0,0.0,0.0,0.0,0.0,0.0,0.0,0.0,0.0,0.0,0.0,0.0,0.0,0.0,0.0,0.0,8.5551,8.5766,8.5709,8.5709,8.544,8.4786,8.5401,8.5555,8.5286,8.5286,8.5555,8.6094,8.6094,8.6094,8.6094,8.6094,8.6094,8.6094,8.6094,8.6094,8.6094,8.6094,8.6094,8.6094,8.6094,8.6094,8.6094,0.0,0.0,0.0,0.0,0.0,0.0,0.0,0.0,4.0358,4.1102,4.1204,0.0,0.0,0.0,0.0,0.0,0.0,0.0,4.002,4.0087,4.0426,4.117,4.3958,4.584,4.6603,5.0196,5.2906,5.4616,5.6875,5.7152,5.5537,5.3922,5.2747,0.0,0.0,0.0,5.194,5.1132,5.172,5.3115,5.2307,5.2491,5.3115,0.0,0.0,0.0,0.0,0.0,0.0,0.0,5.1977,5.2123,5.2968,5.3225,5.3225,5.3225,5.4913,5.6785,5.6785,5.7373,0.0,0.0,0.0,0.0,0.0,0.0,0.0,0.0,0.0,0.0,0.0,0.0,0.0,0.0,0.0,0.0,0.0,0.0,0.0,0.0,0.0,0.0,0.0,0.0,0.0,0.0,0.0,0.0,0.0,8.5121,8.5819,8.7329,8.5786,8.5747,8.7363,8.5747,8.5324,8.6094,8.6094,8.6094,8.6094,8.6094,8.6094,8.6094,8.6094,8.6094,8.6094,8.6094,8.6094,8.6094,8.6094,8.6094,8.6094,8.6094,8.6094,8.6094,0.0,0.0,0.0,0.0,0.0,0.0,0.0,0.0,4.0155,4.0392,4.0426,0.0,0.0,0.0,0.0,0.0,0.0,0.0,3.9309,3.9343,3.9884,4.117,4.3443,4.5297,4.6428,4.955,5.2528,5.5313,5.5962,5.5757,5.4693,5.2527,5.1683,5.194,0.0,0.0,5.1132,5.0912,5.1389,5.2344,5.2087,5.2491,5.3078,0.0,0.0,0.0,0.0,0.0,0.0,0.0,0.0,0.0,5.2968,5.3225,5.3225,5.3225,5.3702,5.4289,5.4289,0.0,0.0,0.0,0.0,0.0,0.0,0.0,0.0,0.0,0.0,0.0,0.0,0.0,0.0,0.0,0.0,0.0,0.0,0.0,0.0,0.0,0.0,0.0,0.0,0.0,0.0,0.0,0.0,0.0,0.0,8.5182,8.5927,8.5781,8.6959,8.7209,8.6478,8.6594,8.6478,8.6094,8.6094,8.6094,8.6094,8.6094,8.6094,8.6094,8.6094,8.6094,8.6094,8.6094,8.6094,8.6094,8.6094,8.6094,8.6094,8.6094,8.6094,8.6094,0.0,0.0,0.0,0.0,0.0,0.0,3.9377,3.9783,4.0087,4.0087,3.9817,3.9749,0.0,0.0,0.0,4.0054,3.9411,3.9106,3.9411,3.914,3.9648,4.1136,4.3192,4.5364,4.7643,5.0034,5.1903,5.3225,5.3849,5.3922,5.3408,5.227,0.0,5.2454,0.0,5.1867,5.1242,5.0949,5.1242,5.1977,5.1646,5.2013,5.2601,0.0,0.0,0.0,0.0,0.0,0.0,0.0,0.0,0.0,5.2968,5.3225,5.3408,5.4363,5.5317,5.6271,5.7262,0.0,0.0,0.0,0.0,0.0,0.0,0.0,0.0,0.0,0.0,0.0,0.0,0.0,0.0,0.0,0.0,0.0,0.0,0.0,0.0,0.0,0.0,0.0,0.0,0.0,0.0,0.0,0.0,0.0,0.0,8.4718,8.5603,8.569,8.7042,8.7426,8.6697,8.6799,8.6632,8.6094,8.6094,8.6094,8.6094,8.6094,8.6094,8.6094,8.6094,8.6094,8.6094,8.6094,8.6094,8.6094,8.6094,8.6094,8.6094,8.6094,8.6094,8.6094,0.0,0.0,0.0,0.0,0.0,0.0,3.9986,4.0087,4.0087,4.0087,3.9445,3.9276,0.0,0.0,0.0,4.002,3.9411,3.9276,3.9952,3.9343,3.9697,4.1239,4.343,4.6205,4.9627,5.0986,5.0949,4.9481,5.1096,5.1867,5.1903,0.0,5.3078,5.3225,0.0,5.3335,5.183,5.1022,5.1096,5.172,5.0986,5.1169,5.1793,5.0986,0.0,0.0,0.0,0.0,0.0,0.0,0.0,0.0,5.2968,5.3225,5.3628,5.5831,5.818,6.0566,0.0,0.0,0.0,0.0,0.0,0.0,0.0,0.0,0.0,0.0,0.0,0.0,0.0,0.0,0.0,0.0,0.0,0.0,0.0,0.0,0.0,0.0,0.0,0.0,0.0,0.0,0.0,0.0,0.0,0.0,0.0,8.4025,8.5153,8.6605,8.6488,8.6795,8.7599,8.6619,8.6094,8.6094,8.6094,8.6094,8.6094,8.6094,8.6094,8.6094,8.6094,8.6094,8.6094,8.6094,8.6094,8.6094,8.6094,8.6094,8.6094,8.6094,8.6094,8.6094,0.0,0.0,0.0,0.0,0.0,0.0,4.0054,4.0087,4.0087,4.0087,3.9445,3.9276,3.9986,3.9411,0.0,4.002,3.9411,3.9073,3.9208,3.9073,3.9861,4.1871,4.563,4.8568,5.0508,4.9591,4.893,4.86,5.0251,5.1059,0.0,0.0,0.0,5.3188,0.0,5.1977,0.0,5.0178,4.9958,5.0068,4.9921,5.0325,5.0986,5.0141,4.9738,0.0,0.0,0.0,0.0,0.0,0.0,0.0,5.2968,5.3225,5.3298,5.3812,5.5684,0.0,0.0,0.0,0.0,0.0,0.0,0.0,0.0,0.0,0.0,0.0,0.0,0.0,0.0,0.0,0.0,0.0,0.0,0.0,0.0,0.0,0.0,0.0,0.0,0.0,0.0,0.0,0.0,0.0,0.0,0.0,8.3328,8.4582,8.584,8.6835,8.7127,8.7447,8.7599,8.6619,8.6094,0.0,8.6094,8.6094,8.6094,8.6094,8.6094,8.6094,8.6094,8.6094,8.6094,8.6094,8.6094,8.6094,8.6094,8.6094,8.6094,8.6094,8.6094,8.6094,0.0,0.0,0.0,0.0,0.0,0.0,0.0,0.0,3.9681,4.002,3.9445,3.9276,3.9986,3.9106,0.0,0.0,3.9411,3.914,3.9478,3.9773,4.0977,4.3474,4.6837,4.8726,4.9001,4.8563,4.7755,4.6581,4.7829,4.904,0.0,0.0,0.0,5.3188,0.0,5.1683,0.0,4.9774,4.9334,4.9003,4.9407,4.9848,5.0178,4.9738,4.9334,4.904,4.9444,0.0,0.0,0.0,0.0,0.0,0.0,0.0,5.3445,5.4583,5.5831,0.0,0.0,0.0,0.0,0.0,0.0,0.0,0.0,0.0,0.0,0.0,0.0,0.0,0.0,0.0,0.0,0.0,0.0,0.0,0.0,0.0,0.0,0.0,0.0,0.0,0.0,0.0,0.0,0.0,0.0,8.2553,8.3361,8.4516,8.5695,8.684,8.7033,8.7293,8.7638,8.6619,8.6094,8.6094,8.6094,8.6094,8.6094,8.6094,8.6094,8.6094,8.6094,8.6094,8.6094,8.6094,8.6094,8.6094,8.6094,8.6094,8.6094,8.6094,8.6094,8.6094,0.0,0.0,0.0,0.0,0.0,0.0,0.0,0.0,0.0,3.9986,3.9445,3.9276,3.9986,3.8903,3.8565,0.0,0.0,0.0,3.9851,4.0754,4.2441,4.5224,4.7404,4.8193,4.7497,4.7902,4.7058,4.4929,4.5443,0.0,0.0,0.0,0.0,5.3004,0.0,0.0,0.0,0.0,0.0,0.0,0.0,4.915,4.9187,4.9297,4.893,4.8416,4.926,5.0031,5.0729,5.1683,0.0,0.0,0.0,0.0,5.3592,5.5611,0.0,0.0,0.0,0.0,0.0,0.0,0.0,0.0,0.0,0.0,0.0,0.0,0.0,0.0,0.0,0.0,0.0,0.0,0.0,0.0,0.0,0.0,0.0,0.0,0.0,0.0,0.0,0.0,0.0,0.0,0.0,8.2774,8.3581,8.4389,8.541,8.684,8.6814,8.7003,8.7366,8.6696,8.6247,8.6094,8.6094,8.6094,8.6094,8.6094,8.6094,8.6094,8.6094,8.6094,8.6094,8.6094,8.6094,8.6094,8.6094,8.6094,8.6094,8.6094,8.6094,8.6094,0.0,0.0,0.0,0.0,0.0,0.0,0.0,0.0,0.0,0.0,3.9445,3.9276,3.9986,3.9343,3.8937,3.9106,3.9614,3.9715,3.9174,0.0,0.0,4.6055,4.7554,4.8595,4.915,4.7939,4.6764,4.5736,4.5149,0.0,0.0,0.0,0.0,0.0,0.0,0.0,0.0,0.0,0.0,0.0,0.0,0.0,4.7535,4.8196,4.8416,4.8416,4.926,4.9664,4.9958,5.1463,5.205,0.0,0.0,0.0,0.0,0.0,0.0,0.0,0.0,0.0,0.0,0.0,0.0,0.0,0.0,0.0,0.0,0.0,0.0,0.0,0.0,0.0,0.0,0.0,0.0,0.0,0.0,0.0,0.0,0.0,0.0,0.0,0.0,0.0,0.0,0.0,8.2847,8.3581,8.4389,8.5196,8.6,8.678,8.7394,8.7268,8.649,8.6964,8.6863,8.6094,8.6094,8.6094,8.6094,8.6094,8.6094,8.6094,8.6094,8.6094,8.6094,8.6094,8.6094,8.6094,8.6094,8.6094,8.6094,8.6094,8.6094,8.6094,0.0,0.0,0.0,0.0,0.0,0.0,0.0,0.0,0.0,0.0,0.0,3.9715,4.0054,3.9411,3.9005,3.9005,3.9276,3.9822,4.0527,4.2384,4.4273,4.5984,4.6652,4.7131,4.7462,4.6361,4.5369,4.4562,0.0,0.0,0.0,4.8673,5.0215,0.0,0.0,0.0,0.0,0.0,0.0,0.0,0.0,0.0,4.9114,4.8526,4.915,5.0251,4.9224,4.9187,4.9774,5.0949,5.161,5.2123,5.2968,0.0,0.0,0.0,0.0,0.0,0.0,0.0,0.0,0.0,0.0,0.0,0.0,0.0,0.0,0.0,0.0,0.0,0.0,0.0,0.0,0.0,0.0,0.0,0.0,0.0,0.0,0.0,0.0,0.0,0.0,0.0,0.0,0.0,8.2957,8.3765,8.4572,8.5343,8.6518,8.8017,8.7893,8.7943,8.8309,8.7721,8.6978,8.6094,8.6094,8.6094,8.6094,8.6094,8.6094,8.6094,8.6094,8.6094,8.6094,8.6094,8.6094,8.6094,8.6094,8.6094,8.6094,8.6094,8.6094,8.6094,0.0,0.0,0.0,0.0,0.0,0.0,0.0,0.0,0.0,0.0,0.0,4.0154,4.0303,0.0,0.0,0.0,3.9316,4.0054,4.1582,4.2893,4.4155,4.5517,4.559,4.559,4.559,4.5002,4.4305,0.0,0.0,0.0,4.8306,4.8526,5.0288,0.0,5.172,0.0,0.0,0.0,0.0,0.0,0.0,0.0,5.1096,5.0839,0.0,5.3188,5.0508,0.0,5.0508,5.0508,5.1022,5.1793,5.2417,0.0,0.0,0.0,0.0,0.0,0.0,0.0,0.0,0.0,0.0,0.0,0.0,0.0,0.0,0.0,0.0,0.0,0.0,0.0,0.0,0.0,0.0,0.0,0.0,0.0,0.0,0.0,0.0,0.0,0.0,0.0,0.0,0.0,8.3251,8.4058,8.4866,8.5673,8.6878,8.8463,8.83,8.853,8.9303,8.8256,8.7171,8.6094,8.6324,8.6324,8.6094,8.6094,8.6094,8.6094,8.6094,8.6094,8.6094,8.6094,8.6094,8.6094,8.6094,8.6094,8.6094,8.6094,8.6094,8.6094,0.0,0.0,0.0,0.0,0.0,0.0,0.0,0.0,0.0,0.0,0.0,4.0269,4.0827,4.0839,4.0443,3.9564,4.0094,4.0765,4.1353,4.2258,4.3356,4.471,4.4782,0.0,4.4782,4.4745,4.4305,0.0,0.0,0.0,4.8343,4.915,5.0839,5.3188,5.2307,5.0582,4.8269,0.0,0.0,0.0,0.0,0.0,0.0,0.0,0.0,0.0,0.0,0.0,0.0,5.0398,5.0178,5.0875,0.0,0.0,0.0,0.0,0.0,0.0,0.0,0.0,0.0,0.0,0.0,0.0,0.0,0.0,0.0,0.0,0.0,0.0,0.0,0.0,0.0,0.0,0.0,0.0,0.0,0.0,0.0,0.0,0.0,0.0,0.0,0.0,0.0,0.0,8.4095,8.4903,8.5673,8.6518,8.6922,8.6952,8.8296,8.8594,8.7756,8.8344,8.7786,8.6094,8.694,8.6901,8.6094,8.6094,8.6094,8.6094,8.6094,8.6094,8.6094,8.6094,8.6094,8.6094,8.6094,8.6094,8.6094,8.6094,8.6094,8.6094,0.0,0.0,0.0,0.0,0.0,0.0,0.0,0.0,0.0,0.0,0.0,0.0,0.0,4.0368,4.0055,3.9261,4.0079,4.0937,4.1599,4.2627,4.3651,4.4672,4.4195,4.4158,4.4709,4.4195,0.0,0.0,0.0,4.5149,4.7572,4.7865,4.9297,5.161,5.0802,4.9958,4.9003,4.7131,0.0,0.0,0.0,0.0,0.0,0.0,0.0,0.0,0.0,0.0,0.0,0.0,0.0,0.0,0.0,0.0,0.0,0.0,0.0,0.0,0.0,0.0,0.0,0.0,0.0,0.0,0.0,0.0,0.0,0.0,0.0,0.0,0.0,0.0,0.0,0.0,0.0,0.0,0.0,0.0,0.0,0.0,0.0,0.0,0.0,0.0,0.0,0.0,0.0,0.0,8.5783,8.6554,8.7217,8.7599,8.8159,8.8436,8.8434,8.8614,8.8094,8.694,8.6671,8.6401,8.6094,8.6094,8.6094,8.6094,8.6094,8.6094,8.6094,8.6094,8.6094,8.6094,8.6094,8.6094,8.6094,8.6094,8.6094,8.6094,0.0,0.0,0.0,0.0,0.0,0.0,0.0,0.0,0.0,0.0,0.0,0.0,0.0,0.0,4.0643,3.9881,4.0517,4.1141,4.1599,4.2627,4.3541,4.4268,4.3791,4.3754,4.4305,0.0,0.0,0.0,0.0,0.0,0.0,0.0,4.8306,5.0325,4.8967,0.0,0.0,0.0,0.0,4.7535,0.0,0.0,5.5574,0.0,0.0,0.0,0.0,0.0,0.0,0.0,0.0,0.0,0.0,0.0,0.0,0.0,0.0,0.0,0.0,0.0,0.0,0.0,0.0,0.0,0.0,0.0,0.0,0.0,0.0,0.0,0.0,0.0,0.0,0.0,0.0,0.0,0.0,0.0,0.0,0.0,0.0,0.0,0.0,0.0,0.0,0.0,0.0,0.0,8.6187,8.6701,8.7328,8.8046,8.8309,8.8587,8.8891,8.9304,8.8979,8.7825,8.7248,8.6824,8.6517,8.6247,8.6094,8.6094,8.6094,8.6094,8.6094,8.6094,8.6094,8.6094,8.6094,8.6094,8.6094,8.6094,8.6094,8.6094,0.0,0.0,0.0,0.0,0.0,0.0,0.0,0.0,0.0,0.0,0.0,0.0,0.0,0.0,0.0,4.1535,4.1501,4.1465,4.1502,4.226,4.2957,4.3497,4.3497,4.3497,4.3534,0.0,0.0,0.0,0.0,0.0,0.0,0.0,4.7939,0.0,4.7021,4.7719,5.0692,0.0,0.0,5.0068,0.0,5.6528,5.5354,0.0,0.0,0.0,6.0639,6.0089,0.0,0.0,0.0,0.0,0.0,0.0,0.0,0.0,0.0,0.0,0.0,0.0,0.0,0.0,0.0,0.0,0.0,0.0,0.0,0.0,0.0,0.0,0.0,0.0,0.0,0.0,0.0,0.0,0.0,0.0,0.0,0.0,0.0,0.0,0.0,0.0,0.0,0.0,0.0,8.6187,8.6958,8.6995,8.7328,8.8046,8.8691,8.9048,8.8929,9.0417,9.0325,8.8709,8.8671,8.8209,8.7363,8.6517,8.6094,8.6094,8.6094,8.6094,8.6094,8.6094,8.6094,8.6094,8.6094,8.6094,8.6094,8.6094,8.6094,8.6094,0.0,0.0,0.0,0.0,0.0,4.1677,4.1677,4.1613,4.1591,0.0,0.0,0.0,0.0,0.0,0.0,4.3512,4.3385,4.3251,4.3235,4.325,4.3321,4.3497,4.3497,4.3754,4.4378,0.0,0.0,0.0,0.0,0.0,0.0,0.0,0.0,0.0,4.7095,4.7278,4.8049,4.6874,0.0,0.0,5.3188,5.6235,0.0,0.0,0.0,0.0,0.0,6.4897,0.0,0.0,5.9795,5.5904,0.0,0.0,4.9003,0.0,0.0,0.0,5.2821,0.0,0.0,0.0,0.0,0.0,0.0,0.0,0.0,0.0,0.0,0.0,0.0,0.0,0.0,0.0,0.0,0.0,0.0,0.0,0.0,0.0,0.0,0.0,0.0,0.0,0.0,0.0,8.5894,8.6775,8.6995,8.6995,8.7132,8.7298,8.7985,8.8616,8.9036,8.9387,8.9535,8.9556,8.8325,8.7632,8.7363,8.6517,8.6094,8.6094,8.6094,8.6094,8.6094,8.6094,8.6094,8.6094,8.6094,8.6094,8.6094,8.6094,8.6094,8.6094,0.0,0.0,4.188,4.2625,4.276,4.2861,4.32,4.2909,4.2672,0.0,0.0,0.0,0.0,0.0,0.0,0.0,4.3885,4.3613,4.3483,4.3051,4.3032,4.3497,4.3828,4.4232,4.4709,4.4892,0.0,0.0,0.0,0.0,0.0,0.0,0.0,0.0,0.0,0.0,0.0,0.0,0.0,0.0,5.4656,0.0,0.0,6.4053,6.5815,0.0,0.0,0.0,6.3319,6.5007,6.1814,0.0,0.0,0.0,0.0,0.0,0.0,0.0,5.2858,5.3445,0.0,0.0,0.0,0.0,0.0,0.0,0.0,0.0,0.0,0.0,0.0,0.0,0.0,0.0,0.0,0.0,0.0,0.0,0.0,0.0,0.0,0.0,0.0,0.0,0.0,8.4572,8.5783,8.6664,8.6995,8.6995,8.6995,8.6995,8.7709,8.8388,8.9122,8.9307,8.972,9.0441,8.8748,8.794,8.7902,8.6671,8.6094,8.6094,8.6094,8.6094,8.6094,8.6094,8.6094,8.6094,8.6094,8.6094,8.6094,8.6094,8.6094,8.6094,0.0,0.0,4.2692,4.3538,4.3673,4.3944,4.4688,4.4181,4.3707,0.0,0.0,0.0,0.0,0.0,0.0,0.0,4.3916,4.338,4.3174,4.2384,4.2346,4.3356,4.4233,4.4745,4.4856,4.625,4.6287,0.0,0.0,0.0,0.0,0.0,0.0,0.0,0.0,0.0,0.0,0.0,0.0,4.9407,5.7446,5.9318,0.0,0.0,6.4787,0.0,6.4897,6.4237,6.2768,6.6145,6.387,0.0,0.0,0.0,0.0,0.0,5.1756,5.2747,5.3225,5.3995,5.4987,0.0,0.0,0.0,0.0,0.0,0.0,0.0,0.0,0.0,0.0,0.0,0.0,0.0,0.0,0.0,0.0,0.0,0.0,0.0,0.0,0.0,0.0,8.2847,8.3581,8.4278,8.5159,8.604,8.6958,8.6995,8.6995,8.6995,8.7618,8.8367,8.9122,8.9716,9.0406,9.1171,8.9479,8.8748,8.8748,8.694,8.617,8.6247,8.6132,8.6094,8.6094,8.6094,8.6094,8.6094,8.6094,8.6094,8.6094,8.6094,8.6094,8.6094,4.2726,4.3098,4.3639,4.5026,4.5263,4.55,4.6244,4.5737,4.5466,4.6075,0.0,0.0,0.0,0.0,0.0,0.0,0.0,4.4898,4.4763,4.3328,4.2616,4.2846,4.4017,4.5002,4.5663,4.5957,4.5993,4.5663,0.0,0.0,0.0,0.0,0.0,0.0,0.0,0.0,0.0,0.0,0.0,5.1499,5.3885,0.0,6.108,6.5007,6.6916,6.754,6.8017,6.7467,6.6329,0.0,6.3613,6.141,0.0,0.0,0.0,0.0,0.0,0.0,0.0,0.0,0.0,0.0,0.0,0.0,0.0,0.0,0.0,0.0,0.0,0.0,0.0,0.0,0.0,0.0,0.0,0.0,0.0,0.0,0.0,0.0,0.0,0.0,0.0,8.2333,8.248,8.2663,8.4022,8.549,8.6921,8.6995,8.6995,8.6995,8.7132,8.7799,8.9122,8.9187,8.9939,9.1171,8.9479,8.9017,8.9594,8.7209,8.6478,8.7094,8.6401,8.6094,8.6094,8.6094,8.6094,8.6094,8.6094,8.6094,8.6094,8.6094,8.6094,8.6094,4.32,4.3741,4.4451,4.5974,4.6244,4.6616,4.7733,4.7293,4.6955,0.0,0.0,0.0,0.0,0.0,0.0,0.0,0.0,0.0,4.4647,4.3218,4.2483,4.2691,4.3812,4.4762,4.551,4.5872,4.5988,4.5883,0.0,0.0,0.0,0.0,0.0,0.0,0.0,0.0,0.0,0.0,4.8526,5.1169,5.5611,0.0,6.3759,6.6623,6.8201,6.8862,6.8458,6.8311,6.8054,6.6439,6.4787,0.0,0.0,6.0162,5.9098,0.0,5.6124,5.7483,0.0,0.0,0.0,5.5684,0.0,0.0,0.0,0.0,0.0,0.0,0.0,0.0,0.0,0.0,0.0,0.0,0.0,0.0,0.0,0.0,0.0,0.0,0.0,0.0,0.0,8.0975,8.1489,8.27,8.3911,8.5306,8.6921,8.6995,8.6995,8.6995,8.6995,8.7709,8.9122,8.9122,8.9801,9.1171,8.9479,8.9133,8.9825,8.7248,8.6594,8.7363,8.6478,8.6094,8.6094,8.6094,8.6094,8.6094,8.6094,8.6094,8.6094,8.6094,8.6094,8.6094,4.3234,4.4045,4.4993,4.6346,4.6718,4.7259,4.8578,4.8409,4.8139,0.0,0.0,0.0,0.0,0.0,0.0,0.0,0.0,0.0,0.0,4.3631,4.3069,4.3406,4.3961,4.4733,4.5725,4.605,4.6041,4.5663,0.0,0.0,0.0,0.0,0.0,0.0,0.0,0.0,0.0,0.0,0.0,5.1793,0.0,6.2144,6.4016,6.7063,6.8201,6.8201,6.8164,6.8568,6.8972,6.8017,0.0,6.4567,6.4567,6.3319,0.0,0.0,0.0,0.0,0.0,0.0,0.0,0.0,0.0,5.7519,0.0,0.0,0.0,0.0,0.0,0.0,0.0,0.0,0.0,0.0,0.0,0.0,0.0,0.0,0.0,0.0,0.0,0.0,0.0,7.9029,8.0131,8.3177,8.3287,8.4242,8.6664,8.6775,8.6775,8.6775,8.6921,8.7709,8.9122,8.9122,8.9801,9.1171,8.9479,8.9133,8.9825,8.7248,8.6594,8.7363,8.6478,8.6209,8.6324,8.617,8.6209,8.6324,8.617,8.6094,8.6094,8.6094,8.6094,8.6094,4.3132,4.4045,4.4857,4.5669,4.638,4.709,4.7902,4.8511,4.8883,0.0,0.0,0.0,0.0,0.0,0.0,0.0,0.0,0.0,4.7573,0.0,4.603,4.6083,4.5444,4.596,4.7886,4.6794,4.5751,4.4856,0.0,0.0,0.0,0.0,0.0,0.0,4.7902,0.0,0.0,0.0,5.4179,0.0,5.8841,5.8804,0.0,6.3686,6.5705,6.6072,6.8825,6.9889,6.9743,0.0,6.7026,6.5742,0.0,6.4237,0.0,0.0,0.0,0.0,0.0,0.0,0.0,0.0,5.8877,0.0,0.0,0.0,0.0,0.0,0.0,0.0,0.0,0.0,0.0,0.0,0.0,0.0,0.0,0.0,0.0,0.0,0.0,0.0,0.0,0.0,7.7671,8.303,8.0131,8.0424,8.5637,8.593,8.593,8.593,8.6628,8.7709,8.9122,8.9122,8.9801,9.1171,8.9479,8.9133,8.9825,8.7248,8.6594,8.7363,8.6478,8.6555,8.7171,8.644,8.6555,8.7171,8.6401,8.6094,8.6094,8.6094,8.6094,8.6094,4.3132,4.3673,4.4282,4.55,4.5974,4.6549,4.7733,4.8883,4.9627,0.0,0.0,0.0,0.0,0.0,0.0,0.0,0.0,5.0362,0.0,0.0,4.6884,4.589,4.556,4.5725,4.6468,4.5875,4.5243,4.4709,4.4232,0.0,0.0,0.0,0.0,0.0,4.9884,0.0,5.4142,0.0,0.0,0.0,0.0,0.0,0.0,6.4714,6.7687,6.8311,7.0146,7.0807,7.077,0.0,6.9009,0.0,0.0,0.0,0.0,0.0,0.0,0.0,0.0,0.0,0.0,0.0,0.0,0.0,0.0,0.0,5.5537,0.0,0.0,0.0,0.0,0.0,0.0,0.0,0.0,0.0,0.0,0.0,0.0,0.0,0.0,0.0,0.0,0.0,0.0,0.0,0.0,7.98,8.549,8.5343,8.5086,8.5086,8.5416,8.6084,8.7099,8.7984,8.8673,8.9151,8.9299,8.9325,8.9133,8.7555,8.7055,8.7363,8.6478,8.6324,8.6632,8.6247,8.6594,8.7325,8.644,8.6094,8.6094,8.6094,8.644,8.6863,4.2861,4.3267,4.3775,4.4891,4.5432,4.621,4.7699,4.8984,0.0,0.0,0.0,0.0,5.2739,5.2334,0.0,0.0,0.0,5.287,0.0,0.0,4.9135,4.8575,4.6777,0.0,0.0,4.598,4.5075,4.4455,4.4014,0.0,0.0,0.0,0.0,0.0,0.0,5.3849,5.7813,0.0,0.0,5.7483,5.8657,5.9795,6.1337,6.6586,6.9339,7.055,7.1358,7.1651,7.1651,7.1798,7.0146,0.0,7.0513,0.0,0.0,0.0,0.0,0.0,6.1594,0.0,0.0,0.0,0.0,0.0,0.0,0.0,0.0,0.0,0.0,0.0,0.0,0.0,0.0,0.0,0.0,0.0,0.0,0.0,0.0,0.0,0.0,0.0,0.0,0.0,0.0,0.0,0.0,0.0,8.5123,8.4719,8.4278,8.4278,8.4625,8.5201,8.5882,8.7146,8.7901,8.7999,8.9033,8.9133,8.8325,8.7671,8.7286,8.7017,8.6632,8.6478,8.6478,8.6478,8.6978,8.7632,8.6517,8.6401,8.6786,8.6555,8.6863,8.744,4.2185,4.2929,4.3436,4.3504,4.4722,4.621,4.7699,4.8545,0.0,0.0,0.0,0.0,0.0,0.0,0.0,0.0,0.0,5.8863,5.6664,0.0,5.4262,0.0,0.0,4.8362,0.0,4.8242,4.5543,4.3808,4.4382,0.0,0.0,0.0,0.0,0.0,0.0,5.3665,5.4803,5.8621,6.2034,6.4971,6.5007,6.7357,7.0624,0.0,6.9192,7.1394,7.2165,0.0,0.0,7.0697,6.9596,0.0,0.0,0.0,0.0,0.0,0.0,0.0,0.0,0.0,0.0,5.9428,0.0,0.0,0.0,0.0,5.7409,0.0,0.0,0.0,0.0,0.0,0.0,0.0,0.0,0.0,0.0,0.0,0.0,0.0,0.0,0.0,0.0,0.0,0.0,0.0,0.0,0.0,8.4205,8.3875,8.3471,8.3471,8.4793,8.5863,8.6543,8.7247,8.7961,8.8671,8.8709,8.8286,8.744,8.7401,8.694,8.6209,8.7017,8.7363,8.7363,8.7363,8.7863,8.8479,8.6786,8.7132,8.8517,8.7671,8.7363,8.7517,4.2252,4.2895,4.3572,4.4079,4.4621,4.5466,4.6955,4.8612,0.0,0.0,0.0,0.0,0.0,0.0,5.7611,0.0,0.0,5.8863,5.7611,5.5446,0.0,0.0,0.0,4.9171,0.0,0.0,4.6972,4.5317,4.595,0.0,0.0,0.0,0.0,0.0,0.0,5.5133,0.0,0.0,0.0,0.0,0.0,6.7871,7.055,0.0,0.0,7.2129,7.2422,7.2496,0.0,7.1872,7.0807,6.9816,7.0624,6.9963,6.9082,6.9853,7.0073,0.0,0.0,0.0,6.9229,6.4127,0.0,0.0,0.0,0.0,0.0,0.0,0.0,0.0,0.0,0.0,0.0,0.0,0.0,0.0,0.0,0.0,0.0,0.0,0.0,0.0,0.0,0.0,0.0,0.0,0.0,0.0,0.0,8.303,8.2627,8.2627,8.352,8.4124,8.4366,8.5537,8.6501,8.7197,8.8268,8.8346,8.7401,8.7979,8.7478,8.617,8.7017,8.7055,8.6632,8.7786,8.844,8.8556,8.7401,8.8017,8.9325,8.7902,8.8094,8.9248,4.347,4.3673,4.391,4.4113,4.4823,4.5771,0.0,0.0,0.0,0.0,5.4194,0.0,5.8693,0.0,5.866,0.0,6.0317,5.9776,5.8727,5.7103,0.0,5.7239,5.3403,0.0,0.0,0.0,4.9412,4.7793,4.7947,4.8012,0.0,0.0,0.0,0.0,0.0,0.0,0.0,0.0,6.4127,0.0,0.0,6.9559,0.0,0.0,7.2386,7.1725,0.0,7.2496,7.2532,7.2826,7.2239,7.1615,7.2936,7.2312,7.1248,7.2275,7.2202,7.1688,7.1101,7.1725,0.0,6.721,6.5742,0.0,5.9832,0.0,0.0,0.0,0.0,0.0,0.0,0.0,0.0,0.0,0.0,0.0,0.0,0.0,0.0,0.0,0.0,0.0,0.0,0.0,0.0,0.0,0.0,0.0,0.0,0.0,8.2855,8.256,8.3433,8.3772,8.3543,8.495,8.5866,8.6417,8.8035,8.8346,8.744,8.8286,8.7748,8.617,8.7363,8.7171,8.6247,8.8286,8.894,8.8632,8.8055,8.8902,9.0171,8.8479,8.8902,9.0556,0.0,0.0,4.4451,0.0,4.5399,0.0,0.0,0.0,5.2638,0.0,5.5581,5.7509,5.9032,5.981,6.052,6.1298,6.2009,0.0,6.0317,5.9471,0.0,0.0,5.734,5.6427,5.7915,0.0,0.0,0.0,5.009,4.9625,0.0,0.0,0.0,0.0,5.0508,0.0,5.9501,6.1814,6.6109,7.1431,7.2239,7.2496,7.2532,7.3413,7.2275,7.044,7.2055,7.2606,7.2753,7.3487,7.3744,7.3891,7.4661,7.4955,7.4955,7.4955,7.4992,7.4698,7.3156,7.2753,7.1982,6.8825,0.0,0.0,0.0,0.0,6.409,0.0,0.0,0.0,0.0,0.0,0.0,0.0,0.0,0.0,0.0,0.0,0.0,0.0,0.0,0.0,0.0,0.0,0.0,0.0,0.0,0.0,0.0,0.0,8.3765,8.3169,8.4382,8.4785,8.4179,8.5437,8.6197,8.6497,8.7921,8.8209,8.7555,8.8286,8.7748,8.6324,8.7979,8.7748,8.644,8.894,8.9479,8.8748,8.8748,8.971,9.0941,8.9402,8.9863,9.1402,4.5771,4.5974,4.6346,0.0,4.7259,4.7868,0.0,0.0,0.0,0.0,5.7408,5.9235,6.1298,6.1704,6.1873,6.211,6.2279,0.0,0.0,0.0,0.0,6.1738,5.7881,5.6664,5.8693,5.5159,0.0,5.1848,0.0,0.0,4.9699,0.0,0.0,0.0,0.0,0.0,6.108,6.2291,6.6439,7.2275,7.3083,7.2679,0.0,0.0,7.345,7.2092,7.3707,7.4294,7.4331,7.4515,7.4588,7.4625,7.4845,7.5322,7.5799,7.5799,7.624,7.6607,7.6203,7.6093,7.5579,7.356,7.1725,6.9743,0.0,0.0,0.0,0.0,0.0,0.0,0.0,0.0,0.0,0.0,0.0,0.0,0.0,0.0,0.0,0.0,0.0,0.0,0.0,0.0,0.0,0.0,0.0,0.0,0.0,0.0,0.0,8.236,8.372,8.4372,8.4179,8.4995,8.6279,8.8111,8.7351,8.781,8.921,8.8209,8.7825,8.8055,8.8517,8.844,8.8171,9.0094,9.0364,8.9594,8.9594,8.9863,9.0248,9.0479,9.1248,9.2287,4.7158,0.0,0.0,4.797,0.0,0.0,5.0439,0.0,0.0,5.6461,5.8355,0.0,6.1231,6.1975,6.2381,6.2381,6.2381,0.0,6.1434,0.0,0.0,6.1366,5.9607,5.9201,6.0452,5.7741,0.0,5.4205,0.0,0.0,5.0777,0.0,0.0,0.0,0.0,5.4987,0.0,6.3943,6.8017,7.2092,7.323,0.0,0.0,7.4771,7.4882,7.4258,7.5506,7.5506,7.4955,7.5322,7.5432,7.5506,7.5873,7.6276,7.6644,7.6644,7.6974,7.7304,7.7304,7.7304,7.7084,7.6203,7.4955,7.334,7.0991,7.0477,7.0367,0.0,0.0,0.0,0.0,0.0,0.0,0.0,0.0,0.0,0.0,0.0,0.0,0.0,0.0,0.0,0.0,0.0,0.0,0.0,0.0,0.0,0.0,0.0,0.0,8.3499,8.3622,8.3947,8.4605,8.4572,8.5817,8.827,8.7696,8.8268,8.9863,8.8556,8.8248,8.8709,8.8709,8.8709,8.8825,9.0517,9.071,8.994,9.0325,9.0479,9.0517,9.1018,9.1518,9.2095,0.0,0.0,0.0,0.0,0.0,0.0,0.0,5.3653,0.0,5.6968,0.0,6.0385,6.0385,6.1603,6.2381,6.2381,0.0,6.1806,6.0486,6.1637,6.1806,6.0452,6.167,6.2448,6.2516,6.0887,0.0,0.0,0.0,0.0,0.0,0.0,0.0,0.0,0.0,0.0,0.0,6.6145,7.011,0.0,7.3413,7.4441,7.5175,7.5946,7.6276,7.635,7.7084,7.6423,7.5322,7.6019,7.6276,7.6387,7.7084,7.7304,7.7304,7.7304,7.7304,7.7304,7.7304,7.7304,7.7304,7.7304,7.7304,7.6607,7.378,7.312,7.3156,7.3266,7.1651,7.1798,0.0,0.0,0.0,0.0,0.0,0.0,0.0,0.0,0.0,0.0,0.0,0.0,0.0,0.0,0.0,0.0,0.0,0.0,0.0,0.0,0.0,8.5042,8.3728,0.0,8.4872,0.0,8.5155,8.7565,8.8116,8.8909,8.9863,8.9056,8.8825,8.9017,8.8902,8.8902,8.9133,9.0594,9.0748,9.0171,9.0902,9.121,9.121,9.1325,9.1364,9.1595,0.0,0.0,0.0,0.0,0.0,5.4059,5.575,5.7171,5.8389,5.9404,6.096,6.1975,6.1975,6.2245,6.2381,6.2381,6.2381,0.0,0.0,0.0,0.0,6.2009,6.2245,6.2685,6.3294,6.1215,5.9016,0.0,0.0,0.0,0.0,0.0,0.0,0.0,0.0,0.0,6.3319,6.7944,0.0,7.4368,7.5322,7.5763,7.5983,7.679,7.7121,7.7121,7.7268,7.7157,7.6937,7.7047,7.7121,7.7121,7.7268,7.7304,7.7304,7.7304,7.7304,7.7304,7.7304,7.7304,7.7304,7.7304,7.7304,7.7157,7.6607,7.646,7.668,7.7378,7.7194,7.6607,7.5726,0.0,0.0,0.0,0.0,0.0,0.0,0.0,0.0,0.0,0.0,0.0,0.0,0.0,0.0,0.0,0.0,0.0,0.0,0.0,0.0,0.0,8.3372,0.0,0.0,0.0,8.4985,8.6608,8.677,8.7926,8.9863,8.9056,8.944,9.071,9.0017,9.0094,9.0787,9.1095,9.1133,9.0979,9.1133,9.121,9.1287,9.2018,9.2287,9.2402,0.0,0.0,0.0,0.0,0.0,0.0,0.0,5.9539,0.0,6.0148,6.0757,6.1197,6.1197,6.1907,6.2381,6.2381,6.2381,6.255,6.2956,6.2956,6.3159,6.3531,6.3531,0.0,6.4072,6.299,6.0588,5.6799,0.0,0.0,0.0,0.0,0.0,0.0,0.0,5.9134,0.0,0.0,0.0,7.4308,7.5014,7.5907,7.679,7.7157,7.7304,7.7304,7.7304,7.7304,7.7304,7.7304,7.7304,7.7304,7.7304,7.7304,7.7304,7.7304,7.7304,7.7304,7.7304,7.7304,7.7304,7.7304,7.7671,7.7965,7.7965,7.8295,7.8736,7.914,7.9213,7.8332,7.5432,7.2275,0.0,0.0,0.0,0.0,0.0,0.0,0.0,0.0,0.0,0.0,0.0,0.0,0.0,0.0,0.0,0.0,0.0,0.0,0.0,0.0,0.0,0.0,0.0,0.0,0.0,8.7107,8.7427,8.8651,9.0556,8.971,9.0017,9.1171,9.0287,9.0402,9.121,9.121,9.121,9.121,9.121,9.121,9.1248,9.1672,9.2095,9.2672,0.0,5.3145,0.0,0.0,5.6427,0.0,5.9066,6.1163,6.2144,6.0757,6.0588,6.0655,6.0825,6.1907,6.2685,6.2854,6.2854,6.3091,6.37,6.3734,6.4005,6.458,6.4613,6.4613,6.4613,6.4749,6.2415,0.0,0.0,0.0,0.0,0.0,0.0,0.0,0.0,0.0,0.0,0.0,7.1755,7.4492,7.4978,7.5907,7.7047,7.7047,7.6974,7.6827,7.6827,7.6937,7.7047,7.6864,7.6937,7.7047,7.7047,7.7047,7.7047,7.7047,7.7194,7.7304,7.7304,7.7304,7.7378,7.7561,7.8112,7.8589,7.8589,7.9213,7.98,7.98,8.0057,7.9176,7.5579,7.367,0.0,0.0,0.0,0.0,0.0,0.0,0.0,0.0,0.0,0.0,0.0,0.0,0.0,0.0,0.0,0.0,0.0,0.0,0.0,0.0,0.0,8.1326,8.3138,0.0,8.44,0.0,8.8079,8.9335,9.0902,9.0402,9.0556,9.1171,9.0479,9.0556,9.121,9.121,9.121,9.121,9.121,9.121,9.121,9.1402,9.2018,9.2979,0.0,0.0,0.0,0.0,0.0,0.0,5.9979,6.1941,6.3125,6.2279,6.2178,6.2448,6.3125,6.3328,6.3666,6.4343,6.4377,6.441,6.4478,6.4512,6.4546,6.4613,6.4613,6.4613,6.4613,6.5256,6.3666,0.0,0.0,0.0,0.0,0.0,0.0,0.0,0.0,0.0,0.0,7.0346,7.3207,7.7011,7.6997,7.6729,7.6203,7.6203,7.5763,7.5139,7.5139,7.5616,7.6093,7.5395,7.5616,7.6203,7.6203,7.6203,7.6203,7.6203,7.6754,7.7304,7.7304,7.7304,7.7524,7.8295,7.8552,7.8589,7.8589,7.9213,7.98,7.98,8.0938,8.0534,7.5763,7.8295,7.8405,0.0,0.0,0.0,0.0,0.0,0.0,0.0,0.0,0.0,0.0,0.0,0.0,0.0,0.0,0.0,0.0,0.0,0.0,8.2015,0.0,7.9141,7.9818,8.2053,8.3988,8.5647,8.7084,8.8577,9.0056,9.0748,9.1133,9.121,9.1133,9.1133,9.121,9.121,9.121,9.121,9.121,9.121,9.1287,9.2095,9.2903,9.371,0.0,0.0,0.0,0.0,0.0,0.0,0.0,6.2618,6.3565,6.37,6.37,6.3835,6.414,6.4174,6.4275,6.458,6.4613,6.4783,6.5222,6.5256,6.5459,6.5899,6.5933,6.573,6.5256,6.5527,6.3835,0.0,0.0,0.0,0.0,0.0,0.0,0.0,0.0,6.5995,6.8615,7.1283,7.3752,7.5812,7.5207,7.515,7.5395,7.5395,7.5175,7.4918,7.4918,7.5139,7.5322,7.5028,7.5432,7.6019,7.5542,7.5726,7.6093,7.6093,7.668,7.7304,7.7304,7.7304,7.7414,7.7745,7.8222,7.8589,7.8589,7.9213,7.98,7.98,8.0681,8.0901,7.8919,7.8552,7.8185,0.0,0.0,0.0,0.0,0.0,0.0,0.0,0.0,0.0,0.0,0.0,0.0,0.0,0.0,0.0,0.0,0.0,0.0,7.8679,0.0,8.1292,7.941,8.2794,8.5094,8.6191,8.7607,8.9148,9.071,9.1056,9.121,9.121,9.121,9.121,9.121,9.121,9.121,9.121,9.121,9.121,9.1248,9.1595,9.2556,9.3749,5.7679,0.0,5.7645,0.0,5.9573,6.0013,6.2381,6.3362,6.4106,6.4816,6.5121,6.5155,6.4952,6.4918,6.5019,6.5222,6.5256,6.5459,6.6,6.6,6.6271,6.6779,6.6609,0.0,6.5392,6.5358,6.3971,6.1095,6.0164,0.0,0.0,5.7352,0.0,0.0,6.5278,6.7522,6.8556,7.1406,7.3308,7.442,7.374,7.3888,7.4588,7.4808,7.4771,7.4588,7.4845,7.5065,7.5212,7.4992,7.5432,7.5946,7.5175,7.5285,7.5799,7.6019,7.668,7.7304,7.7304,7.7304,7.7378,7.7635,7.8148,7.8589,7.8589,7.9213,7.98,7.98,8.0241,8.0718,8.0975,7.9103,7.8185,8.0094,0.0,0.0,0.0,0.0,0.0,0.0,0.0,0.0,0.0,0.0,0.0,0.0,0.0,0.0,0.0,0.0,0.0,0.0,0.0,0.0,0.0,8.3463,8.5938,8.7014,8.8424,8.9825,9.121,9.121,9.121,9.121,9.121,9.121,9.121,9.121,9.121,9.121,9.121,9.121,9.1248,9.1479,9.2479,9.3749,5.9776,6.0047,6.0554,6.2076,6.2347,6.2584,6.3396,6.4106,6.485,6.5561,6.6339,6.6508,6.5764,6.5662,6.5967,6.6711,6.6779,6.6779,6.6812,6.6812,6.6812,0.0,0.0,6.5358,6.4647,6.4613,6.4241,6.3463,0.0,0.0,6.1163,6.0524,6.1707,6.4496,6.5324,6.748,7.0555,7.059,7.1788,7.3507,7.3507,7.3561,7.378,7.4588,7.4404,7.3817,7.4625,7.5432,7.5946,7.5175,7.5432,7.5946,7.5175,7.4918,7.5065,7.5873,7.668,7.7304,7.7304,7.7304,7.7524,7.8369,7.8589,7.8589,7.8589,7.9213,7.98,7.98,7.98,8.0057,8.0865,8.0975,7.991,7.668,0.0,0.0,0.0,0.0,0.0,0.0,0.0,7.033,7.668,0.0,0.0,0.0,0.0,0.0,0.0,0.0,0.0,8.1603,7.9731,0.0,8.0386,8.3726,8.6142,8.7718,8.9188,9.0364,9.121,9.121,9.121,9.121,9.121,9.121,9.121,9.121,9.121,9.121,9.121,9.121,9.1287,9.2172,9.2979,9.3826,5.9911,6.0114,6.025,6.0757,6.1298,6.1907,6.2651,6.3396,6.4106,6.485,6.5155,6.5392,6.5662,6.6136,6.6542,0.0,6.6812,6.6812,0.0,6.6339,6.6034,6.6034,6.5831,6.5358,6.4613,6.5087,6.4986,6.4241,0.0,0.0,0.0,6.2591,6.3723,6.6106,6.704,6.7973,6.9029,6.9718,7.07,7.1817,7.1817,7.258,7.3707,7.3964,7.4258,7.4551,7.4808,7.5065,7.5249,7.4992,7.5065,7.5322,7.5616,7.5726,7.5763,7.6019,7.668,7.7304,7.7304,7.7304,7.7378,7.7671,7.7708,7.7708,7.7708,7.7928,7.8112,7.8112,7.8589,7.9213,8.0021,8.0167,8.0204,8.0241,8.0901,0.0,0.0,0.0,0.0,0.0,0.0,7.8589,0.0,7.6864,0.0,0.0,0.0,0.0,0.0,0.0,0.0,0.0,8.1243,0.0,8.1343,8.4143,8.6069,8.7168,8.8064,8.9146,9.0488,9.0989,9.121,9.121,9.121,9.121,9.121,9.121,9.121,9.121,9.121,9.1556,9.2133,9.2402,9.3403,9.4634,6.0419,6.0554,6.0655,6.0926,6.1366,6.1975,6.2685,6.3193,6.3869,6.4884,6.5019,6.529,6.6034,6.6542,0.0,6.6406,6.6914,6.6981,6.644,6.6474,6.6406,6.6136,6.5831,6.5459,6.5019,6.5189,0.0,6.5019,6.4377,6.4309,6.4749,6.4749,6.5493,6.6812,6.7454,6.7628,6.7708,6.8301,6.9562,7.1032,7.1032,7.2291,7.4184,7.4478,7.4918,7.5395,7.5689,7.5799,7.5799,7.5799,7.5799,7.5909,7.6387,7.657,7.657,7.657,7.6937,7.7304,7.7304,7.7304,7.7304,7.7304,7.7304,7.7304,7.7304,7.7304,7.7304,7.7304,7.7745,7.8369,7.9176,7.9323,7.9874,8.1489,8.1342,8.1269,8.2076,0.0,0.0,0.0,0.0,0.0,0.0,7.9837,0.0,0.0,0.0,0.0,0.0,0.0,0.0,7.9401,8.2748,0.0,8.2814,8.4956,8.6437,8.7267,8.7969,8.8797,8.9763,9.0447,9.0762,9.08,9.11,9.121,9.121,9.121,9.121,9.1248,9.1556,9.2018,9.2595,9.321,9.4095,9.5057,6.1231,6.1366,6.1603,0.0,6.2381,0.0,6.3396,6.3531,6.4005,6.5425,6.5595,6.5899,6.6643,6.6745,6.644,6.5764,0.0,0.0,0.0,6.7015,6.7455,6.6779,6.6068,6.5696,6.5696,6.5087,6.5087,6.5764,6.6474,6.6812,6.6812,6.6812,6.6812,6.6812,6.6812,6.6812,6.6812,6.688,6.8383,7.0768,7.0839,7.2458,7.4848,7.5617,7.5971,7.6216,7.6924,7.7243,7.7304,7.7304,7.7304,7.7304,7.7304,7.7304,7.7304,7.7304,7.7304,7.7304,7.7304,7.7304,7.7304,7.7304,7.7304,7.7304,7.7304,7.7304,7.7304,7.7304,7.7304,7.7598,7.8442,7.8552,7.9029,8.0645,8.0865,8.1122,8.2003,0.0,0.0,0.0,0.0,0.0,0.0,8.0388,8.2076,0.0,0.0,0.0,0.0,0.0,7.7745,8.3251,8.4132,8.4525,8.4488,8.6036,8.7134,8.7743,8.864,8.9016,8.9069,8.9763,9.0116,9.016,9.0876,9.121,9.121,9.121,9.1248,9.1364,9.2172,9.2556,9.2864,9.4403,9.5018,9.5211,0.0,0.0,6.2178,6.2347,6.2381,6.2651,6.3396,6.3531,6.3835,6.4749,6.485,6.5121,6.5865,6.5967,6.5865,6.5696,6.6542,6.6914,6.6576,6.6339,6.6136,6.5967,6.5764,6.5696,6.5696,6.6068,6.6373,6.6542,6.6711,6.6812,6.6812,6.6812,6.6812,6.6812,6.6812,6.6812,6.6846,6.7421,6.8494,6.9826,7.0419,7.1739,7.3547,7.3726,7.4683,7.5907,7.6125,7.6628,7.7304,7.7304,7.7304,7.7304,7.7304,7.7304,7.7304,7.7304,7.7304,7.7304,7.7304,7.7304,7.7304,7.7304,7.7304,7.7304,7.7304,7.7304,7.7304,7.7304,7.7304,7.7598,7.8442,7.8075,7.8148,7.98,7.958,7.9653,8.1085,8.1269,0.0,0.0,8.215,8.2737,8.3985,8.3875,8.2957,0.0,0.0,0.0,0.0,7.8699,8.0094,8.3324,8.3581,8.4235,8.5492,8.5861,8.6406,8.7193,8.7995,8.8367,8.8367,8.9573,9.0116,9.016,9.0876,9.121,9.121,9.121,9.1595,9.221,9.2402,9.3287,9.4441,9.4826,9.5403,9.6019,6.2313,6.2381,6.2381,6.2381,6.2685,6.3057,6.3463,6.3802,6.4275,6.5019,6.5087,6.5392,6.6102,6.6203,6.6203,6.6203,6.688,6.7015,6.6339,6.6542,6.6542,6.6203,6.6203,6.6203,6.6203,6.6609,6.6812,6.6812,6.6812,6.6812,6.6812,6.6812,6.6812,6.6812,6.6812,6.7015,6.7354,6.7726,6.891,7.051,7.0891,7.2119,7.3673,7.3673,7.4547,7.5787,7.5787,7.6432,7.7304,7.7304,7.7304,7.7304,7.7304,7.7304,7.7304,7.7304,7.7304,7.7304,7.7304,7.7304,7.7304,7.7304,7.7304,7.7304,7.7304,7.7304,7.7304,7.7304,7.7304,7.7451,7.7928,7.7635,7.7745,7.9029,7.9507,8.0131,8.1379,8.2186,8.2994,8.3838,8.3948,8.4278,8.5159,8.4866,8.3728,8.1599,0.0,0.0,7.9617,8.0755,8.2039,8.3361,8.4132,8.4903,8.5783,8.6151,8.6591,8.6995,8.7394,8.7618,8.7618,8.8691,8.9339,8.9669,9.0406,9.0876,9.1248,9.1633,9.2056,9.2595,9.3326,9.421,9.5057,9.5441,9.5903,9.6288,6.2381,6.2482,6.2584,6.2719,6.326,6.3802,6.414,6.4613,6.5189,6.5933,6.6136,6.6406,6.6914,6.6981,6.6981,6.6981,6.7557,6.732,6.5967,6.7049,6.7455,6.6846,6.6812,6.6812,6.6812,6.6812,6.6812,6.6812,6.6812,6.6812,6.6812,6.6812,6.688,6.6981,6.6981,6.7387,6.8098,6.8199,6.9509,7.1477,7.1581,7.2533,7.385,7.4005,7.4684,7.558,7.5718,7.6432,7.7304,7.7304,7.7304,7.7304,7.7304,7.7304,7.7304,7.7304,7.7304,7.7304,7.7304,7.7304,7.7304,7.7304,7.7304,7.7304,7.7304,7.7304,7.7304,7.7304,7.7414,7.7488,7.7341,7.7414,7.7635,7.7965,7.9507,8.0828,8.1379,0.0,8.4278,8.4389,8.4535,8.4609,8.4609,8.4499,8.4132,8.3471,8.3287,8.2994,8.2406,8.303,8.3508,8.3765,8.5086,8.5857,8.5967,8.6664,8.6995,8.6995,8.6995,8.6995,8.6995,8.7773,8.8446,8.9173,8.9961,9.0719,9.1479,9.2326,9.2749,9.3018,9.4441,9.5057,9.5288,9.6019,9.6288,9.6288,6.2381,6.2888,6.3531,6.414,6.4343,6.5053,6.6948,6.6812,6.6745,6.7455,6.8132,6.8368,6.7793,6.7726,6.7726,6.7726,6.7827,6.7557,6.6711,6.6846,6.6948,6.6812,6.6812,6.6812,6.6812,6.6812,6.6812,6.6812,6.6812,6.6812,6.6812,6.6812,6.7151,6.7726,6.7726,6.8166,6.8944,6.9586,7.0046,7.0459,7.1104,7.1498,7.183,7.2749,7.365,7.461,7.551,7.6432,7.7304,7.7304,7.7304,7.7304,7.7304,7.7304,7.7304,7.7304,7.7304,7.7304,7.7304,7.7304,7.7304,7.7304,7.7304,7.7304,7.7304,7.7304,7.7304,7.7304,7.7892,7.8185,7.7451,7.7928,7.7745,7.5799,7.7451,7.8772,7.8148,0.0,8.281,8.3508,8.4205,8.4609,8.4609,8.3985,8.3544,8.3434,8.2774,8.2627,8.3177,8.3361,8.4022,8.538,8.5673,8.6114,8.6811,8.6958,8.6995,8.6995,8.6995,8.6995,8.6995,8.7773,8.8446,8.9211,9.057,9.1638,9.2364,9.3172,9.3941,9.4634,9.4903,9.5441,9.6095,9.6249,9.6288,9.6288,6.3429,6.3869,6.4343,6.5053,6.5831,6.6576,6.7218,6.7726,6.8166,6.8504,6.8876,6.8977,6.8605,6.8538,6.8538,6.8538,6.8538,6.8402,6.8064,6.7624,6.7218,6.6846,6.6812,6.6812,6.6812,6.6812,6.6812,6.6812,6.6812,6.7015,6.7387,6.7387,6.7827,6.8538,6.8538,6.8977,6.9722,7.006,7.0432,7.0838,7.1176,7.1312,7.1367,7.2448,7.3412,7.446,7.544,7.6432,7.7304,7.7304,7.7304,7.7304,7.7304,7.7304,7.7304,7.7304,7.7304,7.7304,7.7304,7.7304,7.7304,7.7304,7.7304,7.7304,7.7304,7.7671,7.8002,7.8002,7.8332,7.8626,7.8626,7.8626,7.8369,7.7635,7.9213,8.0388,8.0021,8.2003,8.3618,8.4022,8.3985,8.3948,8.3948,8.3251,8.2737,8.2737,8.281,8.303,8.3398,8.4242,8.5013,8.5783,8.6224,8.6628,8.6995,8.6995,8.6995,8.6995,8.6995,8.6995,8.6995,8.7328,8.7861,8.8617,8.9743,9.0822,9.1987,9.3178,9.421,9.5057,9.5518,9.5942,9.6288,9.6288,9.6288,9.6288,6.4377,6.4884,6.5358,6.6068,6.7286,6.8098,6.7895,6.8707,6.935,6.935,6.9519,6.9553,6.9383,6.935,6.935,6.935,6.935,6.9282,6.9113,6.8673,6.803,6.7117,6.6914,6.6812,6.6812,6.6812,6.688,6.7083,6.7083,6.7455,6.8166,6.8166,6.8605,6.935,6.935,6.9755,7.0466,7.0466,7.077,7.1312,7.1312,7.1312,7.1367,7.2448,7.3412,7.446,7.544,7.6432,7.7304,7.7304,7.7304,7.7304,7.7304,7.7304,7.7304,7.7304,7.7304,7.7304,7.7304,7.7304,7.7304,7.7304,7.7304,7.7378,7.7561,7.8112,7.8662,7.8846,7.9029,7.9286,7.969,7.9433,7.9176,7.9213,8.0718,8.1782,8.1415,8.3067,8.4242,8.4058,8.3654,8.3361,8.3141,8.2737,8.2406,8.2223,8.3141,8.3691,8.3691,8.5013,8.5894,8.6077,8.6701,8.6995,8.6995,8.6995,8.6995,8.6995,8.6995,8.6995,8.6995,8.6995,8.7505,8.8405,8.9123,9.0398,9.2106,9.3483,9.4522,9.5365,9.6057,9.6288,9.6288,9.6288,9.6288,9.6288,6.458,6.5696,6.688,6.7624,6.8436,6.9451,7.077,7.0466,7.0094,7.0094,7.0703,7.0872,7.0195,7.0094,7.0094,7.0094,7.0094,6.9823,6.9147,6.9688,6.935,6.7895,6.7184,6.6812,6.6812,6.6812,6.7151,6.7827,6.7827,6.8233,6.9011,6.9011,6.9417,7.0094,7.0094,7.0534,7.1244,7.1244,7.1278,7.1312,7.1312,7.1312,7.1367,7.2448,7.3412,7.446,7.544,7.6432,7.7304,7.7304,7.7304,7.7304,7.7304,7.7304,7.7304,7.7304,7.7304,7.7304,7.7304,7.7304,7.7304,7.7304,7.7304,7.7524,7.8332,7.8552,7.8809,7.9543,8.0314,8.0608,7.991,8.0351,8.0094,7.7855,7.9507,8.0571,7.9066,8.1525,8.3214,8.248,8.2994,8.3104,8.237,8.292,8.2994,8.226,8.3654,8.4499,8.4499,8.5306,8.6151,8.6885,8.6995,8.6995,8.6995,8.6995,8.6995,8.6995,8.6995,8.6995,8.6995,8.6995,8.78,8.9262,9.0031,9.162,9.3816,9.47,9.5546,9.6211,9.6288,9.6288,9.6288,9.6288,9.6288,9.6288,6.7218,6.7861,6.847,6.918,6.9958,7.05,7.0601,7.077,7.0872,7.0872,7.1142,7.121,7.0906,7.0872,7.0872,7.0872,7.0872,7.077,7.05,7.0297,6.9485,6.7963,6.7624,6.7489,6.7489,6.7489,6.7861,6.8639,6.8639,6.9011,6.9755,6.9755,7.0161,7.0872,7.0872,7.1041,7.1312,7.1312,7.1312,7.1312,7.1312,7.1312,7.1367,7.2448,7.3044,7.3492,7.4535,7.551,7.633,7.633,7.6793,7.7304,7.7304,7.7304,7.7304,7.7304,7.7304,7.7451,7.7965,7.7708,7.7451,7.7965,7.8112,7.8332,7.914,7.9727,8.0167,8.0461,8.0791,8.1048,8.1232,8.1122,8.0865,8.0424,8.1122,8.1525,8.0901,8.1893,8.2737,8.292,8.2774,8.2737,8.292,8.3251,8.3287,8.2994,8.4425,8.5343,8.5343,8.6114,8.6701,8.6995,8.6995,8.6995,8.6995,8.6995,8.6995,8.6995,8.6995,8.6995,8.6995,8.6995,8.7347,8.7903,8.8641,9.0071,9.1846,9.2617,9.4011,9.5619,9.5619,9.5902,9.6288,9.6288,9.6288,9.6288,6.8876,6.9282,6.9586,7.0094,7.0804,7.1142,7.0635,7.0973,7.1312,7.1312,7.1312,7.1312,7.1312,7.1312,7.1312,7.1312,7.1312,7.1312,7.1312,7.0838,6.9958,6.8673,6.8402,6.8402,6.8605,6.8402,6.8673,6.9451,6.9451,6.9823,7.0534,7.0534,7.0804,7.1312,7.1312,7.1312,7.1312,7.1312,7.1312,7.1312,7.1312,7.1312,7.1401,7.2056,7.2498,7.288,7.3571,7.446,7.5369,7.5369,7.5959,7.6856,7.6856,7.7019,7.7304,7.7304,7.7524,7.7855,7.8442,7.8369,7.8222,7.8809,7.8993,7.9176,7.9984,8.0608,8.1085,8.1342,8.1379,8.1562,8.2113,8.1746,8.1562,8.2113,8.2186,8.2186,8.2186,8.2186,8.2406,8.2957,8.2774,8.281,8.3361,8.3875,8.4058,8.3801,8.527,8.6187,8.6187,8.6701,8.6995,8.6995,8.6995,8.6995,8.6995,8.6995,8.6995,8.6995,8.6995,8.6995,8.6995,8.6995,8.7142,8.7362,8.7924,8.9161,9.0926,9.143,9.3033,9.5189,9.5189,9.5657,9.6288,9.6288,9.6288,9.6288,6.9113,6.9688,7.0195,7.0195,7.0804,7.1312,7.1312,7.1312,7.1312,7.1312,7.1312,7.1312,7.1312,7.1312,7.1312,7.1312,7.1312,7.1312,7.1312,7.1312,7.0973,7.0263,6.9519,6.9451,7.0161,6.9485,6.9485,7.0195,7.0195,7.0601,7.1312,7.1312,7.1312,7.1312,7.1312,7.1312,7.1312,7.1312,7.1312,7.1312,7.1312,7.1312,7.1312,7.1312,7.1917,7.2797,7.2797,7.3412,7.431,7.431,7.4976,7.5787,7.5787,7.6498,7.7304,7.7304,7.7928,7.8589,7.8589,7.9176,7.98,7.98,7.98,8.0021,8.0828,8.1012,8.1232,8.2039,8.2186,8.2186,8.2186,8.2186,8.2186,8.2186,8.2186,8.2186,8.2186,8.2186,8.2186,8.2223,8.292,8.3398,8.3434,8.4866,8.5453,8.4682,8.6114,8.6995,8.6995,8.6995,8.6995,8.6995,8.6995,8.6995,8.6995,8.6995,8.6995,8.6995,8.6995,8.6995,8.6995,8.6995,8.7435,8.8206,8.8206,8.9566,9.1683,9.1683,9.3088,9.5189,9.5189,9.5657,9.6288,9.6288,9.6288,9.6288,7.0635,7.0838,7.0973,7.0973,7.1176,7.1312,7.1312,7.1312,7.1312,7.1312,7.1312,7.1312,7.1312,7.1312,7.1312,7.1312,7.1312,7.1312,7.1312,7.1785,7.2191,7.2496,7.0804,6.9958,7.0195,7.05,7.1007,7.1751,7.1751,7.1853,7.2056,7.1548,7.1312,7.1312,7.1312,7.1312,7.1312,7.1312,7.1312,7.1312,7.1312,7.1312,7.1312,7.1312,7.1457,7.1776,7.1776,7.2364,7.3332,7.4082,7.4976,7.5959,7.6628,7.7019,7.7304,7.7304,7.7488,7.7965,7.9103,7.9617,7.991,8.0498,8.0645,8.0865,8.1672,8.1819,8.1893,8.215,8.2186,8.2186,8.2186,8.2186,8.2186,8.2186,8.2186,8.2406,8.2957,8.2553,8.281,8.4499,8.3948,8.3838,8.4976,8.5527,8.571,8.5453,8.6407,8.6995,8.6995,8.6995,8.6995,8.6995,8.6995,8.6995,8.6995,8.6995,8.6995,8.6995,8.6995,8.6995,8.6995,8.6995,8.7435,8.8206,8.8206,8.9228,9.0942,9.0942,9.1985,9.3648,9.3648,9.4424,9.5533,9.5533,9.5862,9.6288,7.1312,7.1312,7.1312,7.1312,7.1312,7.1312,7.1312,7.1312,7.1312,7.1312,7.1312,7.1312,7.1312,7.1312,7.1447,7.1718,7.1751,7.1751,7.1751,7.2157,7.2732,7.3443,7.2191,7.1616,7.1921,7.209,7.2394,7.2834,7.2529,7.2394,7.2394,7.165,7.1312,7.1312,7.1312,7.1312,7.1312,7.1312,7.1312,7.1312,7.1312,7.1312,7.1312,7.1312,7.1312,7.1312,7.1312,7.1688,7.2364,7.3332,7.461,7.5959,7.6956,7.7304,7.7304,7.7304,7.7781,7.8516,7.9507,8.0241,8.0865,8.1342,8.1489,8.1599,8.2076,8.2186,8.2186,8.2186,8.2186,8.2186,8.2186,8.2186,8.2186,8.2186,8.2186,8.248,8.3287,8.2994,8.3324,8.5123,8.4756,8.4719,8.571,8.6077,8.6261,8.6261,8.6738,8.6995,8.6995,8.6995,8.6995,8.6995,8.6995,8.6995,8.6995,8.6995,8.6995,8.6995,8.6995,8.6995,8.7031,8.7325,8.7729,8.8206,8.8536,8.9417,9.0592,9.0592,9.156,9.2987,9.2987,9.3878,9.5189,9.5189,9.5657,9.6288,7.1312,7.1312,7.1312,7.1312,7.1312,7.1312,7.1312,7.1312,7.1312,7.1312,7.1312,7.1312,7.1312,7.1379,7.1684,7.2326,7.2462,7.2496,7.2496,7.2563,7.2902,7.3544,7.3646,7.4018,7.4695,7.3984,7.3578,7.3578,7.2868,7.2496,7.2462,7.1684,7.1312,7.1312,7.1312,7.1312,7.1312,7.1312,7.1312,7.1312,7.1312,7.1312,7.1312,7.1312,7.1312,7.1312,7.1312,7.1312,7.1457,7.2582,7.4234,7.5959,7.6956,7.7378,7.7451,7.7451,7.8552,7.98,7.9874,8.0975,8.2113,8.226,8.226,8.2223,8.2296,8.226,8.2223,8.2296,8.226,8.2186,8.2186,8.2186,8.2223,8.2296,8.226,8.2517,8.3398,8.3471,8.3728,8.4609,8.5343,8.582,8.5894,8.6591,8.6995,8.6995,8.6995,8.6995,8.6995,8.6995,8.6995,8.6995,8.6995,8.6995,8.6995,8.6995,8.6995,8.6995,8.6995,8.7031,8.7142,8.7876,8.828,8.8463,8.9197,8.9968,9.0702,9.0702,9.1565,9.2858,9.2987,9.3878,9.5096,9.5189,9.5657,9.6288,7.1312,7.1312,7.1312,7.1312,7.1312,7.1312,7.1312,7.1312,7.1312,7.1312,7.1312,7.1312,7.1312,7.1819,7.2225,7.2394,7.2935,7.324,7.324,7.3815,7.4187,7.4356,7.4897,7.5303,7.5473,7.4728,7.4356,7.4356,7.3612,7.324,7.3206,7.1921,7.1312,7.1312,7.1312,7.1312,7.1312,7.1312,7.1312,7.1312,7.1312,7.1312,7.1312,7.1312,7.1312,7.1312,7.1312,7.1312,7.1546,7.3332,7.4757,7.5959,7.6956,7.7781,7.8332,7.8332,7.9029,7.991,8.0571,8.1012,8.1562,8.2847,8.2663,8.237,8.2994,8.2663,8.237,8.303,8.2627,8.2186,8.2186,8.2186,8.2406,8.303,8.2627,8.27,8.4132,8.3801,8.3948,8.538,8.5673,8.604,8.6701,8.6921,8.6995,8.6995,8.6995,8.6995,8.6995,8.6995,8.6995,8.6995,8.6995,8.6995,8.6995,8.6995,8.6995,8.6995,8.6995,8.7325,8.7949,8.8133,8.8904,9.0078,9.0262,9.0812,9.1546,9.1546,9.1764,9.2089,9.2765,9.353,9.4424,9.4963,9.5657,9.6288,7.1312,7.1312,7.1312,7.1312,7.1312,7.1312,7.1312,7.1312,7.1312,7.1312,7.1312,7.1447,7.1785,7.2157,7.2529,7.2868,7.3578,7.4018,7.4018,7.439,7.4762,7.51,7.5506,7.5709,7.5709,7.5337,7.5134,7.5134,7.439,7.4018,7.3984,7.2529,7.1819,7.1819,7.1481,7.1312,7.1312,7.1312,7.1312,7.1312,7.1312,7.1312,7.1312,7.1312,7.1312,7.1312,7.1312,7.16,7.2228,7.3252,7.4234,7.5263,7.6117,7.7067,7.7939,7.8274,7.9332,8.0461,8.0901,8.1562,8.226,8.27,8.281,8.2884,8.3324,8.2774,8.2333,8.2737,8.281,8.2663,8.226,8.281,8.3361,8.3398,8.3067,8.3324,8.4939,8.4499,8.4572,8.6187,8.6371,8.6554,8.6958,8.6995,8.6995,8.6995,8.6995,8.6995,8.6995,8.6995,8.6995,8.6995,8.6995,8.6995,8.6995,8.6995,8.6995,8.6995,8.6995,8.7435,8.8206,8.861,8.9454,9.0629,9.1033,9.14,9.1803,9.1803,9.2055,9.2399,9.283,9.3648,9.463,9.5048,9.5657,9.6288,7.1312,7.1312,7.1312,7.1312,7.1312,7.1312,7.1312,7.1312,7.1312,7.1312,7.1312,7.1582,7.2326,7.2631,7.3071,7.3815,7.4424,7.4796,7.4796,7.4796,7.5067,7.5676,7.5709,7.5709,7.5709,7.5709,7.5709,7.5709,7.4965,7.4627,7.4593,7.3206,7.2597,7.2563,7.1819,7.1515,7.1481,7.1379,7.1312,7.1312,7.1312,7.1312,7.1312,7.1312,7.1312,7.1312,7.1312,7.183,7.2582,7.2714,7.3402,7.4399,7.5189,7.6333,7.7555,7.8385,7.9917,8.1452,8.1599,8.259,8.3434,8.2774,8.303,8.3398,8.3398,8.2774,8.2296,8.2737,8.3141,8.3251,8.27,8.3691,8.4425,8.3911,8.3691,8.4132,8.56,8.5233,8.5306,8.6664,8.6921,8.6995,8.6995,8.6995,8.6995,8.6995,8.6995,8.6995,8.6995,8.6995,8.6995,8.6995,8.6995,8.6995,8.6995,8.6995,8.6995,8.6995,8.6995,8.7509,8.8426,8.9124,8.9931,9.0849,9.151,9.1803,9.1803,9.1803,9.2229,9.283,9.3114,9.3935,9.5048,9.5318,9.5741,9.6288,7.1312,7.1312,7.1312,7.1312,7.1312,7.1312,7.1312,7.1312,7.1312,7.1312,7.1312,7.1582,7.2326,7.3544,7.4593,7.5337,7.5473,7.554,7.554,7.554,7.5608,7.5709,7.5709,7.5709,7.5709,7.5709,7.5709,7.5709,7.4965,7.4627,7.4593,7.3747,7.3341,7.3308,7.2563,7.2259,7.2225,7.1582,7.1312,7.1312,7.1312,7.1312,7.1312,7.1312,7.1312,7.1312,7.1312,7.1401,7.16,7.2498,7.3296,7.4065,7.5098,7.7083,7.9215,8.0045,8.1554,8.3251,8.3911,8.4278,8.4425,8.4315,8.3838,8.3398,8.3398,8.2774,8.2774,8.4866,8.4278,8.3581,8.4168,8.4462,8.4792,8.538,8.4903,8.4756,8.5673,8.571,8.571,8.593,8.6591,8.6995,8.6995,8.6995,8.6995,8.6995,8.6995,8.6995,8.6995,8.6995,8.6995,8.6995,8.6995,8.6995,8.6995,8.6995,8.6995,8.6995,8.6995,8.7802,8.9271,8.9381,9.0225,9.1657,9.173,9.1803,9.1803,9.1803,9.1839,9.2089,9.341,9.4102,9.4424,9.57,9.6213,9.6288,7.1312,7.1312,7.1312,7.1312,7.1312,7.1312,7.1312,7.1312,7.1312,7.1312,7.1684,7.2191,7.2935,7.4322,7.5337,7.5676,7.5709,7.5709,7.5709,7.5709,7.5709,7.5709,7.5709,7.5709,7.5709,7.5709,7.5709,7.5709,7.5371,7.5202,7.5202,7.4458,7.4119,7.4052,7.2902,7.2394,7.236,7.1616,7.1312,7.1312,7.1312,7.1312,7.1312,7.1312,7.1312,7.1312,7.1312,7.1312,7.1469,7.2307,7.2825,7.3289,7.4515,7.6426,7.8282,7.8599,8.0493,8.2429,8.2391,8.3103,8.3838,8.3361,8.3324,8.3544,8.3985,8.3471,8.3067,8.3654,8.4278,8.4572,8.4022,8.5049,8.593,8.582,8.549,8.5563,8.6371,8.6077,8.5967,8.6407,8.6775,8.6995,8.6995,8.6995,8.6995,8.6995,8.6995,8.6995,8.6995,8.6995,8.6995,8.6995,8.6995,8.6995,8.6995,8.6995,8.6995,8.7031,8.7472,8.828,8.9417,8.9417,9.0298,9.1803,9.1803,9.1803,9.1803,9.1803,9.2018,9.2498,9.3202,9.3991,9.4866,9.5902,9.6288,9.6288]},{"header":{"parameterUnit":"m.s-1","parameterCategory":1,"la1":30.6,"la2":28.766,"lo1":-90.7593,"lo2":-88.6598,"dx":0.0162,"dy":0.0183,"nx":116,"ny":114,"refTime":"2023-01-12T06:00:00:Z","depth":0,"parameterNumber":3,"parameterNumberName":"V-component_of_WINDS"},"data":[0.0,0.0,0.0,0.0,0.0,0.0,0.0,0.0,0.0,0.0,0.0,0.0,0.0,0.0,0.0,0.0,0.0,0.0,0.0,0.0,0.0,0.0,0.0,0.0,0.0,0.0,0.0,0.0,0.0,0.0,0.0,0.0,0.0,0.0,0.0,0.0,0.0,0.0,0.0,0.0,0.0,0.0,0.0,0.0,0.0,0.0,0.0,0.0,0.0,0.0,0.0,0.0,0.0,0.0,0.0,0.0,0.0,0.0,0.0,0.0,0.0,0.0,0.0,0.0,0.0,0.0,0.0,0.0,0.0,0.0,0.0,0.0,0.0,0.0,0.0,0.0,0.0,0.0,0.0,0.0,0.0,0.0,0.0,0.0,0.0,0.0,0.0,0.0,0.0,0.0,0.0,0.0,0.0,0.0,0.0,0.0,0.0,0.0,0.0,0.0,0.0,0.0,0.0,0.0,0.0,0.0,0.0,0.0,0.0,0.0,0.0,0.0,0.0,0.0,0.0,0.0,0.0,0.0,0.0,0.0,0.0,0.0,0.0,0.0,0.0,0.0,0.0,0.0,0.0,0.0,0.0,0.0,0.0,0.0,0.0,0.0,0.0,0.0,0.0,0.0,0.0,0.0,0.0,0.0,0.0,0.0,0.0,0.0,0.0,0.0,0.0,0.0,0.0,0.0,0.0,0.0,0.0,0.0,0.0,0.0,0.0,0.0,0.0,0.0,0.0,0.0,0.0,0.0,0.0,0.0,0.0,0.0,0.0,0.0,0.0,0.0,0.0,0.0,0.0,0.0,0.0,0.0,0.0,0.0,0.0,0.0,0.0,0.0,0.0,0.0,0.0,0.0,0.0,0.0,0.0,0.0,0.0,0.0,0.0,0.0,0.0,0.0,0.0,0.0,0.0,0.0,0.0,0.0,0.0,0.0,0.0,0.0,0.0,0.0,0.0,0.0,0.0,0.0,0.0,0.0,0.0,0.0,0.0,0.0,0.0,0.0,0.0,0.0,0.0,0.0,0.0,0.0,0.0,0.0,0.0,0.0,0.0,0.0,0.0,0.0,0.0,0.0,0.0,0.0,0.0,0.0,0.0,0.0,0.0,0.0,0.0,0.0,0.0,0.0,0.0,0.0,0.0,0.0,0.0,0.0,0.0,0.0,0.0,0.0,0.0,0.0,0.0,0.0,0.0,0.0,0.0,0.0,0.0,0.0,0.0,0.0,0.0,0.0,0.0,0.0,0.0,0.0,0.0,0.0,0.0,0.0,0.0,0.0,0.0,0.0,0.0,0.0,0.0,0.0,0.0,0.0,0.0,0.0,0.0,0.0,0.0,0.0,0.0,0.0,0.0,0.0,0.0,0.0,0.0,0.0,0.0,0.0,0.0,0.0,0.0,0.0,0.0,0.0,0.0,0.0,0.0,0.0,0.0,0.0,0.0,0.0,0.0,0.0,0.0,0.0,0.0,0.0,0.0,0.0,0.0,0.0,0.0,0.0,0.0,0.0,0.0,0.0,0.0,0.0,0.0,0.0,0.0,0.0,0.0,0.0,0.0,0.0,0.0,0.0,0.0,0.0,0.0,0.0,0.0,0.0,0.0,0.0,0.0,0.0,0.0,0.0,0.0,0.0,0.0,0.0,0.0,0.0,0.0,0.0,0.0,0.0,0.0,0.0,0.0,0.0,0.0,0.0,0.0,0.0,0.0,0.0,0.0,0.0,0.0,0.0,0.0,0.0,0.0,0.0,0.0,0.0,0.0,0.0,0.0,0.0,0.0,0.0,0.0,0.0,0.0,0.0,0.0,0.0,0.0,0.0,0.0,0.0,0.0,0.0,0.0,0.0,0.0,0.0,0.0,0.0,0.0,0.0,0.0,0.0,0.0,0.0,0.0,0.0,0.0,0.0,0.0,0.0,0.0,0.0,0.0,0.0,0.0,0.0,0.0,0.0,0.0,0.0,0.0,0.0,0.0,0.0,0.0,0.0,0.0,0.0,0.0,0.0,0.0,0.0,0.0,0.0,0.0,0.0,0.0,0.0,0.0,0.0,0.0,0.0,0.0,0.0,0.0,0.0,0.0,0.0,0.0,0.0,0.0,0.0,0.0,0.0,0.0,0.0,0.0,0.0,0.0,0.0,0.0,0.0,0.0,0.0,0.0,0.0,0.0,0.0,0.0,0.0,0.0,0.0,0.0,0.0,0.0,0.0,0.0,0.0,0.0,0.0,0.0,0.0,0.0,0.0,0.0,0.0,0.0,0.0,0.0,0.0,0.0,0.0,0.0,0.0,0.0,0.0,0.0,0.0,0.0,0.0,0.0,0.0,0.0,0.0,0.0,0.0,0.0,0.0,0.0,0.0,0.0,0.0,0.0,0.0,0.0,0.0,0.0,0.0,0.0,0.0,0.0,0.0,0.0,0.0,0.0,0.0,0.0,0.0,0.0,0.0,0.0,0.0,0.0,0.0,0.0,0.0,0.0,0.0,0.0,0.0,0.0,0.0,0.0,0.0,0.0,0.0,0.0,0.0,0.0,0.0,0.0,0.0,0.0,0.0,0.0,0.0,0.0,0.0,0.0,0.0,0.0,0.0,0.0,0.0,0.0,0.0,0.0,0.0,0.0,0.0,0.0,0.0,0.0,0.0,0.0,0.0,0.0,0.0,0.0,0.0,0.0,0.0,0.0,0.0,0.0,0.0,0.0,0.0,0.0,0.0,0.0,0.0,0.0,0.0,0.0,0.0,0.0,0.0,0.0,0.0,0.0,0.0,0.0,0.0,0.0,0.0,0.0,0.0,0.0,0.0,0.0,0.0,0.0,0.0,0.0,0.0,0.0,0.0,0.0,0.0,0.0,0.0,0.0,0.0,0.0,0.0,0.0,0.0,0.0,0.0,0.0,0.0,0.0,0.0,0.0,0.0,0.0,0.0,0.0,0.0,0.0,0.0,0.0,0.0,0.0,0.0,0.0,0.0,0.0,0.0,0.0,0.0,0.0,0.0,0.0,0.0,0.0,0.0,0.0,0.0,0.0,0.0,0.0,0.0,0.0,0.0,0.0,0.0,0.0,0.0,0.0,0.0,0.0,0.0,0.0,0.0,0.0,0.0,0.0,0.0,0.0,0.0,0.0,0.0,0.0,0.0,0.0,0.0,0.0,0.0,0.0,0.0,0.0,0.0,0.0,0.0,0.0,0.0,0.0,0.0,0.0,0.0,0.0,0.0,0.0,0.0,0.0,0.0,0.0,0.0,0.0,0.0,0.0,0.0,0.0,0.0,0.0,0.0,0.0,0.0,0.0,0.0,0.0,0.0,0.0,0.0,0.0,0.0,0.0,0.0,0.0,0.0,0.0,0.0,0.0,0.0,0.0,0.0,0.0,0.0,0.0,0.0,0.0,0.0,0.0,0.0,0.0,0.0,0.0,0.0,0.0,0.0,0.0,0.0,0.0,0.0,0.0,0.0,0.0,0.0,0.0,0.0,0.0,0.0,0.0,0.0,0.0,0.0,0.0,0.0,0.0,0.0,0.0,0.0,0.0,0.0,0.0,0.0,0.0,0.0,0.0,0.0,0.0,0.0,0.0,0.0,0.0,0.0,0.0,0.0,0.0,0.0,0.0,0.0,0.0,0.0,0.0,0.0,0.0,0.0,0.0,0.0,0.0,0.0,0.0,0.0,0.0,0.0,0.0,0.0,0.0,0.0,0.0,0.0,0.0,0.0,0.0,0.0,0.0,0.0,0.0,0.0,0.0,0.0,0.0,0.0,0.0,0.0,0.0,0.0,0.0,0.0,0.0,0.0,0.0,0.0,0.0,0.0,0.0,0.0,0.0,0.0,0.0,0.0,0.0,0.0,0.0,0.0,0.0,0.0,0.0,0.0,0.0,0.0,0.0,0.0,0.0,0.0,0.0,0.0,0.0,0.0,0.0,0.0,0.0,0.0,0.0,0.0,0.0,0.0,0.0,0.0,0.0,0.0,0.0,0.0,0.0,0.0,0.0,0.0,0.0,0.0,0.0,0.0,0.0,0.0,0.0,0.0,0.0,0.0,0.0,0.0,0.0,0.0,0.0,0.0,0.0,0.0,0.0,0.0,0.0,0.0,0.0,0.0,0.0,0.0,0.0,0.0,0.0,0.0,0.0,0.0,0.0,0.0,0.0,0.0,0.0,0.0,0.0,0.0,0.0,0.0,0.0,0.0,0.0,0.0,0.0,0.0,0.0,0.0,0.0,0.0,0.0,0.0,0.0,0.0,0.0,0.0,0.0,0.0,0.0,0.0,0.0,0.0,0.0,0.0,0.0,0.0,0.0,0.0,0.0,0.0,0.0,0.0,0.0,0.0,0.0,0.0,0.0,0.0,0.0,0.0,0.0,0.0,0.0,0.0,0.0,0.0,0.0,0.0,0.0,0.0,0.0,0.0,0.0,0.0,0.0,0.0,0.0,0.0,0.0,0.0,0.0,0.0,0.0,0.0,0.0,0.0,0.0,0.0,0.0,0.0,0.0,0.0,0.0,0.0,0.0,0.0,0.0,0.0,0.0,0.0,0.0,0.0,0.0,0.0,0.0,0.0,0.0,0.0,0.0,0.0,0.0,0.0,0.0,0.0,0.0,0.0,0.0,0.0,0.0,0.0,0.0,0.0,0.0,0.0,0.0,0.0,0.0,0.0,0.0,0.0,0.0,0.0,0.0,0.0,0.0,0.0,0.0,0.0,0.0,0.0,0.0,0.0,0.0,0.0,0.0,0.0,0.0,0.0,0.0,0.0,0.0,0.0,0.0,0.0,0.0,0.0,0.0,0.0,0.0,0.0,0.0,0.0,0.0,0.0,0.0,0.0,0.0,0.0,0.0,0.0,0.0,0.0,0.0,0.0,0.0,0.0,0.0,0.0,0.0,0.0,0.0,0.0,0.0,0.0,0.0,0.0,0.0,0.0,0.0,0.0,0.0,0.0,0.0,0.0,0.0,0.0,0.0,0.0,0.0,0.0,0.0,0.0,0.0,0.0,0.0,0.0,0.0,0.0,0.0,0.0,0.0,0.0,0.0,0.0,0.0,0.0,0.0,0.0,0.0,0.0,0.0,0.0,0.0,0.0,0.0,0.0,0.0,0.0,0.0,0.0,0.0,0.0,0.0,0.0,0.0,0.0,0.0,0.0,0.0,0.0,0.0,0.0,0.0,0.0,0.0,0.0,0.0,0.0,0.0,0.0,0.0,0.0,0.0,0.0,0.0,0.0,0.0,0.0,0.0,0.0,0.0,0.0,0.0,0.0,0.0,0.0,0.0,0.0,0.0,0.0,0.0,0.0,0.0,0.0,0.0,0.0,0.0,0.0,0.0,0.0,0.0,0.0,0.0,0.0,0.0,0.0,0.0,0.0,0.0,0.0,0.0,0.0,0.0,0.0,0.0,0.0,0.0,0.0,0.0,0.0,0.0,0.0,0.0,0.0,0.0,0.0,0.0,0.0,0.0,0.0,0.0,0.0,0.0,0.0,0.0,0.0,0.0,0.0,0.0,0.0,0.0,0.0,0.0,0.0,0.0,0.0,0.0,0.0,0.0,0.0,0.0,0.0,0.0,0.0,0.0,0.0,0.0,0.0,0.0,0.0,0.0,0.0,0.0,0.0,0.0,0.0,0.0,0.0,0.0,0.0,0.0,0.0,0.0,0.0,0.0,0.0,0.0,0.0,0.0,0.0,0.0,0.0,0.0,0.0,0.0,0.0,0.0,0.0,0.0,0.0,0.0,0.0,0.0,0.0,0.0,0.0,0.0,0.0,0.0,0.0,0.0,0.0,0.0,0.0,0.0,0.0,0.0,0.0,0.0,0.0,0.0,0.0,0.0,0.0,0.0,0.0,0.0,0.0,0.0,0.0,0.0,0.0,0.0,0.0,0.0,0.0,0.0,0.0,0.0,0.0,0.0,0.0,0.0,0.0,0.0,0.0,0.0,0.0,0.0,0.0,0.0,0.0,0.0,0.0,0.0,0.0,0.0,0.0,0.0,0.0,0.0,0.0,0.0,0.0,0.0,0.0,0.0,0.0,0.0,0.0,0.0,0.0,0.0,0.0,0.0,0.0,0.0,0.0,0.0,0.0,0.0,0.0,0.0,0.0,0.0,0.0,0.8737,0.0,0.0,0.0,0.0,0.0,0.0,0.0,0.0,0.0,0.0,0.0,0.0,0.0,0.0,0.0,0.0,0.0,0.0,0.0,0.0,0.0,0.0,0.0,0.0,1.0467,1.0034,0.9911,0.9615,0.0,0.0,0.0,0.0,0.0,0.0,0.0,0.8791,0.8938,0.9218,0.9646,1.0519,1.1955,1.3933,1.3614,1.2342,0.0,0.0,0.0,0.0,0.0,0.0,0.0,0.0,0.0,0.0,0.0,0.0,0.0,0.0,0.0,0.0,0.0,0.0,0.0,0.0,0.0,0.0,0.0,0.0,0.0,0.0,0.0,0.0,0.0,0.0,0.0,0.0,0.0,0.0,0.0,0.0,0.0,0.0,0.0,0.0,0.0,0.0,0.0,0.0,0.0,0.0,0.0,0.0,0.0,0.0,0.0,0.0,0.0,0.0,0.0,0.0,0.0,0.0,0.0,0.0,0.0,0.0,0.0,0.0,0.0,0.0,0.0,0.0,0.0,0.0,0.0,0.0,0.9291,0.0,0.0,0.0,0.0,0.0,0.0,0.0,0.0,0.0,0.0,0.0,0.0,0.0,0.0,0.0,0.0,0.0,0.0,0.0,0.0,0.0,1.1876,1.1536,1.0941,1.0635,1.0795,1.0147,0.9753,0.9753,0.0,0.0,0.0,0.0,0.0,0.9256,0.9309,0.9964,1.1168,1.2766,1.4681,1.6834,0.0,0.0,0.0,0.0,0.0,0.0,0.0,0.0,0.0,0.0,0.0,0.0,0.0,0.0,0.0,0.0,0.0,0.0,0.0,0.0,0.0,0.0,0.0,0.0,0.0,0.0,0.0,0.0,0.0,0.0,0.0,0.0,0.0,0.0,0.0,0.0,0.0,0.0,0.0,0.0,0.0,0.0,0.0,0.0,0.0,0.0,0.0,0.0,0.0,0.0,0.0,0.0,0.0,0.0,0.0,0.0,0.0,0.0,0.0,0.0,0.0,0.0,0.0,0.0,0.0,0.0,0.0,0.9449,0.9551,0.9578,0.9605,0.9761,0.9998,0.9652,0.9758,0.993,0.0,0.0,0.0,0.0,0.0,0.0,0.0,0.0,0.0,0.0,0.0,0.0,0.0,0.0,0.0,0.0,0.0,0.0,0.0,0.0,1.2681,1.2357,1.1981,1.1575,1.124,1.0513,1.006,1.006,1.0261,0.0,0.0,0.0,0.0,0.9633,0.9873,1.1108,1.3461,1.569,1.6374,1.5639,0.0,0.0,0.0,0.0,0.0,0.0,0.0,0.0,0.0,0.0,0.0,0.0,0.0,0.0,0.0,0.0,0.0,0.0,0.0,0.0,0.0,0.0,0.0,0.0,0.0,0.0,0.0,0.0,0.0,0.0,0.0,0.0,0.0,0.0,0.0,0.0,0.0,0.0,0.0,0.0,0.0,0.0,0.0,0.0,0.0,0.0,0.0,0.816,0.8343,0.0,0.0,0.0,0.0,0.0,0.0,0.0,0.0,0.0,0.0,0.0,0.0,0.0,0.9117,0.9347,0.9585,0.9713,0.9734,1.0025,1.0229,1.0351,1.048,1.0636,1.0806,1.0867,0.0,0.9822,0.9995,0.0,0.0,0.0,0.0,0.0,0.0,0.0,0.0,0.0,0.0,0.0,0.0,0.0,0.0,0.0,0.0,0.0,0.0,0.0,0.0,0.0,1.3151,1.306,1.3998,1.4002,1.34,1.2175,1.2102,0.0,0.0,0.0,0.9967,1.0167,1.0782,1.3055,1.691,1.9289,2.061,0.0,0.0,0.0,0.0,0.0,0.0,0.0,0.0,0.0,0.0,0.0,0.0,0.0,0.0,0.0,0.0,0.0,0.0,0.0,0.0,0.0,0.0,0.0,0.0,0.0,0.0,0.0,0.0,0.0,0.0,0.0,0.0,0.0,0.0,0.0,0.0,0.0,0.0,0.0,0.0,0.0,0.0,0.0,0.0,0.0,0.0,0.0,0.7875,0.8255,0.8574,0.8275,0.8072,0.0,0.0,0.0,0.0,0.0,0.0,0.0,0.0,0.0,0.9429,0.9496,0.968,1.0005,1.0215,1.0371,1.046,1.0677,1.0806,1.0873,1.0941,1.1002,1.107,1.1138,1.0941,1.0555,1.0721,0.9574,0.7591,0.0,0.0,0.0,0.0,0.9387,1.116,0.0,0.0,0.0,0.0,0.0,0.0,0.0,0.0,0.0,0.0,0.0,0.0,1.5155,1.4861,1.5113,1.6572,1.6862,1.6228,1.4609,1.387,0.0,0.0,1.0431,1.0327,1.0995,1.2869,1.5534,0.0,0.0,0.0,0.0,0.0,0.0,0.0,0.0,0.0,0.0,0.0,0.0,0.0,0.0,0.0,0.0,0.0,0.0,0.0,0.0,0.0,0.0,0.0,0.0,0.0,0.0,0.0,0.0,0.0,0.0,0.0,0.0,0.0,0.0,0.0,0.0,0.0,0.0,0.0,0.0,0.0,0.0,0.0,0.0,0.0,0.0,0.0,0.0,0.0,0.0,0.8187,0.8492,0.8791,0.856,0.8397,0.0,0.0,0.0,0.0,0.0,0.0,0.9483,0.9571,0.9747,1.0039,1.0086,1.029,1.0656,1.0778,1.0894,1.1002,1.1111,1.1165,1.1165,1.1206,1.124,1.128,1.1314,1.1355,1.1355,1.1163,1.1059,1.0823,0.816,0.7266,0.7237,0.7243,0.8937,1.1299,0.0,0.0,0.0,0.0,0.0,0.0,0.0,0.0,0.0,0.0,0.0,1.6476,1.6636,1.7385,1.7916,1.7971,1.7318,1.685,1.6723,1.5081,0.0,0.0,1.1981,1.1329,1.2198,1.6727,0.0,0.0,0.0,0.0,0.0,0.0,0.0,0.0,0.0,0.0,0.0,0.0,0.0,0.0,0.0,0.0,0.0,0.0,0.0,0.0,0.0,0.0,0.0,0.0,0.0,0.0,0.0,0.0,0.0,0.0,0.0,0.0,0.0,0.0,0.0,0.0,0.0,0.0,0.0,0.0,0.0,0.0,0.0,0.0,0.0,0.0,0.0,0.0,0.0,0.0,0.0,0.0,0.0,0.9144,0.9239,0.0,0.0,0.0,0.0,0.913,0.9415,0.9646,0.9788,1.0073,1.0371,1.0663,1.0819,1.0968,1.1124,1.1138,1.1145,1.1151,1.1158,1.1165,1.1165,1.1314,1.1457,1.1606,1.1742,1.1884,1.1972,1.1375,1.126,1.129,1.1129,1.1098,1.1291,1.1038,1.1227,1.1532,0.0,0.0,0.0,1.2891,1.2891,1.2969,1.3242,1.3418,1.3711,1.4258,1.5286,1.643,1.7803,1.8732,1.9776,2.0805,2.1191,2.0717,1.9336,1.7586,0.0,0.0,0.0,1.2986,1.4816,1.9414,0.0,0.0,0.0,0.0,0.0,0.0,0.0,0.0,0.0,0.0,0.0,0.0,0.0,0.0,0.0,0.0,0.0,0.0,0.0,0.0,0.0,0.0,0.0,0.0,0.0,0.0,0.0,0.0,0.0,0.0,0.0,0.0,0.0,0.0,0.0,0.0,0.0,0.0,0.0,0.0,0.0,0.0,0.0,0.0,0.0,0.0,0.0,0.0,0.0,0.0,0.0,0.0,0.0,0.9306,0.9435,0.0,0.9245,0.9442,0.9625,0.972,1.01,1.0392,1.0541,1.0738,1.0894,1.1002,1.1056,1.1111,1.1165,1.126,1.1362,1.1457,1.1552,1.1647,1.1742,1.1796,1.185,1.1904,1.1959,1.2013,1.2047,1.183,1.1832,1.1743,1.1743,1.183,1.1903,1.1851,1.1928,1.1839,0.0,0.0,0.0,1.2891,1.2891,1.3027,1.3437,1.3633,1.4141,1.5293,1.6218,1.7499,1.9302,2.0556,2.1693,2.2804,2.3594,2.3376,2.1749,1.9525,0.0,0.0,0.0,0.0,0.0,0.0,0.0,0.0,0.0,0.0,0.0,0.0,0.0,0.0,0.0,0.0,0.0,0.0,0.0,0.0,0.0,0.0,1.3868,0.0,0.0,0.0,0.0,0.0,0.0,0.0,0.0,0.0,0.0,0.0,0.0,0.0,0.0,0.0,0.0,0.0,0.0,0.0,0.0,0.0,0.0,0.0,0.0,0.0,0.0,0.0,0.0,0.0,0.0,0.0,0.0,0.0,0.0,0.0,0.9442,0.9388,0.9652,0.9754,0.9551,0.989,1.0168,1.027,1.0643,1.0914,1.1016,1.1111,1.1185,1.124,1.1287,1.1341,1.1389,1.1538,1.1667,1.1769,1.1864,1.1965,1.206,1.206,1.2088,1.2142,1.2142,1.2169,1.221,1.221,1.221,1.2203,1.2101,1.206,1.206,1.206,1.206,1.2067,0.0,0.0,1.293,1.293,1.293,1.3066,1.3477,1.3887,1.4729,1.6461,1.8223,1.9785,2.1094,2.2773,2.3789,2.3789,2.418,2.4258,2.3828,2.0727,0.0,0.0,0.0,0.0,0.0,0.0,0.0,0.0,0.0,0.0,0.0,0.0,0.0,0.0,0.0,0.0,0.0,0.0,0.0,0.0,0.0,0.0,1.6236,0.0,0.0,0.0,0.0,0.0,0.0,0.0,0.0,0.0,0.0,0.0,0.0,0.0,0.0,0.0,0.0,0.0,0.0,0.0,0.0,0.0,0.0,0.0,0.0,0.0,0.0,0.0,0.0,0.0,0.0,0.0,0.0,0.0,0.8981,0.934,0.9571,0.9429,0.993,1.0168,0.9876,1.0378,1.0731,1.0738,1.1002,1.1172,1.1179,1.1179,1.1253,1.1409,1.1558,1.1701,1.1837,1.1986,1.206,1.2067,1.2067,1.2074,1.2074,1.2074,1.2155,1.2298,1.2298,1.2372,1.2501,1.2501,1.2501,1.2474,1.2189,1.2074,1.2074,1.2074,1.2074,1.2094,1.3398,1.3574,1.3789,1.3789,1.3789,1.3926,1.4375,1.4531,1.5234,1.6973,1.8418,1.9785,2.1094,2.2773,2.3789,2.3789,2.4453,2.4707,2.4277,0.0,0.0,0.0,0.0,0.0,0.0,0.0,0.0,0.0,0.0,0.0,0.0,0.0,0.0,0.0,0.0,0.0,0.0,0.0,0.0,0.0,0.0,0.0,1.8408,0.0,0.0,0.0,0.0,0.0,0.0,0.0,0.0,0.0,0.0,0.0,0.0,0.0,0.0,0.0,0.0,0.0,0.0,0.0,0.0,0.0,0.0,0.0,0.0,0.0,0.0,0.0,0.0,0.0,0.0,0.0,0.0,0.9469,0.9429,0.9713,0.9958,1.0025,1.027,1.0446,1.0466,1.0724,1.0928,1.1036,1.1219,1.1375,1.1491,1.1592,1.1714,1.187,1.1918,1.1959,1.1999,1.204,1.2121,1.223,1.223,1.2284,1.2379,1.2379,1.2406,1.244,1.244,1.2467,1.2501,1.2501,1.2501,1.2494,1.2413,1.2379,1.2379,1.2379,1.2379,1.2386,1.3809,1.3912,1.4087,1.4087,1.4087,1.4277,1.4727,1.5078,1.6016,1.793,1.9141,2.0469,2.2129,2.3359,2.4121,2.4316,2.5117,2.5273,2.4473,0.0,0.0,0.0,0.0,0.0,0.0,0.0,0.0,0.0,0.0,0.0,0.0,0.0,0.0,0.0,0.0,0.0,0.0,0.0,0.0,0.0,0.0,0.0,1.9911,1.7929,1.6767,1.6005,1.5578,1.5057,1.4549,1.4482,0.0,0.0,0.0,0.0,0.0,0.0,0.0,0.0,0.0,0.0,0.0,0.0,0.0,0.0,0.0,0.0,0.0,0.0,0.0,0.0,0.0,0.0,0.0,0.0,0.9686,0.991,0.9971,1.0127,1.029,1.0446,1.0595,1.0744,1.0894,1.1043,1.1192,1.1341,1.1491,1.164,1.1796,1.1884,1.1972,1.206,1.2121,1.2155,1.2155,1.2216,1.2291,1.2379,1.2379,1.242,1.2501,1.2501,1.2501,0.0,1.2501,1.2501,1.2501,1.2501,1.2501,0.0,0.0,0.0,0.0,0.0,1.2501,1.2501,1.4165,1.4238,1.4223,1.4223,1.4223,1.4414,1.4785,1.5547,1.6836,1.9004,2.0039,2.1387,2.3555,2.4199,2.4648,2.5039,2.5879,2.5918,0.0,0.0,0.0,0.0,0.0,0.0,0.0,0.0,0.0,0.0,0.0,0.0,0.0,0.0,0.0,0.0,0.0,0.0,0.0,0.0,0.0,0.0,0.0,0.0,2.1188,1.9029,1.8009,1.7662,1.7141,1.658,1.6005,1.5524,0.0,0.0,0.0,0.0,0.0,0.0,0.0,0.0,0.0,0.0,0.0,0.0,0.0,0.0,0.0,0.0,0.0,0.0,0.0,0.0,0.0,0.0,0.0,0.0,1.0127,1.0378,1.0521,1.0555,1.0609,1.0731,1.088,1.1029,1.1172,1.1328,1.1477,1.1633,1.1775,1.1925,1.2081,0.0,0.0,0.0,0.0,1.2318,1.2318,1.244,1.2501,1.2501,1.2501,1.2501,1.2501,1.2501,1.2501,1.2501,1.2501,1.2515,1.2528,1.2508,1.2515,1.2528,1.2508,1.2501,1.2501,1.2501,1.2515,1.2528,1.4727,1.4941,1.5156,1.5156,1.5156,1.5195,1.5273,1.5723,1.6836,1.9004,2.0039,2.1387,2.3555,2.4473,2.498,2.5059,2.5879,2.6426,0.0,0.0,0.0,0.0,0.0,0.0,0.0,0.0,0.0,0.0,0.0,0.0,0.0,0.0,0.0,0.0,0.0,0.0,0.0,0.0,0.0,0.0,0.0,0.0,2.2927,2.0146,1.8931,1.8651,1.8531,1.8116,1.7635,1.7769,1.7128,1.6286,1.6286,0.0,0.0,0.0,0.0,0.0,0.0,0.0,0.0,0.0,0.0,0.0,0.0,0.0,0.0,0.0,0.0,0.0,0.0,0.0,0.0,1.0141,1.0439,1.069,1.0839,1.0962,1.1002,1.0914,1.1029,1.1179,1.1335,1.1484,1.1633,1.1782,1.1932,1.2088,1.2237,1.2244,0.0,1.2413,1.2447,1.2461,1.2461,1.2488,1.2501,1.2501,0.0,0.0,1.2501,1.2501,1.2501,1.2501,1.2501,1.2569,1.2678,1.2556,1.2576,1.2671,1.2549,1.2501,1.2501,1.2501,1.2576,1.2684,1.5137,1.5273,1.541,1.541,1.541,1.5488,1.5703,1.6309,1.7422,1.9355,2.0352,2.1641,2.3574,2.3984,2.4199,2.4414,2.5019,0.0,0.0,0.0,0.0,0.0,0.0,0.0,0.0,0.0,0.0,0.0,0.0,0.0,0.0,0.0,0.0,0.0,0.0,0.0,0.0,0.0,0.0,0.0,0.0,0.0,2.3487,2.0486,1.9279,1.9145,1.9145,1.8865,1.8504,1.8664,1.821,1.7595,1.7595,1.7088,1.638,0.0,0.0,0.0,0.0,0.0,0.0,0.0,0.0,0.0,0.0,0.0,0.0,0.0,0.0,0.9449,0.9673,0.0,1.0175,1.0555,1.0738,1.0887,1.1036,1.1185,1.1253,1.1179,1.1301,1.145,1.1599,1.1748,1.1904,1.2047,1.2128,1.2244,1.2386,1.2393,1.2427,1.2501,1.2501,1.2467,1.2393,1.2467,1.2427,1.2284,1.2433,1.2467,1.24,1.2467,1.2501,1.2501,1.2501,1.2549,1.261,1.2535,1.2549,1.261,1.2528,1.2596,1.2725,1.2644,1.2712,1.2834,1.541,1.541,1.541,1.541,1.541,1.5527,1.5879,1.668,1.7832,1.9453,2.0508,2.1719,2.3359,2.3223,2.3223,2.375,0.0,0.0,0.0,0.0,0.0,0.0,0.0,0.0,0.0,0.0,0.0,0.0,0.0,0.0,0.0,0.0,0.0,0.0,0.0,0.0,0.0,0.0,0.0,0.0,0.0,0.0,2.3933,2.0931,1.9707,1.9372,1.9372,1.9212,1.9011,1.9011,1.8811,1.8571,1.8571,1.8196,1.7649,1.7048,1.6673,0.0,0.0,0.0,0.0,0.0,0.0,0.0,0.0,0.0,0.949,0.9449,0.9591,0.9863,1.0127,1.0304,1.0534,1.0928,1.1016,1.1084,1.1233,1.1382,1.1491,1.1518,1.1606,1.1714,1.1864,1.2013,1.2155,1.2284,1.2318,1.2379,1.2494,1.2501,1.2501,1.2501,1.2474,1.2406,1.2291,1.2406,1.2338,1.2108,1.2372,1.244,1.2338,1.2447,1.2501,1.2501,1.2535,1.2528,1.2508,1.2569,1.2576,1.2549,1.2576,1.2739,1.2935,1.2752,1.2786,1.2901,1.541,1.541,1.541,1.541,1.541,1.543,1.5469,1.623,1.7285,1.8543,1.9863,2.1152,2.25,2.2617,2.291,0.0,0.0,0.0,0.0,0.0,0.0,0.0,0.0,0.0,0.0,0.0,0.0,0.0,0.0,0.0,0.0,0.0,0.0,0.0,0.0,0.0,0.0,0.0,0.0,0.0,0.0,0.0,2.548,2.2476,2.0587,1.9372,1.9372,1.9345,1.9319,1.9319,1.9118,1.8878,1.8878,1.8651,1.8263,1.7662,0.0,1.6764,0.0,0.0,0.0,1.7746,1.6981,1.5739,0.0,0.0,1.1711,1.0461,1.0283,1.0446,1.0616,1.0772,1.0934,1.1111,1.1253,1.1396,1.1545,1.1694,1.183,1.1972,1.1884,1.187,1.202,1.2176,1.2271,1.2291,1.2406,1.2488,1.2501,1.2501,1.2501,1.2501,1.2379,1.2305,1.2291,1.2305,1.2298,1.2271,1.2427,1.2494,1.2481,1.2494,1.2501,1.2508,1.2644,1.263,1.2522,1.28,1.2827,1.2718,1.2854,1.2929,1.2929,1.2637,1.2623,1.2752,1.541,1.541,1.541,1.541,1.541,1.5664,1.6445,1.666,1.7285,1.8809,1.9707,2.0586,2.166,2.1777,2.2012,2.2637,0.0,0.0,0.0,0.0,0.0,0.0,0.0,0.0,0.0,0.0,0.0,0.0,0.0,0.0,0.0,0.0,0.0,0.0,0.0,0.0,0.0,0.0,0.0,0.0,0.0,0.0,2.4488,2.2363,2.0702,1.9372,1.9372,1.9252,0.0,0.0,1.9172,1.8958,1.9132,1.8985,1.8624,1.8023,1.7769,0.0,1.727,0.0,0.0,0.0,1.8184,1.6985,1.6684,1.5258,1.3747,1.2387,1.2211,1.1984,1.1083,1.1029,1.1124,0.0,1.1423,1.1572,1.1721,1.187,1.202,1.2176,1.2135,1.2121,1.2189,1.2325,1.2413,1.2413,1.2467,1.2501,1.2501,1.2501,1.2467,1.2379,1.24,1.2332,1.2155,1.2325,1.2325,1.2162,1.2393,1.2461,1.2379,1.2467,1.2501,1.2508,1.2569,1.2562,1.2522,1.2739,1.2786,1.2745,1.2901,1.2963,1.2942,1.2813,1.2861,1.299,1.541,1.541,1.5488,1.5742,1.5664,1.5918,1.6875,1.6953,1.7441,1.8906,1.9473,2.0039,2.0781,2.0977,2.123,2.166,2.3262,2.4863,0.0,0.0,0.0,0.0,0.0,0.0,0.0,0.0,0.0,0.0,0.0,0.0,0.0,0.0,0.0,0.0,0.0,0.0,0.0,0.0,0.0,0.0,0.0,0.0,2.4267,2.2814,2.1141,1.9676,1.9347,1.8985,0.0,0.0,1.8718,1.8704,1.8838,1.8838,1.8718,1.829,1.817,1.8277,1.8784,0.0,0.0,1.9786,1.9171,1.8435,1.8006,1.7168,1.5895,1.3936,1.3587,1.3206,1.1607,1.126,1.1341,1.1491,1.164,1.1789,1.1938,1.2054,1.2182,1.2332,1.2345,1.2345,1.2345,1.244,1.2501,1.2501,1.2501,1.2522,1.2562,1.2522,1.2474,1.2413,1.2433,1.2338,1.2128,1.2338,1.2338,1.2128,1.2379,1.2447,1.2352,1.2494,1.2562,1.2569,1.261,1.263,1.2637,1.2745,1.2793,1.2807,1.2915,1.2963,1.2969,1.3003,1.3057,1.3112,1.541,1.541,1.5684,1.648,1.6328,1.6115,1.6154,1.6816,1.7676,1.8535,1.9043,1.9473,1.9902,2.0332,2.0762,2.1211,2.2812,2.4531,0.0,0.0,0.0,0.0,0.0,0.0,0.0,0.0,0.0,0.0,0.0,0.0,0.0,0.0,0.0,0.0,0.0,0.0,0.0,0.0,0.0,0.0,0.0,0.0,2.5827,2.4267,2.2403,2.0426,1.9057,0.0,0.0,0.0,1.7595,1.8023,1.7729,1.8036,0.0,1.8477,1.8477,0.0,0.0,0.0,1.984,2.0147,2.0641,2.0628,1.9314,1.8853,1.8005,1.4638,1.4011,1.3384,1.1769,1.1504,1.1653,1.1796,1.1945,1.2101,1.2257,1.2277,1.2338,1.2481,1.2494,1.2494,0.0,1.2501,1.2501,1.2501,1.2501,1.2569,1.2718,1.2583,1.2569,1.2712,1.244,1.2291,1.2284,1.2291,1.2291,1.2284,1.2433,1.2501,1.2501,1.2651,1.2725,1.2732,1.2881,1.2949,1.2949,1.2949,1.2956,1.2956,1.2963,1.2963,1.2976,1.3119,1.3085,1.2969,1.5781,1.5605,1.5684,1.6582,1.6602,1.6602,1.6894,1.7187,1.7695,1.8465,1.9258,0.0,0.0,0.0,0.0,0.0,2.2539,2.3867,2.5,0.0,0.0,0.0,0.0,0.0,0.0,0.0,0.0,0.0,0.0,0.0,0.0,0.0,0.0,0.0,0.0,0.0,0.0,0.0,0.0,0.0,0.0,0.0,2.4267,2.1828,2.0074,1.8766,0.0,0.0,0.0,0.0,0.0,0.0,1.7488,0.0,1.7635,1.7836,1.8317,0.0,0.0,0.0,2.0494,2.0989,2.1403,2.158,2.1136,2.1031,2.0302,1.8123,1.6692,1.5165,1.3571,1.2357,1.1633,1.1681,1.1986,1.223,1.2284,1.2372,1.2447,1.2494,1.2501,0.0,0.0,0.0,0.0,1.2501,1.2596,1.263,1.2583,1.2623,1.2589,1.244,1.2433,1.2386,1.2291,1.2386,1.2481,1.2583,1.2732,1.2807,1.2807,1.2861,1.2881,1.2888,1.2935,1.2963,1.2969,1.3064,1.3105,1.3112,1.3214,1.3254,1.3261,1.3308,1.3295,1.3254,0.0,0.0,0.0,1.6816,1.6973,0.0,0.0,0.0,0.0,0.0,0.0,0.0,0.0,0.0,0.0,0.0,0.0,2.3066,0.0,0.0,0.0,0.0,0.0,0.0,0.0,0.0,0.0,0.0,0.0,0.0,0.0,0.0,0.0,0.0,0.0,0.0,0.0,0.0,0.0,0.0,0.0,0.0,2.2767,2.0424,1.8605,0.0,0.0,0.0,0.0,0.0,0.0,0.0,0.0,1.7355,1.7702,1.8103,1.8771,1.9519,2.0107,2.0615,2.1109,2.159,2.1844,2.2017,2.2111,2.2138,2.1671,2.0167,1.8096,1.6226,1.4632,1.2858,1.1694,1.1694,1.2074,1.2345,1.2298,1.2413,1.2501,1.2501,1.2501,1.2522,0.0,0.0,0.0,1.2583,1.2725,1.2773,1.2671,1.2705,1.2644,1.2454,1.2481,1.2481,1.2447,1.2535,1.2657,1.2813,1.2915,1.2963,1.2963,1.3017,1.3037,1.3037,1.3091,1.3119,1.3125,1.3214,1.3254,1.3261,1.3363,1.3437,1.3485,1.3485,1.3512,1.3546,0.0,0.0,0.0,0.0,0.0,0.0,0.0,0.0,0.0,0.0,0.0,0.0,0.0,0.0,0.0,0.0,0.0,0.0,0.0,0.0,0.0,0.0,0.0,0.0,0.0,0.0,0.0,0.0,0.0,0.0,0.0,0.0,0.0,0.0,0.0,0.0,0.0,0.0,0.0,0.0,0.0,0.0,2.1347,2.0182,0.0,0.0,0.0,0.0,0.0,0.0,0.0,0.0,1.6286,1.7368,1.8651,1.9225,1.9813,2.0401,2.0975,2.1363,2.167,2.1937,2.2017,2.2098,2.2378,2.2458,2.1984,2.0545,1.8451,1.656,0.0,0.0,1.1823,1.1823,1.2203,1.2454,1.2318,1.242,1.2508,0.0,0.0,0.0,0.0,0.0,0.0,1.2752,0.0,1.2963,1.2949,1.282,1.2732,1.2718,1.2583,1.2583,1.2725,1.2745,1.2827,1.2969,1.2983,1.2983,1.299,1.3125,1.3186,1.3193,1.3336,1.3403,1.341,1.341,1.3417,1.3424,1.3424,1.3512,1.3641,1.3641,1.3722,1.3797,0.0,0.0,0.0,0.0,0.0,0.0,0.0,0.0,0.0,0.0,0.0,0.0,0.0,0.0,0.0,0.0,0.0,0.0,0.0,0.0,0.0,0.0,0.0,0.0,0.0,0.0,0.0,0.0,0.0,0.0,0.0,0.0,0.0,0.0,0.0,0.0,0.0,0.0,0.0,0.0,0.0,0.0,2.0061,0.0,0.0,0.0,0.0,0.0,0.0,0.0,0.0,0.0,1.7756,1.849,1.9212,1.9586,2.0254,2.0962,2.1336,2.1817,2.2218,2.2285,2.2472,2.2659,2.2739,2.2926,2.2842,2.2049,1.9289,1.696,0.0,0.0,0.0,1.1674,1.2142,0.0,1.2454,1.2481,0.0,1.2657,0.0,1.2732,1.2888,1.2996,0.0,0.0,1.3098,1.3024,1.28,1.2861,1.28,1.2569,1.263,1.2691,1.2732,1.2949,1.3078,1.3119,1.3234,1.3288,1.3288,1.3322,1.3342,1.3342,1.3383,1.3464,1.3573,1.3573,1.3634,1.3729,1.3729,1.3749,1.3783,1.3783,1.381,1.3831,0.0,0.0,0.0,0.0,0.0,0.0,0.0,0.0,0.0,0.0,0.0,0.0,0.0,0.0,0.0,0.0,0.0,0.0,0.0,0.0,0.0,0.0,0.0,0.0,0.0,0.0,0.0,0.0,0.0,0.0,0.0,0.0,0.0,0.0,0.0,0.0,0.0,0.0,0.0,0.0,0.0,0.0,0.0,0.0,0.0,0.0,0.0,0.0,0.0,0.0,0.0,1.825,1.8731,1.9185,1.9666,2.0214,0.0,2.139,2.1817,2.2271,2.2619,2.2619,2.2739,2.2832,2.2699,2.2806,2.2519,2.136,1.8856,0.0,0.0,0.0,0.0,0.0,0.0,0.0,1.242,1.2522,1.263,0.0,1.2793,0.0,1.3037,1.3125,1.3173,0.0,1.3234,1.3146,1.2847,1.2976,1.2915,1.261,1.2752,1.2861,1.2922,1.3152,1.3275,1.3275,1.3363,1.3403,1.3403,1.3403,1.3437,1.3498,0.0,1.3587,1.3722,1.3722,1.377,1.3838,1.3838,1.3878,1.3939,1.3939,1.3987,1.4041,0.0,0.0,0.0,0.0,0.0,0.0,0.0,0.0,0.0,0.0,2.0352,0.0,0.0,0.0,0.0,0.0,0.0,0.0,0.0,0.0,0.0,0.0,0.0,0.0,0.0,0.0,0.0,0.0,0.0,0.0,0.0,0.0,0.0,0.0,0.0,0.0,0.0,0.0,0.0,0.0,0.0,0.0,0.0,0.0,0.0,0.0,0.0,0.0,0.0,0.0,1.8998,1.9158,1.9492,1.98,2.0187,2.0989,2.143,2.179,2.2325,2.2672,2.2859,2.2859,2.2899,2.2832,2.2498,2.2445,2.1962,2.0099,0.0,1.5909,1.4494,0.0,1.1599,1.164,0.0,1.244,1.2359,1.2569,1.2745,1.2786,1.2908,1.3044,1.3186,1.32,1.3214,1.3234,1.3356,1.3302,1.3003,1.3105,1.3051,1.28,1.2922,1.3057,1.32,1.3336,1.3403,1.3403,1.3403,1.341,1.3431,1.3431,1.3512,1.3654,0.0,0.0,1.3871,1.3871,1.3885,1.3905,1.3905,1.3987,1.4102,1.4102,1.4183,1.4299,0.0,0.0,0.0,0.0,0.0,0.0,0.0,0.0,0.0,0.0,2.0664,2.0312,0.0,0.0,0.0,0.0,0.0,0.0,0.0,0.0,0.0,0.0,0.0,0.0,0.0,0.0,0.0,0.0,0.0,0.0,0.0,0.0,0.0,0.0,0.0,0.0,0.0,0.0,0.0,0.0,0.0,0.0,0.0,0.0,0.0,0.0,0.0,0.0,0.0,0.0,1.9412,2.0094,2.0641,2.1015,2.1323,2.1724,2.2044,2.2338,2.2699,2.2819,2.2859,2.2859,2.306,2.31,2.2552,2.2605,0.0,0.0,0.0,1.6257,1.5776,1.3417,1.1511,1.1755,0.0,0.0,0.0,0.0,1.282,0.0,0.0,0.0,0.0,0.0,0.0,0.0,0.0,1.3458,1.3152,1.3159,1.3152,1.3098,1.3119,1.3207,1.3363,1.339,1.3403,1.3403,1.3403,1.3464,1.3587,1.3587,1.3668,1.3804,1.3804,0.0,1.4034,1.4034,1.4109,1.4217,1.4217,1.4238,1.4258,1.4258,1.4278,1.4299,0.0,0.0,0.0,0.0,0.0,0.0,0.0,2.1035,2.1973,2.3066,2.2656,2.2246,2.2246,2.2031,2.1894,0.0,0.0,0.0,0.0,0.0,0.0,0.0,0.0,0.0,0.0,0.0,0.0,0.0,0.0,0.0,0.0,0.0,0.0,0.0,0.0,0.0,0.0,0.0,0.0,0.0,0.0,0.0,0.0,0.0,0.0,0.0,0.0,0.0,0.0,0.0,1.9639,2.0361,2.1109,2.1443,2.1643,2.2084,2.2311,2.2485,2.2779,2.2859,2.2899,2.306,2.322,2.3166,2.2552,0.0,0.0,0.0,0.0,1.5424,1.3575,0.0,0.0,0.0,0.0,0.0,0.0,0.0,0.0,0.0,0.0,0.0,0.0,0.0,0.0,0.0,0.0,1.3566,1.3417,1.3336,1.3295,1.3295,1.3295,1.3329,1.3403,1.3403,1.3403,1.3403,1.3485,1.3559,1.3634,1.3702,1.3817,1.396,1.396,0.0,1.419,1.419,1.4231,1.4299,1.4299,1.4299,1.4299,1.4299,1.4299,1.4312,0.0,0.0,0.0,0.0,0.0,0.0,0.0,2.2266,2.3184,2.4648,2.4766,2.4453,2.3789,2.3164,2.2617,0.0,0.0,0.0,0.0,0.0,0.0,0.0,0.0,0.0,0.0,0.0,0.0,0.0,0.0,0.0,0.0,0.0,0.0,0.0,0.0,0.0,0.0,0.0,0.0,0.0,0.0,0.0,0.0,0.0,0.0,0.0,0.0,0.0,0.0,0.0,1.9666,2.0201,2.1082,2.1496,2.1737,2.2191,2.2418,2.2565,2.2806,2.2913,2.302,2.326,2.342,2.3327,2.2592,2.2245,0.0,0.0,0.0,1.4648,1.1776,0.0,0.0,0.0,0.0,0.0,0.0,0.0,0.0,0.0,0.0,0.0,0.0,0.0,0.0,0.0,0.0,0.0,1.3587,1.3498,1.3437,1.3403,1.3403,1.3403,1.3403,1.3437,1.3451,1.3451,1.36,1.3688,1.3729,1.3838,1.3973,1.4122,1.4122,0.0,0.0,1.4299,1.4299,1.4299,1.4299,1.4299,1.4306,1.4333,1.4346,1.4367,0.0,0.0,0.0,0.0,0.0,0.0,0.0,2.2324,2.3848,2.5937,2.5859,2.5586,2.5508,2.4414,2.3496,0.0,0.0,0.0,0.0,0.0,0.0,0.0,0.0,0.0,0.0,0.0,0.0,0.0,0.0,0.0,0.0,0.0,0.0,0.0,0.0,0.0,0.0,0.0,0.0,0.0,0.0,0.0,0.0,0.0,0.0,0.0,0.0,0.0,0.0,0.0,0.0,1.9599,2.0481,2.1309,2.1951,2.2004,0.0,0.0,2.2859,2.3073,2.3287,2.3313,2.3728,2.3821,2.2686,0.0,0.0,1.8794,1.6764,1.508,1.3511,0.0,0.0,0.0,0.0,0.0,0.0,0.0,0.0,0.0,0.0,0.0,0.0,0.0,0.0,0.0,0.0,0.0,1.3444,1.3539,1.3546,1.3403,1.3403,1.3403,1.3403,1.3539,1.3607,1.3607,1.3749,1.3892,1.4034,1.4048,1.4136,1.4278,1.4278,0.0,0.0,1.4299,1.4299,1.4299,1.4299,1.4299,1.4319,1.4441,1.4489,1.4516,0.0,0.0,0.0,0.0,0.0,0.0,2.1406,2.25,2.4023,2.6445,2.6621,2.6504,2.6504,2.5586,2.4473,2.3242,0.0,0.0,0.0,0.0,0.0,0.0,0.0,0.0,0.0,0.0,0.0,0.0,0.0,0.0,0.0,0.0,0.0,0.0,0.0,0.0,0.0,0.0,0.0,0.0,0.0,0.0,0.0,0.0,0.0,0.0,0.0,0.0,0.0,0.0,0.0,0.0,1.9987,2.0748,0.0,0.0,2.2271,2.2672,2.3046,2.3233,2.3407,2.3768,2.3901,2.3728,2.2873,0.0,0.0,1.7455,1.5357,1.3509,1.2079,0.0,0.0,0.0,0.0,0.0,0.0,0.0,0.0,0.0,0.0,0.0,0.0,0.0,0.0,0.0,0.0,0.0,1.3668,1.3641,1.3559,1.3403,1.3403,1.3444,1.3539,1.36,1.3675,1.3756,1.3905,1.4014,1.4075,1.4163,1.4245,1.4299,1.4299,0.0,0.0,1.4299,1.4299,1.4306,1.4394,1.4428,1.4441,1.459,1.4652,1.4672,0.0,0.0,0.0,0.0,0.0,1.9883,2.1621,2.2715,2.418,2.6523,2.6836,2.6836,2.6836,2.5937,2.4902,2.3809,2.3359,0.0,0.0,0.0,0.0,0.0,0.0,0.0,0.0,0.0,0.0,0.0,0.0,0.0,0.0,0.0,0.0,0.0,0.0,0.0,0.0,0.0,0.0,0.0,0.0,0.0,0.0,0.0,0.0,0.0,0.0,0.0,0.0,0.0,0.0,0.0,0.0,0.0,0.0,0.0,2.2191,2.2659,2.318,2.346,2.3688,2.4102,2.4048,2.3714,0.0,0.0,0.0,1.6405,1.4373,1.2523,1.0962,0.0,0.0,0.0,0.0,0.0,0.0,0.0,0.0,0.0,0.0,0.0,0.0,0.0,0.0,0.0,0.0,0.0,1.3905,1.377,1.3641,1.3532,1.3532,1.358,1.3688,1.3736,1.381,1.3912,1.4068,1.4136,1.4143,1.4251,1.4299,1.4299,0.0,0.0,0.0,1.4346,1.436,1.438,1.4523,1.4577,1.4597,1.4753,1.4808,1.4828,0.0,0.0,0.0,0.0,0.0,0.0,2.1621,2.2969,2.4414,2.6172,2.6387,2.6387,2.6387,2.5215,2.459,2.5,2.3867,0.0,0.0,0.0,0.0,0.0,0.0,0.0,0.0,0.0,2.4679,2.3683,2.2639,2.2022,0.0,0.0,0.0,0.0,0.0,0.0,0.0,0.0,0.0,0.0,0.0,0.0,0.0,0.0,0.0,0.0,0.0,0.0,0.0,0.0,0.0,0.0,0.0,0.0,0.0,0.0,2.2178,2.2926,2.3247,2.3754,2.4195,2.4209,2.4195,2.3968,0.0,0.0,0.0,1.6447,1.4493,1.28,1.0982,1.0846,1.1043,0.0,0.0,0.0,0.0,0.0,0.0,0.0,0.0,0.0,0.0,0.0,0.0,0.0,0.0,0.0,1.4068,1.3926,1.3838,1.3838,1.3838,1.3838,1.3838,1.3987,1.4068,1.4075,1.4224,1.4299,1.4299,1.4299,1.4299,0.0,0.0,0.0,0.0,1.4448,1.4509,1.4523,1.4679,1.474,1.4753,1.4909,1.497,1.4991,0.0,0.0,0.0,0.0,0.0,0.0,0.0,2.1836,2.3008,2.4434,2.4863,2.5273,2.5879,2.5019,2.459,2.5039,2.416,0.0,0.0,0.0,0.0,0.0,0.0,0.0,0.0,2.5664,2.4908,2.2656,2.2507,2.1459,1.947,1.8523,0.0,0.0,0.0,0.0,0.0,0.0,0.0,0.0,0.0,0.0,0.0,0.0,0.0,0.0,0.0,0.0,0.0,0.0,0.0,0.0,0.0,0.0,0.0,2.0481,0.0,2.2071,2.2565,2.2993,2.3287,2.3287,2.314,2.2859,2.2378,0.0,0.0,0.0,0.0,1.1372,1.085,1.0758,1.0955,1.1463,0.0,0.0,0.0,0.0,0.0,0.0,0.0,0.0,0.0,0.0,0.0,0.0,0.0,0.0,1.4367,1.4238,1.4055,1.3844,1.3838,1.3892,1.3994,1.4048,1.4122,1.4231,1.4278,1.4299,1.4299,1.4299,0.0,0.0,0.0,0.0,0.0,1.4489,1.457,1.4685,1.4835,1.4896,1.4916,1.5065,1.5113,1.512,0.0,0.0,0.0,0.0,0.0,0.0,0.0,2.1309,2.2227,2.3184,2.3672,2.4277,2.5137,2.4453,2.4316,2.5234,2.4531,0.0,0.0,0.0,0.0,0.0,0.0,0.0,2.5059,2.5605,2.4908,2.2928,2.2673,2.1464,1.9346,1.8617,1.8263,1.8036,0.0,0.0,0.0,0.0,0.0,0.0,0.0,0.0,0.0,0.0,0.0,0.0,0.0,0.0,0.0,0.0,0.0,0.0,0.0,0.0,0.0,0.0,2.0535,2.1229,0.0,2.2552,2.2859,2.2859,2.2645,0.0,0.0,0.0,0.0,0.0,0.0,0.0,0.0,1.1157,1.0948,1.1375,1.1592,0.0,0.0,0.0,0.0,0.0,0.0,0.0,0.0,0.0,0.0,0.0,0.0,0.0,1.459,1.4516,1.438,1.4183,1.4075,1.4061,1.4156,1.4156,1.4204,1.4299,1.4299,1.4299,1.4299,1.4299,0.0,0.0,0.0,0.0,0.0,1.4658,1.474,1.4841,1.4991,1.5052,1.5059,1.5153,1.5181,1.5181,0.0,0.0,0.0,0.0,0.0,0.0,0.0,2.1289,2.1992,2.2422,2.2852,2.3418,2.4238,2.3613,2.3809,2.5488,0.0,0.0,0.0,0.0,0.0,0.0,0.0,0.0,2.5,2.5117,2.4965,2.4314,2.3161,2.1973,2.0783,1.9444,1.8624,1.8076,1.8063,1.7716,0.0,0.0,0.0,0.0,0.0,0.0,0.0,0.0,0.0,0.0,0.0,0.0,0.0,0.0,0.0,0.0,0.0,0.0,0.0,0.0,0.0,0.0,0.0,2.2271,2.2726,2.2712,2.2512,2.2258,0.0,0.0,0.0,0.0,0.0,0.0,0.0,0.0,1.1138,1.1165,0.0,0.0,0.0,0.0,0.0,0.0,0.0,0.0,0.0,0.0,0.0,0.0,0.0,0.0,1.4746,1.4753,1.4753,1.474,1.4462,1.4319,1.4319,1.4306,1.4299,1.4299,1.4299,1.4299,1.4299,1.4312,0.0,0.0,0.0,0.0,0.0,1.4909,1.4977,1.4997,1.5133,1.5181,1.5181,1.5181,1.5181,1.5181,0.0,0.0,0.0,0.0,0.0,0.0,0.0,0.0,0.0,0.0,2.2402,2.2871,2.3379,2.3262,2.3574,0.0,0.0,0.0,0.0,0.0,0.0,0.0,0.0,0.0,2.4551,2.5566,2.5591,2.4729,2.3911,2.2799,2.1347,1.9652,1.8731,1.837,1.8143,1.7716,0.0,0.0,0.0,0.0,0.0,0.0,0.0,0.0,0.0,0.0,1.8637,1.8865,0.0,0.0,0.0,0.0,0.0,0.0,0.0,0.0,1.9679,1.996,2.0241,0.0,2.147,2.1243,2.1309,2.1403,0.0,0.0,0.0,0.0,0.0,0.0,0.0,0.0,0.0,0.0,0.0,0.0,0.0,0.0,0.0,0.0,0.0,0.0,0.0,0.0,0.0,0.0,0.0,1.4882,1.4916,1.4916,1.4862,1.474,1.4557,1.4462,1.4462,1.4353,1.4299,1.4299,1.4299,1.4299,1.4306,1.4414,0.0,0.0,0.0,0.0,1.4916,1.4957,1.5031,1.514,1.5167,1.5181,1.5181,1.5181,1.5181,1.5181,0.0,0.0,0.0,0.0,0.0,0.0,0.0,0.0,0.0,0.0,0.0,2.2598,2.2832,2.3027,0.0,0.0,0.0,0.0,0.0,0.0,0.0,0.0,0.0,2.3789,2.4414,2.5312,2.5457,2.4769,2.3962,2.2879,2.1586,1.986,1.8891,1.8464,1.7889,1.7382,0.0,0.0,0.0,0.0,0.0,0.0,0.0,0.0,0.0,0.0,1.8758,1.9011,0.0,1.9319,1.9452,1.9546,0.0,0.0,0.0,0.0,1.9479,1.9599,1.9599,2.0241,2.0869,2.0722,2.0802,2.0909,2.0909,0.0,0.0,0.0,0.0,0.0,0.0,0.0,0.0,0.0,0.0,0.0,0.0,0.0,0.0,0.0,0.0,0.0,0.0,0.0,0.0,0.0,0.0,1.4997,1.5065,1.5065,1.5031,1.4943,1.4733,1.455,1.4414,1.434,1.4299,1.4299,1.4367,1.4394,1.4401,1.455,1.4652,0.0,0.0,0.0,1.5065,1.5065,1.5113,1.5181,1.5181,1.5181,1.5181,1.5181,1.5181,1.5181,0.0,0.0,0.0,0.0,0.0,0.0,0.0,0.0,0.0,0.0,0.0,0.0,0.0,0.0,0.0,0.0,0.0,0.0,0.0,0.0,0.0,0.0,2.3555,2.3574,2.4492,2.4883,2.502,2.4841,2.3844,2.2672,2.166,2.0109,1.9092,1.845,1.7649,1.7114,0.0,0.0,0.0,0.0,0.0,0.0,0.0,0.0,0.0,0.0,0.0,0.0,0.0,1.9372,1.9533,1.9693,1.9439,0.0,0.0,0.0,0.0,0.0,1.9479,2.0107,2.0722,2.0628,2.0681,2.0735,0.0,0.0,0.0,0.0,0.0,0.0,0.0,0.0,0.0,0.0,0.0,0.0,0.0,0.0,0.0,0.0,0.0,0.0,0.0,0.0,0.0,0.0,0.0,1.5424,1.5174,1.5181,1.5174,1.5153,1.4882,1.4611,1.4333,1.4312,1.4299,1.4299,1.4441,1.4509,1.4516,1.4692,1.4848,1.497,0.0,0.0,1.5181,1.5181,1.5181,1.5181,1.5181,1.5181,1.5181,1.5181,1.5181,1.5181,0.0,0.0,0.0,0.0,0.0,0.0,0.0,0.0,0.0,0.0,0.0,0.0,0.0,0.0,0.0,0.0,0.0,0.0,0.0,0.0,0.0,2.3887,2.3398,2.3711,2.4941,2.5039,2.5153,2.536,2.4107,2.3022,2.1873,2.0413,1.9292,1.8477,1.8076,1.7742,1.7488,1.805,0.0,0.0,0.0,0.0,0.0,0.0,0.0,0.0,0.0,0.0,0.0,1.9372,1.9399,1.9426,1.9386,0.0,0.0,0.0,0.0,0.0,1.996,2.0561,2.0922,2.0428,2.0681,2.1042,0.0,0.0,0.0,0.0,0.0,0.0,0.0,0.0,0.0,0.0,0.0,0.0,0.0,0.0,0.0,0.0,0.0,0.0,0.0,0.0,0.0,0.0,0.0,0.0,1.5368,1.5181,1.5126,1.5011,1.4835,1.4658,1.4482,1.436,1.4299,1.4299,1.4441,1.4509,1.4523,1.4808,1.495,1.4977,0.0,1.516,1.5181,1.5181,1.5181,1.5181,1.5181,1.5181,1.5181,1.5181,1.5181,1.5181,0.0,0.0,0.0,0.0,0.0,0.0,0.0,0.0,0.0,0.0,0.0,0.0,0.0,0.0,0.0,0.0,0.0,0.0,0.0,0.0,2.4121,2.4121,2.416,2.4453,2.5059,2.5762,2.5675,2.465,2.453,2.3395,2.13,1.9965,1.9025,1.8464,1.8009,1.7716,1.7622,1.8237,0.0,0.0,0.0,0.0,0.0,0.0,0.0,0.0,0.0,0.0,0.0,0.0,1.9466,1.9573,1.9412,0.0,0.0,0.0,0.0,0.0,1.9693,2.0187,2.0641,2.0695,2.1269,0.0,0.0,0.0,0.0,0.0,0.0,0.0,0.0,0.0,0.0,0.0,0.0,0.0,0.0,0.0,0.0,0.0,0.0,0.0,0.0,0.0,0.0,0.0,0.0,0.0,1.5181,1.5181,1.5153,1.5086,1.4862,1.4706,1.4638,1.4489,1.4414,1.4414,1.4563,1.4679,1.4767,1.4984,1.5086,1.5086,0.0,1.5181,1.5181,1.5181,1.5181,1.5181,1.5181,1.5181,1.5181,1.5181,1.5181,1.5181,0.0,0.0,0.0,0.0,0.0,0.0,0.0,0.0,0.0,0.0,0.0,0.0,0.0,0.0,0.0,0.0,0.0,0.0,0.0,2.3848,2.4277,2.4277,2.4883,2.5312,2.5527,2.6083,2.5718,2.4269,2.4537,2.3293,2.0655,1.9613,1.8905,1.8464,1.7929,1.7729,1.7822,1.829,1.8571,1.8731,0.0,0.0,0.0,0.0,0.0,0.0,0.0,0.0,0.0,0.0,0.0,0.0,0.0,0.0,0.0,1.9439,1.9372,1.9399,1.9533,1.9947,2.0481,0.0,0.0,0.0,0.0,0.0,0.0,0.0,0.0,0.0,0.0,0.0,0.0,0.0,0.0,0.0,0.0,0.0,0.0,0.0,0.0,0.0,0.0,0.0,0.0,0.0,0.0,0.0,1.5181,1.5181,1.5181,1.5181,1.4896,1.476,1.4794,1.4604,1.4509,1.4516,1.4706,1.4855,1.4977,1.512,1.5181,1.5181,1.5181,1.5181,1.5181,1.5181,1.5181,1.5181,1.5181,1.5181,1.5181,1.5181,1.5181,1.5181,0.0,0.0,0.0,0.0,0.0,0.0,0.0,0.0,0.0,0.0,0.0,0.0,0.0,0.0,0.0,0.0,0.0,0.0,0.0,2.3574,2.3828,2.3828,2.5019,2.6055,2.6855,2.5478,2.475,2.4629,2.3488,2.2119,2.0668,2.0027,1.9292,1.8477,1.8156,1.817,1.8424,1.8477,1.8811,1.9305,1.9345,0.0,0.0,0.0,0.0,0.0,0.0,0.0,0.0,0.0,0.0,0.0,0.0,0.0,1.9399,1.9372,1.9372,1.9492,2.0027,2.0401,0.0,0.0,0.0,0.0,0.0,0.0,0.0,0.0,0.0,0.0,0.0,0.0,0.0,0.0,0.0,0.0,0.0,0.0,0.0,0.0,0.0,0.0,0.0,0.0,0.0,0.0,0.0,0.0,1.5368,1.5181,1.5181,1.5181,1.4896,1.4808,1.495,1.4658,1.4509,1.4516,1.4814,1.4964,1.4977,1.512,1.5181,1.5181,1.5181,1.5181,1.5181,1.5181,1.5181,1.5181,1.5181,1.5181,1.5181,1.5181,1.5181,1.5181,0.0,0.0,0.0,0.0,0.0,0.0,0.0,0.0,0.0,0.0,0.0,0.0,0.0,0.0,0.0,0.0,0.0,0.0,0.0,2.3555,2.4023,2.457,2.5586,2.6006,2.5703,2.5827,2.5718,2.5659,2.3245,2.1532,2.0655,1.9706,1.8985,1.8464,1.7983,1.8036,1.849,1.849,1.8824,1.9372,1.9372,1.9185,0.0,0.0,0.0,0.0,0.0,0.0,0.0,0.0,1.9212,1.9372,1.9372,1.9372,1.9372,1.9372,1.9372,1.9412,1.9639,2.0307,0.0,0.0,0.0,0.0,0.0,0.0,0.0,0.0,0.0,0.0,0.0,0.0,0.0,0.0,0.0,0.0,0.0,0.0,0.0,0.0,0.0,0.0,0.0,0.0,0.0,0.0,0.0,0.0,0.0,1.6104,1.514,1.5052,1.5025,1.4957,1.4828,1.4896,1.4882,1.4801,1.4916,1.5018,1.5106,1.516,1.5181,1.5181,1.5181,1.5181,1.5181,1.5181,1.5181,1.5181,1.5181,1.5181,1.5181,1.5181,1.5181,1.5181,0.0,0.0,0.0,0.0,0.0,0.0,0.0,0.0,0.0,0.0,0.0,0.0,0.0,0.0,0.0,0.0,0.0,0.0,2.3125,2.3418,2.3906,2.4629,2.5237,2.5327,2.4778,2.485,2.5028,2.504,2.268,2.1109,2.0508,1.9533,1.8905,1.8611,1.809,1.8156,1.8624,1.8531,1.8824,1.9359,1.9265,1.9158,0.0,0.0,0.0,0.0,0.0,0.0,0.0,0.0,1.9065,1.9239,1.9332,1.9372,1.9372,1.9372,1.9559,1.9786,1.9786,2.0428,0.0,0.0,0.0,0.0,0.0,0.0,0.0,0.0,0.0,0.0,0.0,0.0,0.0,0.0,0.0,0.0,0.0,0.0,0.0,0.0,0.0,0.0,0.0,0.0,0.0,0.0,0.0,0.0,0.0,1.7211,1.5896,1.5113,1.5113,1.5065,1.495,1.5059,1.5086,1.5038,1.5038,1.5086,1.5181,1.5181,1.5181,1.5181,1.5181,1.5181,1.5181,1.5181,1.5181,1.5181,1.5181,1.5181,1.5181,1.5181,1.5181,1.5181,0.0,0.0,0.0,0.0,0.0,0.0,0.0,0.0,2.3301,2.373,2.3789,0.0,0.0,0.0,0.0,0.0,0.0,0.0,2.3105,2.3144,2.334,2.3769,2.3743,2.3863,2.426,2.248,2.1915,2.2483,2.1548,2.0802,2.0214,1.9626,1.9199,0.0,0.0,0.0,1.8905,1.8611,1.8824,1.9332,1.9038,1.9105,1.9332,0.0,0.0,0.0,0.0,0.0,0.0,0.0,1.8918,1.8971,1.9279,1.9372,1.9372,1.9372,1.9987,2.0668,2.0668,2.0882,0.0,0.0,0.0,0.0,0.0,0.0,0.0,0.0,0.0,0.0,0.0,0.0,0.0,0.0,0.0,0.0,0.0,0.0,0.0,0.0,0.0,0.0,0.0,0.0,0.0,0.0,0.0,0.0,0.0,1.8871,1.785,1.5595,1.5126,1.512,1.5404,1.512,1.5045,1.5181,1.5181,1.5181,1.5181,1.5181,1.5181,1.5181,1.5181,1.5181,1.5181,1.5181,1.5181,1.5181,1.5181,1.5181,1.5181,1.5181,1.5181,1.5181,0.0,0.0,0.0,0.0,0.0,0.0,0.0,0.0,2.3184,2.332,2.334,0.0,0.0,0.0,0.0,0.0,0.0,0.0,2.2695,2.2715,2.3027,2.3769,2.3465,2.2955,2.2519,2.0524,1.9901,2.0818,2.0645,2.0294,1.9907,1.9118,1.8811,1.8905,0.0,0.0,1.8611,1.8531,1.8704,1.9052,1.8958,1.9105,1.9319,0.0,0.0,0.0,0.0,0.0,0.0,0.0,0.0,0.0,1.9279,1.9372,1.9372,1.9372,1.9546,1.976,1.976,0.0,0.0,0.0,0.0,0.0,0.0,0.0,0.0,0.0,0.0,0.0,0.0,0.0,0.0,0.0,0.0,0.0,0.0,0.0,0.0,0.0,0.0,0.0,0.0,0.0,0.0,0.0,0.0,0.0,0.0,2.0844,1.8657,1.7842,1.6313,1.5377,1.5248,1.5269,1.5248,1.5181,1.5181,1.5181,1.5181,1.5181,1.5181,1.5181,1.5181,1.5181,1.5181,1.5181,1.5181,1.5181,1.5181,1.5181,1.5181,1.5181,1.5181,1.5181,0.0,0.0,0.0,0.0,0.0,0.0,2.2734,2.2969,2.3144,2.3144,2.2988,2.2949,0.0,0.0,0.0,2.3125,2.2754,2.2578,2.2754,2.2598,2.2891,2.375,2.2604,2.1395,2.0223,1.9206,1.8891,1.9372,1.9599,1.9626,1.9439,1.9025,0.0,1.9092,0.0,1.8878,1.8651,1.8544,1.8651,1.8918,1.8798,1.8931,1.9145,0.0,0.0,0.0,0.0,0.0,0.0,0.0,0.0,0.0,1.9279,1.9372,1.9439,1.9786,2.0134,2.0481,2.0842,0.0,0.0,0.0,0.0,0.0,0.0,0.0,0.0,0.0,0.0,0.0,0.0,0.0,0.0,0.0,0.0,0.0,0.0,0.0,0.0,0.0,0.0,0.0,0.0,0.0,0.0,0.0,0.0,0.0,0.0,2.3693,2.174,2.0572,1.8303,1.6994,1.6852,1.5891,1.5276,1.5181,1.5181,1.5181,1.5181,1.5181,1.5181,1.5181,1.5181,1.5181,1.5181,1.5181,1.5181,1.5181,1.5181,1.5181,1.5181,1.5181,1.5181,1.5181,0.0,0.0,0.0,0.0,0.0,0.0,2.3086,2.3144,2.3144,2.3144,2.2773,2.2676,0.0,0.0,0.0,2.3105,2.2754,2.2676,2.3066,2.2715,2.2804,2.357,2.1535,1.9613,1.8063,1.8557,1.8544,1.8009,1.8597,1.8878,1.8891,0.0,1.9319,1.9372,0.0,1.9412,1.8865,1.8571,1.8597,1.8824,1.8557,1.8624,1.8851,1.8557,0.0,0.0,0.0,0.0,0.0,0.0,0.0,0.0,1.9279,1.9372,1.9519,2.0321,2.1176,2.2044,0.0,0.0,0.0,0.0,0.0,0.0,0.0,0.0,0.0,0.0,0.0,0.0,0.0,0.0,0.0,0.0,0.0,0.0,0.0,0.0,0.0,0.0,0.0,0.0,0.0,0.0,0.0,0.0,0.0,0.0,0.0,2.6695,2.5831,2.3611,2.0764,1.9441,1.942,1.6641,1.5181,1.5181,1.5181,1.5181,1.5181,1.5181,1.5181,1.5181,1.5181,1.5181,1.5181,1.5181,1.5181,1.5181,1.5181,1.5181,1.5181,1.5181,1.5181,1.5181,0.0,0.0,0.0,0.0,0.0,0.0,2.3125,2.3144,2.3144,2.3144,2.2773,2.2676,2.3086,2.2754,0.0,2.3105,2.2754,2.2559,2.2637,2.2559,2.2438,2.2263,2.0915,1.9623,1.8384,1.805,1.7809,1.7689,1.829,1.8584,0.0,0.0,0.0,1.9359,0.0,1.8918,0.0,1.8263,1.8183,1.8223,1.817,1.8317,1.8557,1.825,1.8103,0.0,0.0,0.0,0.0,0.0,0.0,0.0,1.9279,1.9372,1.9399,1.9586,2.0267,0.0,0.0,0.0,0.0,0.0,0.0,0.0,0.0,0.0,0.0,0.0,0.0,0.0,0.0,0.0,0.0,0.0,0.0,0.0,0.0,0.0,0.0,0.0,0.0,0.0,0.0,0.0,0.0,0.0,0.0,0.0,2.9508,2.7891,2.6654,2.6341,2.1925,1.9387,1.942,1.6641,1.5181,0.0,1.5181,1.5181,1.5181,1.5181,1.5181,1.5181,1.5181,1.5181,1.5181,1.5181,1.5181,1.5181,1.5181,1.5181,1.5181,1.5181,1.5181,1.5181,0.0,0.0,0.0,0.0,0.0,0.0,0.0,0.0,2.291,2.3105,2.2773,2.2676,2.3086,2.2578,0.0,0.0,2.2754,2.2598,2.2793,2.2274,2.1445,2.0272,2.0123,1.944,1.7956,1.7675,1.7382,1.6954,1.7408,1.7849,0.0,0.0,0.0,1.9359,0.0,1.8811,0.0,1.8116,1.7956,1.7836,1.7983,1.8143,1.8263,1.8103,1.7956,1.7849,1.7996,0.0,0.0,0.0,0.0,0.0,0.0,0.0,1.9452,1.9867,2.0321,0.0,0.0,0.0,0.0,0.0,0.0,0.0,0.0,0.0,0.0,0.0,0.0,0.0,0.0,0.0,0.0,0.0,0.0,0.0,0.0,0.0,0.0,0.0,0.0,0.0,0.0,0.0,0.0,0.0,0.0,3.0047,3.0341,2.9307,2.8258,2.7381,2.3524,2.0756,1.9429,1.6641,1.5181,1.5181,1.5181,1.5181,1.5181,1.5181,1.5181,1.5181,1.5181,1.5181,1.5181,1.5181,1.5181,1.5181,1.5181,1.5181,1.5181,1.5181,1.5181,1.5181,0.0,0.0,0.0,0.0,0.0,0.0,0.0,0.0,0.0,2.3086,2.2773,2.2676,2.3086,2.2461,2.2266,0.0,0.0,0.0,2.3008,2.1784,2.0357,1.8617,1.9273,1.8984,1.7405,1.7435,1.7128,1.6353,1.654,0.0,0.0,0.0,0.0,1.9292,0.0,0.0,0.0,0.0,0.0,0.0,0.0,1.7889,1.7903,1.7943,1.7809,1.7622,1.7929,1.821,1.8464,1.8811,0.0,0.0,0.0,0.0,1.9506,2.0241,0.0,0.0,0.0,0.0,0.0,0.0,0.0,0.0,0.0,0.0,0.0,0.0,0.0,0.0,0.0,0.0,0.0,0.0,0.0,0.0,0.0,0.0,0.0,0.0,0.0,0.0,0.0,0.0,0.0,0.0,0.0,3.0127,3.0421,3.0715,2.9827,2.7381,2.4893,2.2096,1.9569,1.6656,1.5208,1.5181,1.5181,1.5181,1.5181,1.5181,1.5181,1.5181,1.5181,1.5181,1.5181,1.5181,1.5181,1.5181,1.5181,1.5181,1.5181,1.5181,1.5181,1.5181,0.0,0.0,0.0,0.0,0.0,0.0,0.0,0.0,0.0,0.0,2.2773,2.2676,2.3086,2.2715,2.248,2.2578,2.2871,2.293,2.2617,0.0,0.0,1.8959,1.8254,1.7928,1.7889,1.7448,1.7021,1.6647,1.6433,0.0,0.0,0.0,0.0,0.0,0.0,0.0,0.0,0.0,0.0,0.0,0.0,0.0,1.7301,1.7542,1.7622,1.7622,1.7929,1.8076,1.8183,1.8731,1.8945,0.0,0.0,0.0,0.0,0.0,0.0,0.0,0.0,0.0,0.0,0.0,0.0,0.0,0.0,0.0,0.0,0.0,0.0,0.0,0.0,0.0,0.0,0.0,0.0,0.0,0.0,0.0,0.0,0.0,0.0,0.0,0.0,0.0,0.0,0.0,3.0154,3.0421,3.0715,3.1009,3.0033,2.757,2.4854,2.2163,1.9372,1.6707,1.5316,1.5181,1.5181,1.5181,1.5181,1.5181,1.5181,1.5181,1.5181,1.5181,1.5181,1.5181,1.5181,1.5181,1.5181,1.5181,1.5181,1.5181,1.5181,1.5181,0.0,0.0,0.0,0.0,0.0,0.0,0.0,0.0,0.0,0.0,0.0,2.293,2.3125,2.2754,2.2519,2.2519,2.2676,2.2187,2.0873,1.9652,1.8565,1.7767,1.7327,1.7154,1.7275,1.6874,1.6513,1.6219,0.0,0.0,0.0,1.7716,1.8277,0.0,0.0,0.0,0.0,0.0,0.0,0.0,0.0,0.0,1.7876,1.7662,1.7889,1.829,1.7916,1.7903,1.8116,1.8544,1.8784,1.8971,1.9279,0.0,0.0,0.0,0.0,0.0,0.0,0.0,0.0,0.0,0.0,0.0,0.0,0.0,0.0,0.0,0.0,0.0,0.0,0.0,0.0,0.0,0.0,0.0,0.0,0.0,0.0,0.0,0.0,0.0,0.0,0.0,0.0,0.0,3.0194,3.0488,3.0782,3.1062,2.9369,2.5655,2.4375,2.1723,1.7365,1.606,1.5337,1.5181,1.5181,1.5181,1.5181,1.5181,1.5181,1.5181,1.5181,1.5181,1.5181,1.5181,1.5181,1.5181,1.5181,1.5181,1.5181,1.5181,1.5181,1.5181,0.0,0.0,0.0,0.0,0.0,0.0,0.0,0.0,0.0,0.0,0.0,2.295,2.2687,0.0,0.0,0.0,2.1569,2.0851,1.906,1.8318,1.7616,1.6679,1.6593,1.6593,1.6593,1.638,1.6126,0.0,0.0,0.0,1.7582,1.7662,1.8303,0.0,1.8824,0.0,0.0,0.0,0.0,0.0,0.0,0.0,1.8597,1.8504,0.0,1.9359,1.8384,0.0,1.8384,1.8384,1.8571,1.8851,1.9078,0.0,0.0,0.0,0.0,0.0,0.0,0.0,0.0,0.0,0.0,0.0,0.0,0.0,0.0,0.0,0.0,0.0,0.0,0.0,0.0,0.0,0.0,0.0,0.0,0.0,0.0,0.0,0.0,0.0,0.0,0.0,0.0,0.0,3.0301,3.0595,3.0889,3.1183,2.928,2.4949,2.4073,2.1459,1.6955,1.5959,1.5371,1.5181,1.5221,1.5221,1.5181,1.5181,1.5181,1.5181,1.5181,1.5181,1.5181,1.5181,1.5181,1.5181,1.5181,1.5181,1.5181,1.5181,1.5181,1.5181,0.0,0.0,0.0,0.0,0.0,0.0,0.0,0.0,0.0,0.0,0.0,2.2668,2.148,2.1373,2.0607,1.8765,1.9016,1.8685,1.7447,1.7612,1.7297,1.6384,1.6299,0.0,1.6299,1.6286,1.6126,0.0,0.0,0.0,1.7595,1.7889,1.8504,1.9359,1.9038,1.841,1.7569,0.0,0.0,0.0,0.0,0.0,0.0,0.0,0.0,0.0,0.0,0.0,0.0,1.8343,1.8263,1.8517,0.0,0.0,0.0,0.0,0.0,0.0,0.0,0.0,0.0,0.0,0.0,0.0,0.0,0.0,0.0,0.0,0.0,0.0,0.0,0.0,0.0,0.0,0.0,0.0,0.0,0.0,0.0,0.0,0.0,0.0,0.0,0.0,0.0,0.0,3.0608,3.0902,3.1183,3.149,3.0355,2.7416,2.511,2.25,1.9254,1.6773,1.5479,1.5181,1.533,1.5323,1.5181,1.5181,1.5181,1.5181,1.5181,1.5181,1.5181,1.5181,1.5181,1.5181,1.5181,1.5181,1.5181,1.5181,1.5181,1.5181,0.0,0.0,0.0,0.0,0.0,0.0,0.0,0.0,0.0,0.0,0.0,0.0,0.0,2.2492,2.2089,2.1096,1.9765,1.8872,1.8739,1.7331,1.6429,1.6259,1.6086,1.6072,1.6273,1.6086,0.0,0.0,0.0,1.6433,1.7315,1.7422,1.7943,1.8784,1.849,1.8183,1.7836,1.7154,0.0,0.0,0.0,0.0,0.0,0.0,0.0,0.0,0.0,0.0,0.0,0.0,0.0,0.0,0.0,0.0,0.0,0.0,0.0,0.0,0.0,0.0,0.0,0.0,0.0,0.0,0.0,0.0,0.0,0.0,0.0,0.0,0.0,0.0,0.0,0.0,0.0,0.0,0.0,0.0,0.0,0.0,0.0,0.0,0.0,0.0,0.0,0.0,0.0,0.0,3.1223,3.1503,3.0458,2.783,2.6953,2.4318,1.9808,1.7024,1.5533,1.533,1.5282,1.5235,1.5181,1.5181,1.5181,1.5181,1.5181,1.5181,1.5181,1.5181,1.5181,1.5181,1.5181,1.5181,1.5181,1.5181,1.5181,1.5181,0.0,0.0,0.0,0.0,0.0,0.0,0.0,0.0,0.0,0.0,0.0,0.0,0.0,0.0,2.1157,2.0761,1.9217,1.8425,1.8739,1.7331,1.6388,1.6112,1.5939,1.5925,1.6126,0.0,0.0,0.0,0.0,0.0,0.0,0.0,1.7582,1.8317,1.7822,0.0,0.0,0.0,0.0,1.7301,0.0,0.0,2.0227,0.0,0.0,0.0,0.0,0.0,0.0,0.0,0.0,0.0,0.0,0.0,0.0,0.0,0.0,0.0,0.0,0.0,0.0,0.0,0.0,0.0,0.0,0.0,0.0,0.0,0.0,0.0,0.0,0.0,0.0,0.0,0.0,0.0,0.0,0.0,0.0,0.0,0.0,0.0,0.0,0.0,0.0,0.0,0.0,0.0,3.137,3.1557,3.0496,2.7972,2.6999,2.4359,1.991,1.7157,1.5689,1.5486,1.5384,1.5309,1.5255,1.5208,1.5181,1.5181,1.5181,1.5181,1.5181,1.5181,1.5181,1.5181,1.5181,1.5181,1.5181,1.5181,1.5181,1.5181,0.0,0.0,0.0,0.0,0.0,0.0,0.0,0.0,0.0,0.0,0.0,0.0,0.0,0.0,0.0,1.7417,1.7296,1.7281,1.7191,1.7505,1.7138,1.5832,1.5832,1.5832,1.5845,0.0,0.0,0.0,0.0,0.0,0.0,0.0,1.7448,0.0,1.7114,1.7368,1.845,0.0,0.0,1.8223,0.0,2.0575,2.0147,0.0,0.0,0.0,2.2071,2.1871,0.0,0.0,0.0,0.0,0.0,0.0,0.0,0.0,0.0,0.0,0.0,0.0,0.0,0.0,0.0,0.0,0.0,0.0,0.0,0.0,0.0,0.0,0.0,0.0,0.0,0.0,0.0,0.0,0.0,0.0,0.0,0.0,0.0,0.0,0.0,0.0,0.0,0.0,0.0,3.137,3.165,3.1664,3.0496,2.7972,2.5432,2.2615,1.9919,1.7371,1.5927,1.5642,1.5635,1.5554,1.5404,1.5255,1.5181,1.5181,1.5181,1.5181,1.5181,1.5181,1.5181,1.5181,1.5181,1.5181,1.5181,1.5181,1.5181,1.5181,0.0,0.0,0.0,0.0,0.0,2.4062,2.4062,2.3066,2.27,0.0,0.0,0.0,0.0,0.0,0.0,2.1458,2.0462,1.9256,1.7908,1.6928,1.6197,1.5832,1.5832,1.5925,1.6152,0.0,0.0,0.0,0.0,0.0,0.0,0.0,0.0,0.0,1.7141,1.7208,1.7488,1.7061,0.0,0.0,1.9359,2.0468,0.0,0.0,0.0,0.0,0.0,2.3621,0.0,0.0,2.1764,2.0347,0.0,0.0,1.7836,0.0,0.0,0.0,1.9225,0.0,0.0,0.0,0.0,0.0,0.0,0.0,0.0,0.0,0.0,0.0,0.0,0.0,0.0,0.0,0.0,0.0,0.0,0.0,0.0,0.0,0.0,0.0,0.0,0.0,0.0,0.0,3.1263,3.1583,3.1664,3.1664,3.1284,3.07,2.8164,2.541,2.2819,2.0021,1.781,1.5791,1.5574,1.5452,1.5404,1.5255,1.5181,1.5181,1.5181,1.5181,1.5181,1.5181,1.5181,1.5181,1.5181,1.5181,1.5181,1.5181,1.5181,1.5181,0.0,0.0,2.418,2.4609,2.4687,2.4746,2.4941,2.403,2.3653,0.0,0.0,0.0,0.0,0.0,0.0,0.0,2.1761,2.0802,1.902,1.7943,1.6842,1.5832,1.5952,1.6099,1.6273,1.6339,0.0,0.0,0.0,0.0,0.0,0.0,0.0,0.0,0.0,0.0,0.0,0.0,0.0,0.0,1.9893,0.0,0.0,2.3313,2.3955,0.0,0.0,0.0,2.3046,2.3661,2.2498,0.0,0.0,0.0,0.0,0.0,0.0,0.0,1.9239,1.9452,0.0,0.0,0.0,0.0,0.0,0.0,0.0,0.0,0.0,0.0,0.0,0.0,0.0,0.0,0.0,0.0,0.0,0.0,0.0,0.0,0.0,0.0,0.0,0.0,0.0,3.0782,3.1223,3.1543,3.1664,3.1664,3.1664,3.1664,2.9135,2.6602,2.388,2.1235,1.8662,1.5947,1.5649,1.5506,1.5499,1.5282,1.5181,1.5181,1.5181,1.5181,1.5181,1.5181,1.5181,1.5181,1.5181,1.5181,1.5181,1.5181,1.5181,1.5181,0.0,0.0,2.4648,2.5137,2.5215,2.5371,2.5801,2.5508,2.5234,0.0,0.0,0.0,0.0,0.0,0.0,0.0,2.2136,2.1984,2.0362,1.9652,1.8303,1.6103,1.6209,1.6286,1.6326,1.6834,1.6847,0.0,0.0,0.0,0.0,0.0,0.0,0.0,0.0,0.0,0.0,0.0,0.0,1.7983,2.0909,2.159,0.0,0.0,2.3581,0.0,2.3621,2.338,2.2846,2.4075,2.3247,0.0,0.0,0.0,0.0,0.0,1.8838,1.9199,1.9372,1.9653,2.0013,0.0,0.0,0.0,0.0,0.0,0.0,0.0,0.0,0.0,0.0,0.0,0.0,0.0,0.0,0.0,0.0,0.0,0.0,0.0,0.0,0.0,0.0,3.0154,3.0421,3.0675,3.0996,3.1316,3.165,3.1664,3.1664,3.1664,2.9529,2.6806,2.388,2.1539,1.901,1.6076,1.5778,1.5649,1.5649,1.533,1.5194,1.5208,1.5187,1.5181,1.5181,1.5181,1.5181,1.5181,1.5181,1.5181,1.5181,1.5181,1.5181,1.5181,2.4668,2.4883,2.5195,2.5996,2.6133,2.6269,2.6699,2.6406,2.625,2.6602,0.0,0.0,0.0,0.0,0.0,0.0,0.0,2.2877,2.1112,1.9178,1.787,1.7311,1.6677,1.638,1.662,1.6727,1.674,1.662,0.0,0.0,0.0,0.0,0.0,0.0,0.0,0.0,0.0,0.0,0.0,1.8744,1.9613,0.0,2.2231,2.3661,2.4356,2.4583,2.4756,2.4556,2.4142,0.0,2.3153,2.2352,0.0,0.0,0.0,0.0,0.0,0.0,0.0,0.0,0.0,0.0,0.0,0.0,0.0,0.0,0.0,0.0,0.0,0.0,0.0,0.0,0.0,0.0,0.0,0.0,0.0,0.0,0.0,0.0,0.0,0.0,0.0,2.9967,3.002,3.0087,3.0581,3.1116,3.1637,3.1664,3.1664,3.1664,3.1284,2.8739,2.388,2.3481,2.0764,1.6076,1.5778,1.5696,1.5798,1.5377,1.5248,1.5357,1.5235,1.5181,1.5181,1.5181,1.5181,1.5181,1.5181,1.5181,1.5181,1.5181,1.5181,1.5181,2.4941,2.5254,2.5664,2.6543,2.6699,2.6914,2.7559,2.7305,2.7109,0.0,0.0,0.0,0.0,0.0,0.0,0.0,0.0,0.0,2.1176,2.0268,1.9249,1.7792,1.8148,1.8199,1.7584,1.7839,1.7538,1.67,0.0,0.0,0.0,0.0,0.0,0.0,0.0,0.0,0.0,0.0,1.7662,1.8624,2.0241,0.0,2.3207,2.4249,2.4823,2.5064,2.4917,2.4863,2.477,2.4182,2.3581,0.0,0.0,2.1897,2.151,0.0,2.0428,2.0922,0.0,0.0,0.0,2.0267,0.0,0.0,0.0,0.0,0.0,0.0,0.0,0.0,0.0,0.0,0.0,0.0,0.0,0.0,0.0,0.0,0.0,0.0,0.0,0.0,0.0,2.9472,2.9659,3.01,3.0541,3.1049,3.1637,3.1664,3.1664,3.1664,3.1664,2.9135,2.388,2.388,2.1352,1.6076,1.5778,1.5716,1.5839,1.5384,1.5269,1.5404,1.5248,1.5181,1.5181,1.5181,1.5181,1.5181,1.5181,1.5181,1.5181,1.5181,1.5181,1.5181,2.4961,2.543,2.5977,2.6758,2.6973,2.7285,2.8047,2.7949,2.7793,0.0,0.0,0.0,0.0,0.0,0.0,0.0,0.0,0.0,0.0,2.2351,2.1473,1.9099,2.015,2.0151,1.894,1.9074,1.8369,1.662,0.0,0.0,0.0,0.0,0.0,0.0,0.0,0.0,0.0,0.0,0.0,1.8851,0.0,2.2619,2.33,2.4409,2.4823,2.4823,2.481,2.4957,2.5104,2.4756,0.0,2.35,2.35,2.3046,0.0,0.0,0.0,0.0,0.0,0.0,0.0,0.0,0.0,2.0935,0.0,0.0,0.0,0.0,0.0,0.0,0.0,0.0,0.0,0.0,0.0,0.0,0.0,0.0,0.0,0.0,0.0,0.0,0.0,2.8764,2.9165,3.0274,3.0314,3.0662,3.1543,3.1583,3.1583,3.1583,3.1637,2.9135,2.388,2.388,2.1352,1.6076,1.5778,1.5716,1.5839,1.5384,1.5269,1.5404,1.5248,1.5201,1.5221,1.5194,1.5201,1.5221,1.5194,1.5181,1.5181,1.5181,1.5181,1.5181,2.4902,2.543,2.5898,2.6367,2.6777,2.7187,2.7656,2.8008,2.8223,0.0,0.0,0.0,0.0,0.0,0.0,0.0,0.0,0.0,2.7052,0.0,2.409,2.3734,2.2042,2.0945,2.045,1.9623,1.8253,1.6326,0.0,0.0,0.0,0.0,0.0,0.0,1.7435,0.0,0.0,0.0,1.972,0.0,2.1416,2.1403,0.0,2.318,2.3915,2.4048,2.505,2.5438,2.5384,0.0,2.4396,2.3928,0.0,2.338,0.0,0.0,0.0,0.0,0.0,0.0,0.0,0.0,2.143,0.0,0.0,0.0,0.0,0.0,0.0,0.0,0.0,0.0,0.0,0.0,0.0,0.0,0.0,0.0,0.0,0.0,0.0,0.0,0.0,0.0,2.827,3.0221,2.9165,2.9272,3.1169,3.1276,3.1276,3.1276,3.153,2.9135,2.388,2.388,2.1352,1.6076,1.5778,1.5716,1.5839,1.5384,1.5269,1.5404,1.5248,1.5262,1.5371,1.5242,1.5262,1.5371,1.5235,1.5181,1.5181,1.5181,1.5181,1.5181,2.4902,2.5215,2.5566,2.6269,2.6543,2.6875,2.7559,2.8223,2.8652,0.0,0.0,0.0,0.0,0.0,0.0,0.0,0.0,2.8784,0.0,0.0,2.5722,2.4272,2.3214,2.2178,2.1054,1.9591,1.805,1.6273,1.6099,0.0,0.0,0.0,0.0,0.0,1.8156,0.0,1.9706,0.0,0.0,0.0,0.0,0.0,0.0,2.3554,2.4636,2.4863,2.5531,2.5772,2.5758,0.0,2.5117,0.0,0.0,0.0,0.0,0.0,0.0,0.0,0.0,0.0,0.0,0.0,0.0,0.0,0.0,0.0,2.0214,0.0,0.0,0.0,0.0,0.0,0.0,0.0,0.0,0.0,0.0,0.0,0.0,0.0,0.0,0.0,0.0,0.0,0.0,0.0,0.0,2.9045,3.1116,3.1062,3.0969,3.0969,3.1089,2.9431,2.5593,2.4194,2.1698,1.7936,1.6551,1.575,1.5716,1.5438,1.535,1.5404,1.5248,1.5221,1.5276,1.5208,1.5269,1.5398,1.5242,1.5181,1.5181,1.5181,1.5242,1.5316,2.4746,2.498,2.5273,2.5918,2.623,2.668,2.7539,2.8281,0.0,0.0,0.0,0.0,3.0449,3.0215,0.0,0.0,0.0,3.0065,0.0,0.0,2.7941,2.6374,2.5266,0.0,0.0,2.0712,1.8671,1.6843,1.6238,0.0,0.0,0.0,0.0,0.0,0.0,1.9599,2.1042,0.0,0.0,2.0922,2.1349,2.1764,2.2325,2.4235,2.5237,2.5678,2.5972,2.6079,2.6079,2.6132,2.5531,0.0,2.5665,0.0,0.0,0.0,0.0,0.0,2.2418,0.0,0.0,0.0,0.0,0.0,0.0,0.0,0.0,0.0,0.0,0.0,0.0,0.0,0.0,0.0,0.0,0.0,0.0,0.0,0.0,0.0,0.0,0.0,0.0,0.0,0.0,0.0,0.0,0.0,3.0982,3.0835,3.0675,3.0675,3.0175,2.8508,2.5848,2.3555,2.09,1.8304,1.6702,1.5716,1.5574,1.5459,1.5391,1.5343,1.5276,1.5248,1.5248,1.5248,1.5337,1.5452,1.5255,1.5235,1.5303,1.5262,1.5316,1.5418,2.4355,2.4785,2.5078,2.5117,2.582,2.668,2.7539,2.8027,0.0,0.0,0.0,0.0,0.0,0.0,0.0,0.0,0.0,3.3984,3.2715,0.0,3.1328,0.0,0.0,2.7084,0.0,2.379,2.0635,1.8258,1.6926,0.0,0.0,0.0,0.0,0.0,0.0,1.9533,1.9947,2.1336,2.2579,2.3647,2.3661,2.4516,2.5705,0.0,2.5184,2.5985,2.6266,0.0,0.0,2.5732,2.5331,0.0,0.0,0.0,0.0,0.0,0.0,0.0,0.0,0.0,0.0,2.163,0.0,0.0,0.0,0.0,2.0895,0.0,0.0,0.0,0.0,0.0,0.0,0.0,0.0,0.0,0.0,0.0,0.0,0.0,0.0,0.0,0.0,0.0,0.0,0.0,0.0,0.0,3.0648,3.0528,3.0381,3.0381,2.8371,2.6046,2.3392,2.0946,1.8296,1.5635,1.5642,1.5567,1.5418,1.5411,1.533,1.5201,1.5343,1.5404,1.5404,1.5404,1.5493,1.5601,1.5303,1.5364,1.5608,1.5459,1.5404,1.5432,2.4394,2.4766,2.5156,2.5449,2.5762,2.625,2.7109,2.8066,0.0,0.0,0.0,0.0,0.0,0.0,3.3262,0.0,0.0,3.3984,3.3262,3.2012,0.0,0.0,0.0,2.6421,0.0,0.0,2.0302,1.9003,1.7638,0.0,0.0,0.0,0.0,0.0,0.0,2.0067,0.0,0.0,0.0,0.0,0.0,2.4703,2.5678,0.0,0.0,2.6253,2.636,2.6386,0.0,2.6159,2.5772,2.5411,2.5705,2.5464,2.5144,2.5424,2.5504,0.0,0.0,0.0,2.5197,2.334,0.0,0.0,0.0,0.0,0.0,0.0,0.0,0.0,0.0,0.0,0.0,0.0,0.0,0.0,0.0,0.0,0.0,0.0,0.0,0.0,0.0,0.0,0.0,0.0,0.0,0.0,0.0,3.0221,3.0074,3.0074,2.7743,2.6121,2.5191,2.292,2.0368,1.7939,1.8159,1.7173,1.5411,1.5513,1.5425,1.5194,1.5343,1.535,1.5276,1.5479,1.5594,1.5615,1.5411,1.552,1.575,1.5499,1.5533,1.5737,2.5098,2.5215,2.5352,2.5469,2.5879,2.6426,0.0,0.0,0.0,0.0,3.1289,0.0,3.3887,0.0,3.3867,0.0,3.4824,3.4512,3.3906,3.2969,0.0,3.3047,2.9754,0.0,0.0,0.0,2.1742,2.1154,1.8646,1.7475,0.0,0.0,0.0,0.0,0.0,0.0,0.0,0.0,2.334,0.0,0.0,2.5317,0.0,0.0,2.6346,2.6106,0.0,2.6386,2.64,2.6507,2.6293,2.6066,2.6547,2.6319,2.5932,2.6306,2.6279,2.6092,2.5879,2.6106,0.0,2.4462,2.3928,0.0,2.1777,0.0,0.0,0.0,0.0,0.0,0.0,0.0,0.0,0.0,0.0,0.0,0.0,0.0,0.0,0.0,0.0,0.0,0.0,0.0,0.0,0.0,0.0,0.0,0.0,0.0,2.8732,2.8629,2.5309,2.4021,2.4945,2.1772,1.9824,1.9158,1.8512,1.7173,1.5418,1.5567,1.5472,1.5194,1.5404,1.5371,1.5208,1.5567,1.5683,1.5628,1.5527,1.5676,1.59,1.5601,1.5676,1.5967,0.0,0.0,2.5664,0.0,2.6211,0.0,0.0,0.0,3.0391,0.0,3.209,3.3203,3.4082,3.4531,3.4941,3.5391,3.5801,0.0,3.4824,3.4336,0.0,0.0,3.3105,3.2578,3.3437,0.0,0.0,0.0,2.0237,1.8185,0.0,0.0,0.0,0.0,1.8384,0.0,2.1657,2.2498,2.4062,2.5999,2.6293,2.6386,2.64,2.672,2.6306,2.5638,2.6226,2.6426,2.648,2.6747,2.6841,2.6894,2.7175,2.7281,2.7281,2.7281,2.7295,2.7188,2.6627,2.648,2.6199,2.505,0.0,0.0,0.0,0.0,2.3327,0.0,0.0,0.0,0.0,0.0,0.0,0.0,0.0,0.0,0.0,0.0,0.0,0.0,0.0,0.0,0.0,0.0,0.0,0.0,0.0,0.0,0.0,0.0,2.6612,2.6423,2.1626,2.0159,2.2556,1.7771,1.656,1.8978,1.6692,1.5554,1.5438,1.5567,1.5472,1.5221,1.5513,1.5472,1.5242,1.5683,1.5778,1.5649,1.5649,1.5818,1.6035,1.5764,1.5845,1.6117,2.6426,2.6543,2.6758,0.0,2.7285,2.7637,0.0,0.0,0.0,0.0,3.3144,3.4199,3.5391,3.5625,3.5723,3.5859,3.5957,0.0,0.0,0.0,0.0,3.5644,3.3418,3.2715,3.3887,2.9638,0.0,2.6703,0.0,0.0,1.9954,0.0,0.0,0.0,0.0,0.0,2.2231,2.2672,2.4182,2.6306,2.66,2.6453,0.0,0.0,2.6734,2.6239,2.6827,2.7041,2.7054,2.7121,2.7148,2.7161,2.7241,2.7415,2.7589,2.7589,2.7749,2.7883,2.7736,2.7696,2.7509,2.6774,2.6106,2.5384,0.0,0.0,0.0,0.0,0.0,0.0,0.0,0.0,0.0,0.0,0.0,0.0,0.0,0.0,0.0,0.0,0.0,0.0,0.0,0.0,0.0,0.0,0.0,0.0,0.0,0.0,0.0,2.8963,2.4204,2.182,2.2556,1.9427,1.7554,1.6529,1.7573,1.7267,1.573,1.5554,1.5486,1.5527,1.5608,1.5594,1.5547,1.5886,1.5934,1.5798,1.5798,1.5845,1.5913,1.5954,1.609,1.6273,2.7226,0.0,0.0,2.7695,0.0,0.0,2.9121,0.0,0.0,3.2598,3.3691,0.0,3.5351,3.5781,3.6016,3.6016,3.6016,0.0,3.5469,0.0,0.0,3.543,3.4414,3.418,3.4902,3.1514,0.0,2.8519,0.0,0.0,2.1033,0.0,0.0,0.0,0.0,2.0013,0.0,2.3273,2.4756,2.6239,2.6653,0.0,0.0,2.7215,2.7255,2.7028,2.7482,2.7482,2.7281,2.7415,2.7455,2.7482,2.7615,2.7762,2.7896,2.7896,2.8016,2.8136,2.8136,2.8136,2.8056,2.7736,2.7281,2.6694,2.5838,2.5651,2.5611,0.0,0.0,0.0,0.0,0.0,0.0,0.0,0.0,0.0,0.0,0.0,0.0,0.0,0.0,0.0,0.0,0.0,0.0,0.0,0.0,0.0,0.0,0.0,0.0,2.6929,2.3978,2.1906,2.0899,1.9525,1.8241,1.7158,1.7444,1.6958,1.5845,1.5615,1.556,1.5642,1.5642,1.5642,1.5662,1.5961,1.5995,1.5859,1.5927,1.5954,1.5961,1.6049,1.6137,1.6239,0.0,0.0,0.0,0.0,0.0,0.0,0.0,3.0976,0.0,3.2891,0.0,3.4863,3.4863,3.5566,3.6016,3.6016,0.0,3.5684,3.4922,3.5586,3.5684,3.4902,3.5605,3.6055,3.6094,3.3577,0.0,0.0,0.0,0.0,0.0,0.0,0.0,0.0,0.0,0.0,0.0,2.4075,2.5518,0.0,2.672,2.7094,2.7362,2.7642,2.7762,2.7789,2.8056,2.7816,2.7415,2.7669,2.7762,2.7802,2.8056,2.8136,2.8136,2.8136,2.8136,2.8136,2.8136,2.8136,2.8136,2.8136,2.8136,2.7883,2.6854,2.6613,2.6627,2.6667,2.6079,2.6132,0.0,0.0,0.0,0.0,0.0,0.0,0.0,0.0,0.0,0.0,0.0,0.0,0.0,0.0,0.0,0.0,0.0,0.0,0.0,0.0,0.0,2.3984,2.3023,0.0,1.9789,0.0,1.9074,1.9212,1.7128,1.6077,1.5845,1.5703,1.5662,1.5696,1.5676,1.5676,1.5716,1.5974,1.6001,1.59,1.6029,1.6083,1.6083,1.6103,1.611,1.6151,0.0,0.0,0.0,0.0,0.0,3.1211,3.2187,3.3008,3.3711,3.4297,3.5195,3.5781,3.5781,3.5937,3.6016,3.6016,3.6016,0.0,0.0,0.0,0.0,3.5801,3.5937,3.6191,3.6543,3.4987,3.356,0.0,0.0,0.0,0.0,0.0,0.0,0.0,0.0,0.0,2.3046,2.473,0.0,2.7068,2.7415,2.7575,2.7655,2.7949,2.807,2.807,2.8123,2.8083,2.8003,2.8043,2.807,2.807,2.8123,2.8136,2.8136,2.8136,2.8136,2.8136,2.8136,2.8136,2.8136,2.8136,2.8136,2.8083,2.7883,2.7829,2.7909,2.8163,2.8096,2.7883,2.7562,0.0,0.0,0.0,0.0,0.0,0.0,0.0,0.0,0.0,0.0,0.0,0.0,0.0,0.0,0.0,0.0,0.0,0.0,0.0,0.0,0.0,2.6687,0.0,0.0,0.0,2.0992,1.9201,1.8641,1.749,1.5845,1.5703,1.5771,1.5995,1.5872,1.5886,1.6008,1.6062,1.6069,1.6042,1.6069,1.6083,1.6096,1.6225,1.6273,1.6293,0.0,0.0,0.0,0.0,0.0,0.0,0.0,3.4375,0.0,3.4726,3.5078,3.5332,3.5332,3.5742,3.6016,3.6016,3.6016,3.6113,3.6348,3.6348,3.6465,3.668,3.668,0.0,3.6992,3.6367,3.498,3.2793,0.0,0.0,0.0,0.0,0.0,0.0,0.0,2.1523,0.0,0.0,0.0,2.723,2.8795,2.8758,2.7949,2.8083,2.8136,2.8136,2.8136,2.8136,2.8136,2.8136,2.8136,2.8136,2.8136,2.8136,2.8136,2.8136,2.8136,2.8136,2.8136,2.8136,2.8136,2.8136,2.827,2.8377,2.8377,2.8497,2.8657,2.8804,2.8831,2.8511,2.7455,2.6306,0.0,0.0,0.0,0.0,0.0,0.0,0.0,0.0,0.0,0.0,0.0,0.0,0.0,0.0,0.0,0.0,0.0,0.0,0.0,0.0,0.0,0.0,0.0,0.0,0.0,1.9112,1.7986,1.6831,1.5967,1.5818,1.5872,1.6076,1.592,1.594,1.6083,1.6083,1.6083,1.6083,1.6083,1.6083,1.609,1.6164,1.6239,1.6341,0.0,3.0684,0.0,0.0,3.2578,0.0,3.4101,3.5312,3.5879,3.5078,3.498,3.5019,3.5117,3.5742,3.6191,3.6289,3.6289,3.6426,3.6777,3.6797,3.6953,3.7285,3.7305,3.7305,3.7305,3.7383,3.6035,0.0,0.0,0.0,0.0,0.0,0.0,0.0,0.0,0.0,0.0,0.0,2.8446,2.7297,2.9535,2.9519,2.8043,2.8043,2.8016,2.7963,2.7963,2.8003,2.8043,2.7976,2.8003,2.8043,2.8043,2.8043,2.8043,2.8043,2.8096,2.8136,2.8136,2.8136,2.8163,2.823,2.843,2.8604,2.8604,2.8831,2.9045,2.9045,2.9138,2.8818,2.7509,2.6814,0.0,0.0,0.0,0.0,0.0,0.0,0.0,0.0,0.0,0.0,0.0,0.0,0.0,0.0,0.0,0.0,0.0,0.0,0.0,0.0,0.0,2.7409,2.3252,0.0,2.2024,0.0,1.752,1.6356,1.6029,1.594,1.5967,1.6076,1.5954,1.5967,1.6083,1.6083,1.6083,1.6083,1.6083,1.6083,1.6083,1.6117,1.6225,1.6395,0.0,0.0,0.0,0.0,0.0,0.0,3.4629,3.5762,3.6445,3.5957,3.5898,3.6055,3.6445,3.6562,3.6758,3.7148,3.7168,3.7187,3.7226,3.7246,3.7266,3.7305,3.7305,3.7305,3.7305,3.7676,3.6758,0.0,0.0,0.0,0.0,0.0,0.0,0.0,0.0,0.0,0.0,2.9318,2.9022,2.803,2.8406,2.8117,2.7736,2.7736,2.7575,2.7348,2.7348,2.7522,2.7696,2.7442,2.7522,2.7736,2.7736,2.7736,2.7736,2.7736,2.7936,2.8136,2.8136,2.8136,2.8217,2.8497,2.8591,2.8604,2.8604,2.8831,2.9045,2.9045,2.9459,2.9312,2.7575,2.8497,2.8537,0.0,0.0,0.0,0.0,0.0,0.0,0.0,0.0,0.0,0.0,0.0,0.0,0.0,0.0,0.0,0.0,0.0,0.0,2.6056,0.0,2.7637,2.5358,2.5675,2.4679,2.2349,2.0105,1.782,1.5879,1.6001,1.6069,1.6083,1.6069,1.6069,1.6083,1.6083,1.6083,1.6083,1.6083,1.6083,1.6096,1.6239,1.6381,1.6524,0.0,0.0,0.0,0.0,0.0,0.0,0.0,3.6152,3.6699,3.6777,3.6777,3.6855,3.7031,3.7051,3.7109,3.7285,3.7305,3.7402,3.7656,3.7676,3.7793,3.8047,3.8066,3.7949,3.7676,3.7832,3.6855,0.0,0.0,0.0,0.0,0.0,0.0,0.0,0.0,2.7674,2.8597,2.9709,2.9238,2.7781,2.9057,2.8659,2.7442,2.7442,2.7362,2.7268,2.7268,2.7348,2.7415,2.7308,2.7455,2.7669,2.7495,2.7562,2.7696,2.7696,2.7909,2.8136,2.8136,2.8136,2.8177,2.8297,2.847,2.8604,2.8604,2.8831,2.9045,2.9045,2.9366,2.9446,2.8724,2.8591,2.8457,0.0,0.0,0.0,0.0,0.0,0.0,0.0,0.0,0.0,0.0,0.0,0.0,0.0,0.0,0.0,0.0,0.0,0.0,2.2933,0.0,2.8587,2.561,2.4721,2.3799,2.2893,1.9021,1.6724,1.5995,1.6056,1.6083,1.6083,1.6083,1.6083,1.6083,1.6083,1.6083,1.6083,1.6083,1.6083,1.609,1.6151,1.632,1.653,3.3301,0.0,3.3281,0.0,3.4394,3.4648,3.6016,3.6582,3.7012,3.7422,3.7598,3.7617,3.75,3.748,3.7539,3.7656,3.7676,3.7793,3.8105,3.8105,3.8262,3.8555,3.8457,0.0,3.7754,3.7734,3.6934,3.5273,3.335,0.0,0.0,2.9065,0.0,0.0,3.0266,3.0239,3.0702,3.1792,3.074,2.8381,2.9793,2.9105,2.7148,2.7228,2.7215,2.7148,2.7241,2.7321,2.7375,2.7295,2.7455,2.7642,2.7362,2.7402,2.7589,2.7669,2.7909,2.8136,2.8136,2.8136,2.8163,2.8257,2.8444,2.8604,2.8604,2.8831,2.9045,2.9045,2.9205,2.9379,2.9472,2.8791,2.8457,2.9152,0.0,0.0,0.0,0.0,0.0,0.0,0.0,0.0,0.0,0.0,0.0,0.0,0.0,0.0,0.0,0.0,0.0,0.0,0.0,0.0,0.0,2.3539,2.2626,2.1897,1.7589,1.5839,1.6083,1.6083,1.6083,1.6083,1.6083,1.6083,1.6083,1.6083,1.6083,1.6083,1.6083,1.6083,1.609,1.613,1.6307,1.653,3.4512,3.4668,3.4961,3.584,3.5996,3.6133,3.6601,3.7012,3.7441,3.7851,3.8301,3.8398,3.7969,3.791,3.8086,3.8516,3.8555,3.8555,3.8574,3.8574,3.8574,0.0,0.0,3.7734,3.7324,3.7305,3.709,3.6641,0.0,0.0,3.5312,3.2691,3.2466,3.4293,3.4733,3.5503,3.6533,3.6551,3.4049,3.026,3.026,2.8976,2.6854,2.7148,2.7081,2.6867,2.7161,2.7455,2.7642,2.7362,2.7455,2.7642,2.7362,2.7268,2.7321,2.7615,2.7909,2.8136,2.8136,2.8136,2.8217,2.8524,2.8604,2.8604,2.8604,2.8831,2.9045,2.9045,2.9045,2.9138,2.9432,2.9472,2.9085,2.7909,0.0,0.0,0.0,0.0,0.0,0.0,0.0,2.5598,2.7909,0.0,0.0,0.0,0.0,0.0,0.0,0.0,0.0,2.6318,2.7843,0.0,2.1916,2.2434,2.1677,1.9246,1.6933,1.5934,1.6083,1.6083,1.6083,1.6083,1.6083,1.6083,1.6083,1.6083,1.6083,1.6083,1.6083,1.6083,1.6096,1.6252,1.6395,1.6544,3.459,3.4707,3.4785,3.5078,3.5391,3.5742,3.6172,3.6601,3.7012,3.7441,3.7617,3.7754,3.791,3.8184,3.8418,0.0,3.8574,3.8574,0.0,3.8301,3.8125,3.8125,3.8008,3.7734,3.7305,3.7578,3.7519,3.709,0.0,0.0,0.0,3.5412,3.5869,3.7211,3.5833,3.5573,3.5743,3.4381,3.222,2.9748,2.9748,2.859,2.6827,2.6921,2.7028,2.7134,2.7228,2.7321,2.7388,2.7295,2.7321,2.7415,2.7522,2.7562,2.7575,2.7669,2.7909,2.8136,2.8136,2.8136,2.8163,2.827,2.8283,2.8283,2.8283,2.8364,2.843,2.843,2.8604,2.8831,2.9125,2.9179,2.9192,2.9205,2.9446,0.0,0.0,0.0,0.0,0.0,0.0,2.8604,0.0,2.7976,0.0,0.0,0.0,0.0,0.0,0.0,0.0,0.0,2.8371,0.0,2.5063,2.5525,2.5495,2.4789,2.2365,2.0376,1.8616,1.6864,1.6083,1.6083,1.6083,1.6083,1.6083,1.6083,1.6083,1.6083,1.6083,1.6144,1.6246,1.6293,1.6469,1.6686,3.4883,3.4961,3.5019,3.5176,3.543,3.5781,3.6191,3.6484,3.6875,3.7461,3.7539,3.7695,3.8125,3.8418,0.0,3.834,3.8633,3.8672,3.8359,3.8379,3.834,3.8184,3.8008,3.7793,3.7539,3.7637,0.0,3.7539,3.7168,3.7129,3.7383,3.7383,3.7812,3.8574,3.7198,3.6719,3.6571,3.5366,3.318,3.0701,3.0701,2.9208,2.7001,2.7108,2.7268,2.7442,2.7549,2.7589,2.7589,2.7589,2.7589,2.7629,2.7802,2.7869,2.7869,2.7869,2.8003,2.8136,2.8136,2.8136,2.8136,2.8136,2.8136,2.8136,2.8136,2.8136,2.8136,2.8136,2.8297,2.8524,2.8818,2.8871,2.9072,2.9659,2.9606,2.9579,2.9873,0.0,0.0,0.0,0.0,0.0,0.0,2.9058,0.0,0.0,0.0,0.0,0.0,0.0,0.0,2.676,2.9506,0.0,2.6509,2.699,2.6839,2.585,2.4396,2.2964,2.1343,1.8813,1.7642,1.7444,1.6474,1.6083,1.6083,1.6083,1.6083,1.609,1.6144,1.6225,1.6327,1.6435,1.6592,1.6761,3.5351,3.543,3.5566,0.0,3.6016,0.0,3.6601,3.668,3.6953,3.7773,3.7871,3.8047,3.8476,3.8535,3.8359,3.7969,0.0,0.0,0.0,3.8691,3.8945,3.8555,3.8144,3.793,3.793,3.7578,3.7578,3.7969,3.8379,3.8574,3.8574,3.8574,3.8574,3.8574,3.8574,3.8574,3.8574,3.8613,3.6552,3.3188,3.3221,3.0943,2.7799,2.8084,2.8027,2.7929,2.8379,2.8305,2.8136,2.8136,2.8136,2.8136,2.8136,2.8136,2.8136,2.8136,2.8136,2.8136,2.8136,2.8136,2.8136,2.8136,2.8136,2.8136,2.8136,2.8136,2.8136,2.8136,2.8136,2.8243,2.8551,2.8591,2.8764,2.9352,2.9432,2.9526,2.9847,0.0,0.0,0.0,0.0,0.0,0.0,2.9259,2.9873,0.0,0.0,0.0,0.0,0.0,2.8297,3.0301,3.0621,2.9518,2.7045,2.7333,2.6432,2.4333,2.4166,2.4269,2.4074,2.1343,1.9978,1.9782,1.7253,1.6083,1.6083,1.6083,1.609,1.611,1.6252,1.632,1.6374,1.6646,1.6754,1.6788,0.0,0.0,3.5898,3.5996,3.6016,3.6172,3.6601,3.668,3.6855,3.7383,3.7441,3.7598,3.8027,3.8086,3.8027,3.793,3.8418,3.8633,3.8437,3.8301,3.8184,3.8086,3.7969,3.793,3.793,3.8144,3.832,3.8418,3.8516,3.8574,3.8574,3.8574,3.8574,3.8574,3.8574,3.8574,3.8594,3.8926,3.7577,3.5387,3.5687,3.4603,3.2553,3.2632,3.1701,3.0476,3.0563,2.9607,2.8136,2.8136,2.8136,2.8136,2.8136,2.8136,2.8136,2.8136,2.8136,2.8136,2.8136,2.8136,2.8136,2.8136,2.8136,2.8136,2.8136,2.8136,2.8136,2.8136,2.8136,2.8243,2.8551,2.8417,2.8444,2.9045,2.8965,2.8991,2.9513,2.9579,0.0,0.0,2.99,3.0114,3.0568,3.0528,3.0194,0.0,0.0,0.0,0.0,2.8644,2.9152,3.0327,3.0421,3.0451,3.0065,3.0194,3.0174,2.981,2.7745,2.6806,2.6806,2.2126,1.9978,1.9782,1.7253,1.6083,1.6083,1.6083,1.6151,1.6259,1.6293,1.6449,1.6653,1.672,1.6822,1.6931,3.5976,3.6016,3.6016,3.6016,3.6191,3.6406,3.6641,3.6836,3.7109,3.7539,3.7578,3.7754,3.8164,3.8223,3.8223,3.8223,3.8613,3.8691,3.8301,3.8418,3.8418,3.8223,3.8223,3.8223,3.8223,3.8457,3.8574,3.8574,3.8574,3.8574,3.8574,3.8574,3.8574,3.8574,3.8574,3.8691,3.8887,3.9101,3.8198,3.6705,3.6904,3.5957,3.4354,3.4354,3.319,3.1392,3.1392,3.0107,2.8136,2.8136,2.8136,2.8136,2.8136,2.8136,2.8136,2.8136,2.8136,2.8136,2.8136,2.8136,2.8136,2.8136,2.8136,2.8136,2.8136,2.8136,2.8136,2.8136,2.8136,2.819,2.8364,2.8257,2.8297,2.8764,2.8938,2.9165,2.9619,2.9913,3.0207,3.0515,3.0555,3.0675,3.0996,3.0889,3.0474,2.97,0.0,0.0,2.8978,2.9392,2.986,3.0341,3.0621,3.0902,3.1223,3.1356,3.1517,3.1664,3.0306,2.9529,2.9529,2.5432,2.2897,2.1735,1.901,1.7253,1.609,1.6157,1.6232,1.6327,1.6456,1.6612,1.6761,1.6829,1.691,1.6978,3.6016,3.6074,3.6133,3.6211,3.6523,3.6836,3.7031,3.7305,3.7637,3.8066,3.8184,3.834,3.8633,3.8672,3.8672,3.8672,3.9004,3.8867,3.8086,3.8711,3.8945,3.8594,3.8574,3.8574,3.8574,3.8574,3.8574,3.8574,3.8574,3.8574,3.8574,3.8574,3.8613,3.8672,3.8672,3.8906,3.9316,3.9375,3.8728,3.7805,3.786,3.6958,3.5621,3.5298,3.3839,3.1887,3.1557,3.0107,2.8136,2.8136,2.8136,2.8136,2.8136,2.8136,2.8136,2.8136,2.8136,2.8136,2.8136,2.8136,2.8136,2.8136,2.8136,2.8136,2.8136,2.8136,2.8136,2.8136,2.8177,2.8203,2.815,2.8177,2.8257,2.8377,2.8938,2.9419,2.9619,0.0,3.0675,3.0715,3.0768,3.0795,3.0795,3.0755,3.0621,3.0381,3.0314,3.0207,2.9993,3.0221,3.0394,3.0488,3.0969,3.1249,3.1289,3.1543,3.1664,3.1664,3.1664,3.1664,3.1664,2.8943,2.6409,2.3686,2.1183,1.8457,1.613,1.6279,1.6354,1.6402,1.6653,1.6761,1.6802,1.6931,1.6978,1.6978,3.6016,3.6309,3.668,3.7031,3.7148,3.7559,3.8652,3.8574,3.8535,3.8945,3.9336,3.9473,3.9141,3.9101,3.9101,3.9101,3.916,3.9004,3.8516,3.8594,3.8652,3.8574,3.8574,3.8574,3.8574,3.8574,3.8574,3.8574,3.8574,3.8574,3.8574,3.8574,3.8769,3.9101,3.9101,3.9355,3.9805,4.0176,4.0238,4.0067,4.0434,4.0452,4.0021,3.8073,3.6121,3.4002,3.2052,3.0107,2.8136,2.8136,2.8136,2.8136,2.8136,2.8136,2.8136,2.8136,2.8136,2.8136,2.8136,2.8136,2.8136,2.8136,2.8136,2.8136,2.8136,2.8136,2.8136,2.8136,2.835,2.8457,2.819,2.8364,2.8297,2.7589,2.819,2.8671,2.8444,0.0,3.014,3.0394,3.0648,3.0795,3.0795,3.0568,3.0408,3.0368,3.0127,3.0074,3.0274,3.0341,3.0581,3.1076,3.1183,3.1343,3.1597,3.165,3.1664,3.1664,3.1664,3.1664,3.1664,2.8943,2.6409,2.3696,2.1326,1.8644,1.6286,1.6429,1.6564,1.6686,1.6734,1.6829,1.6944,1.6971,1.6978,1.6978,3.6621,3.6875,3.7148,3.7559,3.8008,3.8437,3.8809,3.9101,3.9355,3.9551,3.9766,3.9824,3.9609,3.957,3.957,3.957,3.957,3.9492,3.9297,3.9043,3.8809,3.8594,3.8574,3.8574,3.8574,3.8574,3.8574,3.8574,3.8574,3.8691,3.8906,3.8906,3.916,3.957,3.957,3.9824,4.0254,4.0449,4.0664,4.0898,4.1094,4.1172,4.0997,3.8724,3.6602,3.4327,3.2217,3.0107,2.8136,2.8136,2.8136,2.8136,2.8136,2.8136,2.8136,2.8136,2.8136,2.8136,2.8136,2.8136,2.8136,2.8136,2.8136,2.8136,2.8136,2.827,2.839,2.839,2.8511,2.8617,2.8617,2.8617,2.8524,2.8257,2.8831,2.9259,2.9125,2.9847,3.0434,3.0581,3.0568,3.0555,3.0555,3.0301,3.0114,3.0114,3.014,3.0221,3.0354,3.0662,3.0942,3.1223,3.1383,3.153,3.1664,3.1664,3.1664,3.1664,3.1664,3.1664,3.1664,3.0496,2.8548,2.5829,2.3209,2.0759,1.8297,1.7059,1.6612,1.6761,1.6842,1.6917,1.6978,1.6978,1.6978,1.6978,3.7168,3.7461,3.7734,3.8144,3.8848,3.9316,3.9199,3.9668,4.0039,4.0039,4.0137,4.0156,4.0059,4.0039,4.0039,4.0039,4.0039,4.0,3.9902,3.9648,3.9277,3.875,3.8633,3.8574,3.8574,3.8574,3.8613,3.873,3.873,3.8945,3.9355,3.9355,3.9609,4.0039,4.0039,4.0273,4.0684,4.0684,4.0859,4.1172,4.1172,4.1172,4.0997,3.8724,3.6602,3.4327,3.2217,3.0107,2.8136,2.8136,2.8136,2.8136,2.8136,2.8136,2.8136,2.8136,2.8136,2.8136,2.8136,2.8136,2.8136,2.8136,2.8136,2.8163,2.823,2.843,2.8631,2.8698,2.8764,2.8858,2.9005,2.8911,2.8818,2.8831,2.9379,2.9766,2.9633,3.0234,3.0662,3.0595,3.0448,3.0341,3.0261,3.0114,2.9993,2.9927,3.0261,3.0461,3.0461,3.0942,3.1263,3.133,3.1557,3.1664,3.1664,3.1664,3.1664,3.1664,3.1664,3.1664,3.1664,3.1664,3.0344,2.7874,2.5766,2.3168,2.0209,1.8383,1.7305,1.6815,1.6937,1.6978,1.6978,1.6978,1.6978,1.6978,3.7285,3.793,3.8613,3.9043,3.9512,4.0098,4.0859,4.0684,4.0469,4.0469,4.082,4.0918,4.0527,4.0469,4.0469,4.0469,4.0469,4.0312,3.9922,4.0234,4.0039,3.9199,3.8789,3.8574,3.8574,3.8574,3.8769,3.916,3.916,3.9394,3.9844,3.9844,4.0078,4.0469,4.0469,4.0723,4.1133,4.1133,4.1152,4.1172,4.1172,4.1172,4.0997,3.8724,3.6602,3.4327,3.2217,3.0107,2.8136,2.8136,2.8136,2.8136,2.8136,2.8136,2.8136,2.8136,2.8136,2.8136,2.8136,2.8136,2.8136,2.8136,2.8136,2.8217,2.8511,2.8591,2.8684,2.8951,2.9232,2.9339,2.9085,2.9245,2.9152,2.8337,2.8938,2.9325,2.8778,2.9673,3.0287,3.002,3.0207,3.0247,2.998,3.0181,3.0207,2.994,3.0448,3.0755,3.0755,3.1049,3.1356,3.1623,3.1664,3.1664,3.1664,3.1664,3.1664,3.1664,3.1664,3.1664,3.1664,3.1664,3.0447,2.8144,2.8171,2.5408,2.0798,2.0778,1.9222,1.6965,1.6978,1.6978,1.6978,1.6978,1.6978,1.6978,3.8809,3.918,3.9531,3.9941,4.0391,4.0703,4.0762,4.0859,4.0918,4.0918,4.1074,4.1113,4.0937,4.0918,4.0918,4.0918,4.0918,4.0859,4.0703,4.0586,4.0117,3.9238,3.9043,3.8965,3.8965,3.8965,3.918,3.9629,3.9629,3.9844,4.0273,4.0273,4.0508,4.0918,4.0918,4.1016,4.1172,4.1172,4.1172,4.1172,4.1172,4.1172,4.0997,3.8724,3.7419,3.6442,3.4164,3.2052,3.026,3.026,2.9286,2.8136,2.8136,2.8136,2.8136,2.8136,2.8136,2.819,2.8377,2.8283,2.819,2.8377,2.843,2.8511,2.8804,2.9018,2.9179,2.9285,2.9406,2.9499,2.9566,2.9526,2.9432,2.9272,2.9526,2.9673,2.9446,2.9806,3.0114,3.0181,3.0127,3.0114,3.0181,3.0301,3.0314,3.0207,3.0728,3.1062,3.1062,3.1343,3.1557,3.1664,3.1664,3.1664,3.1664,3.1664,3.1664,3.1664,3.1664,3.1664,3.1664,3.1664,3.1146,3.0268,2.8801,2.7108,2.5471,2.3952,2.1704,1.9454,1.9454,1.8424,1.6978,1.6978,1.6978,1.6978,3.9766,4.0,4.0176,4.0469,4.0879,4.1074,4.0781,4.0976,4.1172,4.1172,4.1172,4.1172,4.1172,4.1172,4.1172,4.1172,4.1172,4.1172,4.1172,4.0898,4.0391,3.9648,3.9492,3.9492,3.9609,3.9492,3.9648,4.0098,4.0098,4.0312,4.0723,4.0723,4.0879,4.1172,4.1172,4.1172,4.1172,4.1172,4.1172,4.1172,4.1172,4.1172,4.1016,3.9531,3.8548,3.7737,3.6281,3.4327,3.2381,3.2381,3.1076,2.9118,2.9118,2.8796,2.8136,2.8136,2.8217,2.8337,2.8551,2.8524,2.847,2.8684,2.8751,2.8818,2.9112,2.9339,2.9513,2.9606,2.9619,2.9686,2.9887,2.9753,2.9686,2.9887,2.9913,2.9913,2.9913,2.9913,2.9993,3.0194,3.0127,3.014,3.0341,3.0528,3.0595,3.0501,3.1036,3.137,3.137,3.1557,3.1664,3.1664,3.1664,3.1664,3.1664,3.1664,3.1664,3.1664,3.1664,3.1664,3.1664,3.1664,3.1717,3.1797,2.9846,2.897,2.8451,2.6649,2.406,2.1103,2.1103,1.9462,1.6978,1.6978,1.6978,1.6978,3.9902,4.0234,4.0527,4.0527,4.0879,4.1172,4.1172,4.1172,4.1172,4.1172,4.1172,4.1172,4.1172,4.1172,4.1172,4.1172,4.1172,4.1172,4.1172,4.1172,4.0976,4.0566,4.0137,4.0098,4.0508,4.0117,4.0117,4.0527,4.0527,4.0762,4.1172,4.1172,4.1172,4.1172,4.1172,4.1172,4.1172,4.1172,4.1172,4.1172,4.1172,4.1172,4.1172,4.1172,3.9864,3.7896,3.7896,3.6602,3.4651,3.4651,3.3186,3.1392,3.1392,2.9941,2.8136,2.8136,2.8364,2.8604,2.8604,2.8818,2.9045,2.9045,2.9045,2.9125,2.9419,2.9486,2.9566,2.986,2.9913,2.9913,2.9913,2.9913,2.9913,2.9913,2.9913,2.9913,2.9913,2.9913,2.9913,2.9927,3.0181,3.0354,3.0368,3.0889,3.1102,3.0822,3.1343,3.1664,3.1664,3.1664,3.1664,3.1664,3.1664,3.1664,3.1664,3.1664,3.1664,3.1664,3.1664,3.1664,3.1664,3.1664,3.1824,3.2104,3.2104,3.084,2.8908,2.8908,2.5816,2.1103,2.1103,1.9462,1.6978,1.6978,1.6978,1.6978,4.0781,4.0898,4.0976,4.0976,4.1094,4.1172,4.1172,4.1172,4.1172,4.1172,4.1172,4.1172,4.1172,4.1172,4.1172,4.1172,4.1172,4.1172,4.1172,4.1445,4.168,4.1855,4.0879,4.0391,4.0527,4.0703,4.0996,4.1426,4.1426,4.1484,4.1601,4.1308,4.1172,4.1172,4.1172,4.1172,4.1172,4.1172,4.1172,4.1172,4.1172,4.1172,4.1172,4.1172,4.0841,4.0197,4.0197,3.8882,3.6762,3.5137,3.3186,3.1076,2.9607,2.8796,2.8136,2.8136,2.8203,2.8377,2.8791,2.8978,2.9085,2.9299,2.9352,2.9432,2.9726,2.978,2.9806,2.99,2.9913,2.9913,2.9913,2.9913,2.9913,2.9913,2.9913,2.9993,3.0194,3.0047,3.014,3.0755,3.0555,3.0515,3.0929,3.1129,3.1196,3.1102,3.145,3.1664,3.1664,3.1664,3.1664,3.1664,3.1664,3.1664,3.1664,3.1664,3.1664,3.1664,3.1664,3.1664,3.1664,3.1664,3.1824,3.2104,3.2104,3.2036,3.1758,3.1758,2.9888,2.6853,2.6853,2.3981,1.9871,1.9871,1.8634,1.6978,4.1172,4.1172,4.1172,4.1172,4.1172,4.1172,4.1172,4.1172,4.1172,4.1172,4.1172,4.1172,4.1172,4.1172,4.125,4.1406,4.1426,4.1426,4.1426,4.166,4.1992,4.2402,4.168,4.1348,4.1523,4.1621,4.1797,4.2051,4.1875,4.1797,4.1797,4.1367,4.1172,4.1172,4.1172,4.1172,4.1172,4.1172,4.1172,4.1172,4.1172,4.1172,4.1172,4.1172,4.1172,4.1172,4.1172,4.0353,3.8882,3.6762,3.4002,3.1076,2.8964,2.8136,2.8136,2.8136,2.831,2.8577,2.8938,2.9205,2.9432,2.9606,2.9659,2.97,2.9873,2.9913,2.9913,2.9913,2.9913,2.9913,2.9913,2.9913,2.9913,2.9913,2.9913,3.002,3.0314,3.0207,3.0327,3.0982,3.0849,3.0835,3.1196,3.133,3.1396,3.1396,3.157,3.1664,3.1664,3.1664,3.1664,3.1664,3.1664,3.1664,3.1664,3.1664,3.1664,3.1664,3.1664,3.1664,3.1677,3.1784,3.1931,3.2104,3.2225,3.2545,3.2973,3.2973,3.1527,2.9319,2.9319,2.6035,2.1103,2.1103,1.9462,1.6978,4.1172,4.1172,4.1172,4.1172,4.1172,4.1172,4.1172,4.1172,4.1172,4.1172,4.1172,4.1172,4.1172,4.1211,4.1387,4.1758,4.1836,4.1855,4.1855,4.1894,4.209,4.2461,4.2519,4.2734,4.3125,4.2715,4.248,4.248,4.207,4.1855,4.1836,4.1387,4.1172,4.1172,4.1172,4.1172,4.1172,4.1172,4.1172,4.1172,4.1172,4.1172,4.1172,4.1172,4.1172,4.1172,4.1172,4.1172,4.0841,3.839,3.4813,3.1076,2.8964,2.8163,2.819,2.819,2.8591,2.9045,2.9072,2.9472,2.9887,2.994,2.994,2.9927,2.9953,2.994,2.9927,2.9953,2.994,2.9913,2.9913,2.9913,2.9927,2.9953,2.994,3.0034,3.0354,3.0381,3.0474,3.0795,3.1062,3.1236,3.1263,3.1517,3.1664,3.1664,3.1664,3.1664,3.1664,3.1664,3.1664,3.1664,3.1664,3.1664,3.1664,3.1664,3.1664,3.1664,3.1664,3.1677,3.1717,3.1984,3.2131,3.2198,3.2465,3.2746,3.3013,3.3013,3.1752,2.9724,2.9319,2.6035,2.1518,2.1103,1.9462,1.6978,4.1172,4.1172,4.1172,4.1172,4.1172,4.1172,4.1172,4.1172,4.1172,4.1172,4.1172,4.1172,4.1172,4.1465,4.1699,4.1797,4.2109,4.2285,4.2285,4.2617,4.2832,4.293,4.3242,4.3476,4.3574,4.3144,4.293,4.293,4.25,4.2285,4.2266,4.1523,4.1172,4.1172,4.1172,4.1172,4.1172,4.1172,4.1172,4.1172,4.1172,4.1172,4.1172,4.1172,4.1172,4.1172,4.1172,4.1172,4.0685,3.6762,3.3676,3.1076,2.8964,2.831,2.8511,2.8511,2.8764,2.9085,2.9325,2.9486,2.9686,3.0154,3.0087,2.998,3.0207,3.0087,2.998,3.0221,3.0074,2.9913,2.9913,2.9913,2.9993,3.0221,3.0074,3.01,3.0621,3.0501,3.0555,3.1076,3.1183,3.1316,3.1557,3.1637,3.1664,3.1664,3.1664,3.1664,3.1664,3.1664,3.1664,3.1664,3.1664,3.1664,3.1664,3.1664,3.1664,3.1664,3.1664,3.1784,3.2011,3.2078,3.2358,3.2786,3.2853,3.3053,3.332,3.332,3.2947,3.2384,3.0141,2.7261,2.3981,2.1924,1.9462,1.6978,4.1172,4.1172,4.1172,4.1172,4.1172,4.1172,4.1172,4.1172,4.1172,4.1172,4.1172,4.125,4.1445,4.166,4.1875,4.207,4.248,4.2734,4.2734,4.2949,4.3164,4.3359,4.3594,4.3711,4.3711,4.3496,4.3379,4.3379,4.2949,4.2734,4.2715,4.1875,4.1465,4.1465,4.1269,4.1172,4.1172,4.1172,4.1172,4.1172,4.1172,4.1172,4.1172,4.1172,4.1172,4.1172,4.1172,4.0509,3.9216,3.6922,3.4813,3.2725,3.1919,3.0942,3.0113,3.0439,2.9859,2.9285,2.9446,2.9686,2.994,3.01,3.014,3.0167,3.0327,3.0127,2.9967,3.0114,3.014,3.0087,2.994,3.014,3.0341,3.0354,3.0234,3.0327,3.0915,3.0755,3.0782,3.137,3.1436,3.1503,3.165,3.1664,3.1664,3.1664,3.1664,3.1664,3.1664,3.1664,3.1664,3.1664,3.1664,3.1664,3.1664,3.1664,3.1664,3.1664,3.1664,3.1824,3.2104,3.2251,3.2559,3.2986,3.3133,3.3267,3.3414,3.3414,3.2598,3.1365,2.9939,2.6853,2.3156,2.1725,1.9462,1.6978,4.1172,4.1172,4.1172,4.1172,4.1172,4.1172,4.1172,4.1172,4.1172,4.1172,4.1172,4.1328,4.1758,4.1933,4.2187,4.2617,4.2969,4.3183,4.3183,4.3183,4.334,4.3691,4.3711,4.3711,4.3711,4.3711,4.3711,4.3711,4.3281,4.3086,4.3066,4.2266,4.1914,4.1894,4.1465,4.1289,4.1269,4.1211,4.1172,4.1172,4.1172,4.1172,4.1172,4.1172,4.1172,4.1172,4.1172,4.0021,3.839,3.8054,3.6797,3.5288,3.5261,3.3786,3.2124,3.2468,3.1279,2.9646,2.97,3.006,3.0368,3.0127,3.0221,3.0354,3.0354,3.0127,2.9953,3.0114,3.0261,3.0301,3.01,3.0461,3.0728,3.0541,3.0461,3.0621,3.1156,3.1022,3.1049,3.1543,3.1637,3.1664,3.1664,3.1664,3.1664,3.1664,3.1664,3.1664,3.1664,3.1664,3.1664,3.1664,3.1664,3.1664,3.1664,3.1664,3.1664,3.1664,3.1664,3.1851,3.2185,3.2438,3.2732,3.3066,3.3307,3.3414,3.3414,3.3414,3.1982,2.9939,2.8913,2.583,2.1725,2.0696,1.9044,1.6978,4.1172,4.1172,4.1172,4.1172,4.1172,4.1172,4.1172,4.1172,4.1172,4.1172,4.1172,4.1328,4.1758,4.2461,4.3066,4.3496,4.3574,4.3613,4.3613,4.3613,4.3652,4.3711,4.3711,4.3711,4.3711,4.3711,4.3711,4.3711,4.3281,4.3086,4.3066,4.2578,4.2344,4.2324,4.1894,4.1719,4.1699,4.1328,4.1172,4.1172,4.1172,4.1172,4.1172,4.1172,4.1172,4.1172,4.1172,4.1016,4.0509,3.8548,3.7952,3.7738,3.582,3.4118,3.2812,3.3156,3.192,3.0301,3.0541,3.0675,3.0728,3.0688,3.0515,3.0354,3.0354,3.0127,3.0127,3.0889,3.0675,3.0421,3.0635,3.0742,3.0862,3.1076,3.0902,3.0849,3.1183,3.1196,3.1196,3.1276,3.1517,3.1664,3.1664,3.1664,3.1664,3.1664,3.1664,3.1664,3.1664,3.1664,3.1664,3.1664,3.1664,3.1664,3.1664,3.1664,3.1664,3.1664,3.1664,3.1957,3.2492,3.2532,3.2839,3.336,3.3387,3.3414,3.3414,3.3414,3.32,3.2384,2.7669,2.5215,2.3981,1.9253,1.7398,1.6978,4.1172,4.1172,4.1172,4.1172,4.1172,4.1172,4.1172,4.1172,4.1172,4.1172,4.1387,4.168,4.2109,4.291,4.3496,4.3691,4.3711,4.3711,4.3711,4.3711,4.3711,4.3711,4.3711,4.3711,4.3711,4.3711,4.3711,4.3711,4.3516,4.3418,4.3418,4.2988,4.2793,4.2754,4.209,4.1797,4.1777,4.1348,4.1172,4.1172,4.1172,4.1172,4.1172,4.1172,4.1172,4.1172,4.1172,4.1172,4.1055,4.0287,4.016,4.0208,3.9829,3.8522,3.7129,3.728,3.4999,3.247,3.2247,3.1485,3.0515,3.0341,3.0327,3.0408,3.0568,3.0381,3.0234,3.0448,3.0675,3.0782,3.0581,3.0955,3.1276,3.1236,3.1116,3.1142,3.1436,3.133,3.1289,3.145,3.1583,3.1664,3.1664,3.1664,3.1664,3.1664,3.1664,3.1664,3.1664,3.1664,3.1664,3.1664,3.1664,3.1664,3.1664,3.1664,3.1664,3.1677,3.1837,3.2131,3.2545,3.2545,3.2866,3.3414,3.3414,3.3414,3.3414,3.3414,3.2585,3.095,2.8495,2.5625,2.2338,1.8424,1.6978,1.6978]}]]